[[{"header":{"parameterUnit":"m.s-1","parameterCategory":1,"la1":30.6,"la2":29.2853,"lo1":-89.7004,"lo2":-87.6739,"dy":0.0162,"dx":0.0183,"nx":112,"ny":82,"refTime":"2024-07-06T06:00:00:Z","depth":0,"parameterNumber":2,"parameterNumberName":"U-component_of_WINDS"},"data":[0.0,0.0,0.0,0.0,0.0,0.0,0.0,0.0,0.0,0.0,0.0,0.0,0.0,0.0,0.0,0.0,0.0,0.0,0.0,0.0,0.0,0.0,0.0,0.0,0.0,0.0,0.0,0.0,0.0,0.0,0.0,0.0,0.0,0.0,0.0,0.0,0.0,0.0,0.0,0.0,0.0,0.0,0.0,0.0,0.0,0.0,0.0,0.0,0.0,0.0,0.0,0.0,0.0,0.0,0.0,0.0,0.0,0.0,0.0,0.0,0.0,0.0,0.0,0.0,0.0,0.0,0.0,0.0,0.0,0.0,0.0,0.0,0.0,0.0,0.0,0.0,0.0,0.0,0.0,0.0,0.0,0.0,0.0,0.0,0.0,0.0,0.0,0.0,0.0,0.0,0.0,-0.6379,-0.7232,-0.7705,-0.7705,-0.733,-0.6895,-0.6445,0.0,0.0,0.0,0.0,0.0,0.0,0.0,0.0,0.0,0.0,0.0,0.0,0.0,0.0,0.0,0.0,0.0,0.0,0.0,0.0,0.0,0.0,0.0,0.0,0.0,0.0,0.0,0.0,0.0,0.0,0.0,0.0,0.0,0.0,0.0,0.0,0.0,0.0,0.0,0.0,0.0,0.0,0.0,0.0,0.0,0.0,0.0,0.0,0.0,0.0,0.0,0.0,0.0,0.0,0.0,0.0,0.0,0.0,0.0,0.0,0.0,0.0,0.0,0.0,0.0,0.0,0.0,0.0,0.0,0.0,0.0,0.0,0.0,0.0,0.0,0.0,0.0,0.0,0.0,0.0,0.0,0.0,0.0,0.0,0.0,0.0,0.0,0.0,0.0,0.0,0.0,0.0,0.0,0.0,0.0,0.0,0.0,0.0,0.0,0.0,0.0,0.0,0.0,0.0,-0.5547,-0.6855,-0.7427,-0.7705,-0.7705,-0.733,-0.6895,-0.6445,0.0,0.0,0.0,0.0,0.0,0.0,0.0,0.0,0.0,0.0,0.0,0.0,0.0,0.0,0.0,0.0,0.0,0.0,0.0,0.0,0.0,0.0,0.0,0.0,0.0,0.0,0.0,0.0,0.0,0.0,0.0,0.0,0.0,0.0,0.0,0.0,0.0,0.0,0.0,0.0,0.0,0.0,0.0,0.0,0.0,0.0,0.0,0.0,0.0,0.0,0.0,0.0,0.0,0.0,0.0,0.0,0.0,0.0,0.0,0.0,0.0,0.0,0.0,0.0,0.0,0.0,0.0,0.0,0.0,0.0,0.0,0.0,0.0,0.0,0.0,0.0,0.0,0.0,0.0,0.0,0.0,0.0,0.0,0.0,0.0,0.0,0.0,0.0,0.0,0.0,0.0,0.0,0.0,0.0,0.0,0.0,0.0,0.0,0.0,0.0,0.0,0.0,0.0,-0.5449,-0.6141,-0.7012,-0.7466,-0.7705,-0.7705,-0.733,-0.6895,-0.6445,-0.5274,0.0,0.0,0.0,0.0,0.0,0.0,0.0,0.0,0.0,0.0,0.0,0.0,0.0,0.0,0.0,0.0,0.0,0.0,0.0,0.0,0.0,0.0,0.0,0.0,0.0,0.0,0.0,0.0,0.0,0.0,0.0,0.0,0.0,0.0,0.0,0.0,0.0,0.0,0.0,0.0,0.0,0.0,0.0,0.0,0.0,0.0,0.0,0.0,0.0,0.0,0.0,0.0,0.0,0.0,0.0,0.0,0.0,0.0,0.0,0.0,0.0,0.0,0.0,0.0,0.0,0.0,0.0,0.0,0.0,0.0,0.0,0.0,0.0,0.0,0.0,0.0,0.0,0.0,0.0,0.0,0.0,0.0,0.0,0.0,0.0,0.0,0.0,0.0,0.0,0.0,0.0,0.0,0.0,0.0,0.0,0.0,0.0,0.0,0.0,0.0,0.0,0.0,-0.6211,-0.6621,-0.7187,-0.7525,-0.7705,-0.7705,-0.733,-0.6895,-0.6445,-0.5333,0.0,0.0,0.0,0.0,0.0,0.0,0.0,0.0,0.0,0.0,0.0,0.0,0.0,0.0,0.0,0.0,0.0,0.0,0.0,0.0,0.0,0.0,0.0,0.0,0.0,0.0,0.0,0.0,0.0,0.0,0.0,0.0,0.0,0.0,0.0,0.0,0.0,0.0,0.0,0.0,0.0,0.0,0.0,0.0,0.0,0.0,0.0,0.0,0.0,0.0,0.0,0.0,0.0,0.0,0.0,0.0,0.0,0.0,0.0,0.0,0.0,0.0,0.0,0.0,0.0,0.0,0.0,0.0,0.0,0.0,0.0,0.0,0.0,0.0,0.0,0.0,0.0,0.0,0.0,0.0,0.0,0.0,0.0,0.0,0.0,0.0,0.0,0.0,0.0,0.0,0.0,0.0,0.0,0.0,0.0,0.0,0.0,0.0,0.0,0.0,0.0,0.0,-0.6375,-0.6726,-0.7569,-0.7686,-0.7705,-0.7705,-0.733,-0.6895,-0.6445,-0.5333,0.0,0.0,0.0,0.0,0.0,0.0,0.0,0.0,0.0,0.0,0.0,0.0,0.0,0.0,0.0,0.0,0.0,0.0,0.0,0.0,0.0,0.0,0.0,0.0,0.0,0.0,0.0,0.0,0.0,0.0,0.0,0.0,0.0,0.0,0.0,0.0,0.0,0.0,0.0,0.0,0.0,0.0,0.0,0.0,0.0,0.0,0.0,0.0,0.0,0.0,0.0,0.0,0.0,0.0,0.0,0.0,0.0,0.0,0.0,0.0,0.0,0.0,0.0,0.0,0.0,0.0,0.0,0.0,0.0,0.0,0.0,0.0,0.0,0.0,0.0,0.0,0.0,0.0,0.0,0.0,0.0,0.0,0.0,0.0,0.0,0.0,0.0,0.0,0.0,0.0,0.0,0.0,0.0,0.0,0.0,0.0,0.0,0.0,0.0,0.0,0.0,0.0,-0.6394,-0.6726,0.0,-0.7705,-0.7705,-0.7705,-0.733,-0.6895,-0.6445,0.0,0.0,0.0,0.0,0.0,0.0,0.0,0.0,0.0,0.0,0.0,0.0,0.0,0.0,0.0,0.0,0.0,0.0,0.0,0.0,0.0,0.0,0.0,0.0,0.0,0.0,0.0,0.0,0.0,0.0,0.0,0.0,0.0,0.0,0.0,0.0,0.0,0.0,0.0,0.0,0.0,0.0,0.0,0.0,0.0,0.0,0.0,0.0,0.0,0.0,0.0,0.0,0.0,0.0,0.0,0.0,0.0,0.0,0.0,0.0,0.0,0.0,0.0,0.0,0.0,0.0,0.0,0.0,0.0,0.0,0.0,0.0,0.0,0.0,0.0,0.0,0.0,0.0,0.0,0.0,0.0,0.0,0.0,0.0,0.0,0.0,0.0,0.0,0.0,0.0,0.0,0.0,0.0,0.0,0.0,0.0,0.0,0.0,0.0,0.0,0.0,0.0,-0.6191,-0.6394,-0.6726,0.0,-0.7705,-0.7705,-0.7705,-0.7193,-0.6738,-0.6426,0.0,0.0,0.0,0.0,0.0,0.0,0.0,0.0,0.0,0.0,0.0,0.0,0.0,0.0,0.0,0.0,0.0,0.0,0.0,0.0,0.0,0.0,0.0,0.0,0.0,0.0,0.0,0.0,0.0,0.0,0.0,0.0,0.0,0.0,0.0,0.0,0.0,0.0,0.0,0.0,0.0,0.0,0.0,0.0,0.0,0.0,0.0,0.0,0.0,0.0,0.0,0.0,0.0,0.0,0.0,0.0,0.0,0.0,0.0,0.0,0.0,0.0,0.0,0.0,0.0,0.0,0.0,0.0,0.0,0.0,0.0,0.0,0.0,0.0,0.0,0.0,0.0,0.0,0.0,0.0,0.0,0.0,0.0,0.0,0.0,0.0,0.0,0.0,0.0,0.0,0.0,0.0,0.0,0.0,0.0,0.0,0.0,0.0,0.0,0.0,0.0,0.0,-0.6191,-0.6394,-0.6726,-0.7608,-0.7705,-0.7705,-0.7705,-0.6901,-0.6394,0.0,0.0,0.0,0.0,0.0,0.0,0.0,0.0,0.0,0.0,0.0,0.0,0.0,0.0,0.0,0.0,0.0,0.0,0.0,0.0,0.0,0.0,0.0,0.0,0.0,0.0,0.0,0.0,0.0,0.0,0.0,0.0,0.0,0.0,0.0,0.0,0.0,0.0,0.0,0.0,0.0,0.0,0.0,0.0,0.0,0.0,0.0,0.0,0.0,0.0,0.0,0.0,0.0,0.0,0.0,0.0,0.0,0.0,0.0,0.0,0.0,0.0,0.0,0.0,0.0,0.0,0.0,0.0,0.0,0.0,0.0,0.0,0.0,0.0,0.0,0.0,0.0,0.0,0.0,0.0,0.0,0.0,0.0,0.0,0.0,0.0,0.0,0.0,0.0,0.0,0.0,0.0,0.0,0.0,0.0,0.0,0.0,0.0,0.0,0.0,0.0,0.0,0.0,-0.6191,-0.6394,-0.6726,-0.7608,-0.7705,-0.7705,-0.7705,-0.6901,-0.6394,-0.6394,0.0,0.0,0.0,0.0,0.0,0.0,0.0,0.0,0.0,0.0,0.0,0.0,0.0,0.0,0.0,0.0,0.0,0.0,0.0,0.0,0.0,0.0,0.0,0.0,0.0,0.0,0.0,0.0,0.0,0.0,0.0,0.0,0.0,0.0,0.0,0.0,0.0,0.0,0.0,0.0,0.0,0.0,0.0,0.0,0.0,0.0,0.0,0.0,0.0,0.0,0.0,0.0,0.0,0.0,0.0,0.0,0.0,0.0,0.0,0.0,0.0,0.0,0.0,0.0,0.0,0.0,0.0,0.0,0.0,0.0,0.0,0.0,0.0,0.0,0.0,0.0,0.0,0.0,0.0,0.0,0.0,0.0,0.0,0.0,0.0,0.0,0.0,0.0,0.0,0.0,0.0,0.0,0.0,0.0,0.0,0.0,0.0,0.0,0.0,0.0,0.0,0.0,-0.6191,-0.6394,-0.6726,-0.7608,-0.7705,-0.7705,-0.7705,-0.7076,-0.6602,-0.6414,0.0,0.0,0.0,0.0,0.0,0.0,0.0,0.0,0.0,0.0,0.0,0.0,0.0,0.0,0.0,0.0,0.0,0.0,0.0,0.0,0.0,0.0,0.0,0.0,0.0,0.0,0.0,0.0,0.0,0.0,0.0,0.0,0.0,0.0,0.0,0.0,0.0,0.0,0.0,0.0,0.0,0.0,0.0,0.0,0.0,0.0,0.0,0.0,0.0,0.0,0.0,0.0,0.0,0.0,0.0,0.0,0.0,0.0,0.0,0.0,0.0,0.0,0.0,0.0,0.0,0.0,0.0,0.0,0.0,0.0,0.0,0.0,0.0,0.0,0.0,0.0,0.0,0.0,0.0,0.0,0.0,0.0,0.0,0.0,0.0,0.0,0.0,0.0,0.0,0.0,0.0,0.0,0.0,0.0,0.0,0.0,0.0,0.0,0.0,0.0,0.0,0.0,-0.6191,-0.6433,-0.6784,-0.7608,-0.7705,-0.7705,-0.7705,-0.733,-0.6895,-0.6445,0.0,0.0,0.0,0.0,0.0,0.0,0.0,0.0,0.0,0.0,0.0,0.0,0.0,0.0,0.0,0.0,0.0,0.0,0.0,0.0,0.0,0.0,0.0,0.0,0.0,0.0,0.0,0.0,0.0,0.0,0.0,0.0,0.0,0.0,0.0,0.0,0.0,0.0,0.0,0.0,0.0,0.0,0.0,0.0,0.0,0.0,0.0,0.0,0.0,0.0,0.0,0.0,0.0,0.0,0.0,0.0,0.0,0.0,0.0,0.0,-0.6761,0.0,0.0,0.0,0.0,0.0,0.0,0.0,0.0,0.0,0.0,0.0,0.0,0.0,0.0,0.0,0.0,0.0,0.0,0.0,0.0,0.0,0.0,0.0,0.0,0.0,0.0,0.0,0.0,0.0,0.0,0.0,0.0,0.0,0.0,0.0,0.0,0.0,0.0,0.0,0.0,0.0,-0.6219,-0.6719,-0.7135,-0.7647,-0.7705,-0.7705,-0.7705,-0.733,-0.6895,-0.6445,0.0,0.0,0.0,0.0,0.0,0.0,0.0,0.0,0.0,0.0,0.0,0.0,0.0,0.0,0.0,0.0,0.0,0.0,0.0,0.0,0.0,0.0,0.0,0.0,0.0,0.0,0.0,0.0,0.0,0.0,0.0,0.0,0.0,0.0,0.0,0.0,0.0,0.0,0.0,0.0,0.0,0.0,0.0,0.0,0.0,0.0,0.0,0.0,0.0,0.0,0.0,0.0,0.0,0.0,0.0,0.0,0.0,0.0,0.0,0.0,0.0,-0.7914,0.0,0.0,0.0,0.0,0.0,0.0,0.0,0.0,0.0,0.0,0.0,0.0,0.0,0.0,0.0,0.0,0.0,0.0,0.0,0.0,0.0,0.0,0.0,0.0,0.0,0.0,0.0,0.0,0.0,0.0,0.0,0.0,0.0,0.0,0.0,0.0,0.0,0.0,0.0,0.0,-0.6258,-0.6816,-0.7266,-0.7647,-0.7705,-0.7705,-0.7705,-0.7505,-0.7193,-0.6777,-0.6102,0.0,0.0,0.0,0.0,0.0,0.0,0.0,0.0,0.0,0.0,0.0,0.0,0.0,0.0,0.0,0.0,0.0,0.0,0.0,0.0,0.0,0.0,0.0,0.0,0.0,0.0,0.0,0.0,0.0,0.0,0.0,0.0,0.0,0.0,0.0,0.0,0.0,0.0,0.0,0.0,0.0,0.0,0.0,0.0,0.0,0.0,0.0,0.0,0.0,0.0,0.0,0.0,0.0,-1.2508,-1.2508,-1.2508,-1.2508,-1.1921,-1.086,-0.9763,-0.9023,-0.8574,0.0,0.0,0.0,0.0,0.0,0.0,0.0,0.0,0.0,0.0,0.0,0.0,0.0,0.0,0.0,0.0,0.0,0.0,0.0,0.0,0.0,0.0,0.0,0.0,0.0,-1.027,-0.995,0.0,0.0,0.0,0.0,0.0,0.0,0.0,0.0,0.0,0.0,0.0,0.0,-0.6639,-0.7216,-0.7699,-0.8143,-0.8093,-0.8038,-0.8038,-0.7944,-0.7695,-0.7203,-0.6827,-0.6277,0.0,0.0,0.0,0.0,0.0,0.0,0.0,0.0,0.0,0.0,0.0,0.0,0.0,0.0,0.0,0.0,0.0,0.0,0.0,0.0,0.0,0.0,0.0,0.0,0.0,0.0,0.0,0.0,0.0,0.0,0.0,0.0,-0.4857,-0.7176,0.0,0.0,0.0,0.0,0.0,0.0,0.0,0.0,0.0,0.0,0.0,0.0,0.0,-0.9589,-0.9466,-0.9466,-1.1422,-1.5259,-1.5259,-1.5259,-1.5259,-1.5259,-1.5175,-1.5005,-1.4831,0.0,-1.1281,-1.1281,0.0,0.0,0.0,0.0,0.0,0.0,0.0,0.0,0.0,0.0,0.0,0.0,0.0,0.0,0.0,0.0,0.0,0.0,0.0,0.0,0.0,0.0,-1.1289,-1.1364,-1.1726,-1.1871,0.0,-0.9928,-0.8731,-0.8121,-0.7578,0.0,0.0,0.0,0.0,0.0,0.0,0.0,-0.8069,-0.8847,-0.9485,-1.006,-0.9663,-0.9352,-0.9352,-0.891,-0.832,-0.758,-0.7483,-0.71,-0.6285,-0.5548,0.0,0.0,0.0,0.0,0.0,0.0,0.0,0.0,0.0,0.0,0.0,0.0,0.0,0.0,0.0,0.0,0.0,0.0,0.0,0.0,0.0,0.0,0.0,0.0,0.0,0.0,0.0,0.0,0.0,-0.5284,-0.6589,-0.7764,-0.8491,-0.8638,0.0,0.0,0.0,0.0,0.0,0.0,0.0,0.0,0.0,-1.0093,-1.1163,-1.1745,-1.1745,-1.2729,-1.4081,-1.5799,-1.5799,-1.5799,-1.5799,-1.5799,-1.5799,-1.5799,-1.5799,-1.5139,-1.406,-1.406,-1.249,-1.0034,0.0,0.0,0.0,0.0,-0.8755,-0.9943,-1.0193,-1.0944,0.0,-1.0306,0.0,0.0,0.0,0.0,0.0,0.0,0.0,0.0,0.0,0.0,0.0,-1.3375,-1.3627,-1.3752,-1.3501,-1.2637,-1.1454,0.0,-0.9704,-0.9131,-0.7143,0.0,0.0,0.0,0.0,0.0,-0.9127,-0.9739,-1.0201,-1.046,-1.0246,-0.9966,-0.9627,-0.9372,-0.8965,-0.8322,-0.8064,-0.7684,-0.7095,-0.6493,-0.5961,0.0,0.0,0.0,0.0,0.0,0.0,0.0,0.0,0.0,0.0,0.0,0.0,0.0,0.0,0.0,0.0,0.0,0.0,0.0,0.0,0.0,0.0,0.0,0.0,0.0,0.0,0.0,0.0,-0.6279,-0.7676,-0.8102,-0.9044,-0.9267,0.0,0.0,0.0,0.0,0.0,0.0,-0.8895,-1.1381,-1.2819,-1.2819,-1.3518,-1.3855,-1.3855,-1.583,-1.6788,-1.6788,-1.6788,-1.6788,-1.6788,-1.6788,-1.6788,-1.6788,-1.6788,-1.6788,-1.6758,-1.6068,-1.4616,-1.2718,-1.1771,-1.0532,-0.9321,-0.9747,-1.0281,-1.0983,-1.2622,-1.3198,-1.2922,-1.1284,0.0,-1.3198,-1.3198,0.0,0.0,0.0,0.0,-1.2445,-1.3391,-1.3979,-1.44,-1.4802,-1.4984,-1.506,-1.4934,-1.4702,-1.3878,0.0,-1.1585,-1.1101,-0.8912,0.0,0.0,0.0,0.0,-0.9653,-1.0239,-1.0704,-1.104,-1.1181,-1.1064,-1.0798,-1.0355,-1.0061,-0.9678,-0.9183,-0.8758,-0.8329,-0.7938,-0.7524,-0.6912,-0.6067,0.0,0.0,0.0,0.0,0.0,0.0,0.0,0.0,0.0,0.0,0.0,0.0,0.0,0.0,0.0,0.0,0.0,0.0,0.0,0.0,0.0,0.0,0.0,0.0,0.0,0.0,0.0,0.0,0.0,-0.865,-1.0525,0.0,0.0,0.0,0.0,-0.7914,-1.0213,-1.161,-1.161,-1.4137,-1.5589,-1.5589,-1.5622,-1.5683,-1.5683,-1.8237,-1.9498,-1.9498,-1.9498,-1.9498,-1.9498,-1.9498,-1.9498,-1.9498,-1.9498,-1.9498,-1.9318,-1.6802,-1.5709,-1.5589,-1.5529,-1.4458,-1.313,-1.4775,-1.441,-1.3048,-1.3148,-1.3198,-1.3173,-1.3073,-1.3098,-1.3198,-1.3198,-1.3885,0.0,0.0,-1.44,-1.4097,-1.4676,-1.4833,-1.4878,-1.4884,-1.5286,-1.5517,-1.5009,-1.5286,-1.5116,0.0,-1.2689,-1.1924,-1.0509,0.0,-1.0384,-0.9776,-1.0225,-1.0885,-1.1624,-1.2054,-1.2489,-1.2996,-1.2614,-1.2289,-1.2264,-1.1275,-1.0486,-1.0135,-0.9631,-0.9148,-0.8755,-0.8351,-0.7977,-0.7584,-0.6662,0.0,0.0,0.0,0.0,0.0,0.0,0.0,0.0,0.0,0.0,0.0,0.0,0.0,0.0,0.0,0.0,0.0,0.0,0.0,0.0,0.0,0.0,0.0,0.0,0.0,0.0,0.0,0.0,-1.2855,-1.2091,0.0,0.0,-0.9418,-0.9773,-1.2745,-1.385,-1.4376,-1.4376,-1.5289,-1.5799,-1.5799,-1.7431,-1.83,-1.83,-1.9228,-1.9708,-1.9708,-1.9708,-1.9708,-1.9708,-1.9708,-1.9708,-1.9708,-1.9708,-1.9708,-1.9618,-1.8689,-1.83,-1.83,-1.83,-1.7932,-1.7451,-1.8068,-1.7915,-1.738,-1.738,-1.738,-1.7166,-1.5769,-1.5322,-1.5322,-1.5322,-1.5271,-1.5316,-1.5793,-1.5542,-1.5261,-1.5793,-1.5944,-1.5944,-1.5944,-1.6095,-1.617,-1.5969,-1.6095,-1.5944,-1.499,-1.4362,-1.3616,-1.2399,-1.2273,-1.2132,-1.1556,-1.1663,-1.2014,-1.2629,-1.283,-1.2998,-1.3173,-1.3023,-1.2789,-1.2438,-1.1726,-1.1065,-1.055,-1.0007,-0.9568,-0.9209,-0.8669,-0.818,-0.7722,-0.7019,-0.628,0.0,0.0,0.0,0.0,0.0,0.0,0.0,0.0,0.0,0.0,0.0,0.0,0.0,0.0,0.0,0.0,0.0,0.0,0.0,0.0,0.0,0.0,0.0,0.0,0.0,0.0,-1.2254,-1.4589,-1.3368,-1.1965,-1.091,-1.0264,-1.1524,-1.5511,-1.5799,-1.5799,-1.5799,-1.6638,-1.7118,-1.7118,-1.8809,-1.9708,-1.9708,-1.9708,-1.9708,-1.9708,-1.9708,-1.9708,-1.9708,-1.9708,-1.9708,-1.9708,-1.9708,-1.9708,-1.9708,-1.9708,-1.9708,-1.9708,-1.9708,-1.9708,-1.9708,-1.9708,-1.9708,-1.9708,-1.9708,-1.924,-1.8386,-1.6964,-1.65,-1.65,-1.65,-1.6149,-1.5873,-1.635,-1.6224,-1.6045,-1.64,-1.65,-1.65,-1.65,-1.65,-1.65,-1.65,-1.65,-1.6375,-1.6045,-1.5542,-1.4884,-1.3917,-1.3767,-1.3641,-1.3308,-1.3082,-1.3082,-1.3458,-1.3341,-1.3198,-1.3198,-1.3198,-1.3048,-1.2714,-1.2002,-1.1425,-1.1034,-1.032,-0.979,-0.9568,-0.8996,-0.8441,-0.7923,-0.7238,-0.6572,-0.5913,0.0,0.0,0.0,0.0,0.0,0.0,0.0,0.0,0.0,0.0,0.0,0.0,0.0,0.0,0.0,0.0,0.0,0.0,0.0,0.0,0.0,0.0,0.0,-1.1441,-1.2491,-1.3447,-1.3481,-1.4288,-1.3332,-0.9543,-1.0937,-1.3118,-1.5739,-1.5918,-1.5918,-1.5918,-1.833,-1.9708,-1.9708,-1.9708,-1.9708,-1.9708,-1.9708,-1.9708,-1.9708,-1.9708,-1.9708,-1.9708,-1.9708,-1.9708,-1.9708,-1.9708,-1.9708,-1.9708,-1.9708,-1.9708,-1.9708,-1.9708,-1.9708,-1.9708,-1.9708,-1.9708,-1.9708,-1.9708,-1.8327,-1.6607,-1.6565,-1.6565,-1.6565,-1.6522,-1.6522,-1.6522,-1.65,-1.65,-1.65,-1.65,-1.65,-1.65,-1.65,-1.65,-1.65,-1.65,-1.65,-1.65,-1.65,-1.6095,-1.5563,-1.5035,-1.4934,-1.4909,-1.4909,-1.4475,0.0,-1.4116,-1.3584,-1.3223,-1.3198,-1.3198,-1.3198,-1.3198,-1.2228,-1.1615,-1.1615,-1.0546,-0.9918,-0.9893,-0.9378,-0.885,-0.8289,-0.739,-0.6901,-0.6867,0.0,0.0,0.0,0.0,0.0,0.0,0.0,0.0,0.0,0.0,0.0,0.0,0.0,0.0,0.0,0.0,0.0,0.0,0.0,0.0,0.0,0.0,-1.486,-1.4411,-1.4276,-1.4513,-1.5402,-1.5419,-1.5355,-1.5339,-1.6678,-1.7851,-1.857,-1.8629,-1.8629,-1.8629,-1.9318,-1.9708,-1.9708,-1.9708,-1.9708,-1.9708,-1.9708,-1.9708,-1.9708,-1.9708,-1.9708,-1.9708,-1.9708,-1.9708,-1.9708,-1.9708,-1.9708,-1.9708,-1.9708,-1.9708,-1.9708,-1.9708,-1.9708,-1.9708,-1.9708,-1.9708,-1.9708,-1.9708,-1.9314,-1.8703,-1.7894,-1.7814,-1.7814,-1.6816,-1.6774,-1.698,-1.6629,-1.65,-1.65,-1.65,-1.65,-1.65,-1.65,-1.65,-1.65,-1.65,-1.65,-1.65,-1.65,-1.6375,-1.6224,-1.6095,-1.5743,-1.5467,-1.5467,-1.5009,0.0,-1.4166,-1.3946,-1.3677,-1.3248,-1.3198,-1.3198,-1.3198,-1.2563,-1.2002,-1.1615,-1.0897,-1.0306,-0.9918,-0.9378,-0.871,-0.789,-0.7426,-0.6914,0.0,0.0,0.0,0.0,0.0,0.0,0.0,0.0,0.0,0.0,0.0,0.0,0.0,0.0,0.0,0.0,0.0,0.0,0.0,0.0,0.0,0.0,-1.6475,-1.7388,-1.7196,-1.6136,-1.5933,-1.7399,-1.6948,-1.7343,-1.9473,-1.9688,-1.9708,-1.9708,-1.9708,-1.9708,-1.9708,-1.9708,-1.9708,-1.9708,-1.9708,-1.9708,-1.9708,-1.9708,-1.9708,-1.9708,-1.9708,-1.9708,-1.9708,-1.9708,-1.9708,0.0,-1.9708,-1.9708,-1.9708,-1.9708,-1.9708,0.0,0.0,0.0,0.0,0.0,-1.9708,-1.9708,-1.9708,-1.9708,-1.9617,-1.8968,-1.8288,-1.7632,-1.7271,-1.7291,-1.7312,-1.6667,-1.65,-1.65,-1.65,-1.65,-1.65,-1.65,-1.65,-1.65,-1.65,-1.65,-1.65,-1.65,-1.65,0.0,-1.65,-1.6224,-1.6045,-1.6045,-1.5567,-1.511,-1.4828,-1.4374,-1.3972,-1.3609,-1.3341,-1.3198,-1.3198,-1.2714,0.0,0.0,0.0,-1.0356,-0.9604,-0.9252,0.0,0.0,0.0,0.0,0.0,0.0,0.0,0.0,-0.6574,-0.661,0.0,0.0,0.0,0.0,0.0,0.0,0.0,0.0,0.0,0.0,0.0,0.0,0.0,0.0,0.0,0.0,-1.927,-1.9879,-1.9532,-1.8076,-1.7647,-1.9125,-1.8572,-1.9169,-2.2009,-2.0715,-1.9708,-1.9708,-1.9708,-1.9708,-1.9708,0.0,0.0,0.0,0.0,-1.9708,-1.9708,-1.9708,-1.9708,-1.9708,-1.9708,-1.9708,-1.9708,-1.9708,-1.9708,-1.9708,-1.9708,-1.9708,-1.9708,-1.9708,-1.9708,-1.9708,-1.9708,-1.9708,-1.9708,-1.9708,-1.9708,-1.9708,-1.9708,0.0,0.0,-1.9617,-1.8327,-1.7001,-1.7874,-1.7953,-1.7619,-1.6942,-1.6667,-1.6607,-1.6607,-1.6565,-1.65,-1.65,-1.65,-1.65,-1.65,-1.65,-1.65,-1.65,-1.65,-1.65,-1.65,-1.65,-1.65,-1.65,-1.6095,-1.5768,-1.5693,-1.4878,-1.4267,-1.4217,0.0,0.0,-1.3315,-1.2789,-1.2463,-1.2388,-1.1385,-1.0356,-0.9415,-0.939,-0.9194,-0.8785,-0.8779,-0.8854,-0.8979,-0.8991,-0.9023,-0.9043,-0.7871,-0.7729,0.0,0.0,0.0,0.0,0.0,0.0,0.0,0.0,0.0,0.0,0.0,0.0,0.0,0.0,0.0,-2.0859,-2.0623,-2.0116,-2.0467,-1.9858,-1.9338,-1.9295,-1.9439,-2.0272,-2.211,-2.0715,-1.9708,-1.9708,-1.9708,-1.9708,-1.9708,-1.9708,0.0,-1.9708,-1.9708,-1.9708,-1.9708,-1.9708,-1.9708,-1.9708,0.0,0.0,-1.9708,-1.9708,-1.9708,-1.9708,-1.9708,-1.9708,-1.9708,-1.9708,-1.9708,-1.9708,-1.9708,-1.9708,-1.9708,-1.9708,-1.9708,-1.9708,-1.9708,-1.9708,-1.9617,-1.9006,-1.893,-1.9006,-1.8626,-1.8588,0.0,-1.8269,-1.7673,-1.7146,-1.7146,-1.6816,-1.65,-1.65,-1.65,-1.65,-1.65,-1.65,-1.65,-1.65,-1.65,-1.65,-1.65,-1.65,-1.65,-1.65,-1.64,-1.6195,-1.5743,-1.5537,-1.5236,-1.4802,-1.4249,-1.3921,-1.3921,-1.3383,-1.2847,-1.2413,-1.1801,-1.1324,-1.1138,-1.1113,-1.0939,-1.0508,-1.0148,-0.9839,-0.954,-0.9164,-0.9162,-0.9474,-0.8889,-0.873,0.0,0.0,0.0,0.0,0.0,0.0,0.0,0.0,0.0,0.0,0.0,-1.251,0.0,0.0,-1.8797,-2.1806,-2.1637,-2.0995,-2.0454,-2.0826,-2.0927,-2.031,-2.0082,-2.0623,-2.2144,-2.1508,-2.0632,-1.978,-1.9708,-1.9708,-1.9708,-1.9708,-1.9708,-1.9708,-1.9708,-1.9708,-1.9708,-1.9708,-1.9708,-1.9708,-1.9708,-1.9708,-1.9708,-1.9708,-1.9708,-1.9708,-1.9708,-1.9708,-1.9708,-1.9708,-1.9708,-1.9708,-1.9708,-1.9708,-1.9708,-1.9708,-1.9708,-1.9708,-1.9708,-1.9708,-1.9654,-1.9277,-1.9406,-1.9636,-1.9277,-1.8968,-1.8664,-1.821,-1.7894,-1.7659,-1.7374,-1.7312,-1.7229,-1.6964,-1.69,-1.6837,-1.6565,-1.65,-1.65,-1.65,-1.65,-1.65,-1.65,-1.65,-1.65,-1.65,-1.65,-1.64,-1.6145,-1.5869,-1.5613,-1.5336,-1.4828,-1.4374,-1.4116,-1.3559,-1.2973,-1.2438,-1.2153,-1.1876,-1.1615,-1.1615,-1.1409,-1.1016,-1.1008,-1.0797,-1.0414,-1.0396,-1.0488,-1.0701,-1.0488,-1.0134,0.0,0.0,0.0,0.0,0.0,0.0,0.0,0.0,-1.4737,-1.4847,-1.5424,-1.6559,-1.8666,-1.9048,-1.9774,-2.1963,-2.2313,-2.1874,-2.061,-2.1536,-2.209,-2.1495,-2.0826,-2.0914,-2.2178,-2.2313,-2.1738,-2.0296,-1.9892,-1.9708,-1.9708,-1.9708,-1.9708,-1.9708,-1.9708,-1.9708,-1.9708,-1.9708,-1.9708,-1.9708,-1.9708,-1.9708,-1.9708,-1.9708,-1.9708,-1.9708,-1.9708,-1.9708,-1.9708,-1.9708,-1.9708,-1.9708,-1.9708,-1.9708,-1.9708,-1.9708,-1.9708,-1.9708,-1.9708,-1.9708,-1.9708,-1.9708,-1.9708,-1.9708,-1.9708,-1.9295,-1.8703,-1.8151,-1.8131,-1.8151,-1.7713,-1.7834,-1.7953,-1.7435,-1.7312,-1.7146,-1.6603,-1.65,-1.65,-1.65,-1.65,-1.65,-1.65,-1.65,-1.65,-1.65,-1.65,-1.65,-1.65,-1.612,-1.5844,-1.5844,-1.5387,-1.4802,-1.4166,-1.3634,-1.314,-1.2588,-1.2563,-1.2363,-1.1927,-1.1902,-1.1762,-1.1439,-1.1702,-1.1697,-1.1371,-1.1656,-1.1848,-1.1957,-1.1957,-1.1527,-0.9727,-1.0913,-1.2478,-1.4641,-1.4981,-1.5125,0.0,0.0,-1.9428,-2.0026,-2.0581,-2.1493,-2.315,-2.3468,-2.3239,-2.2433,-2.2313,-2.2245,-2.2076,-2.2178,-2.2279,-2.2178,-2.211,-2.211,-2.2279,-2.2313,-2.2209,-2.2017,-2.0565,-1.9708,-1.9708,-1.9708,-1.9708,-1.9708,-1.9708,-1.9708,-1.9708,-1.9708,-1.9708,-1.9708,-1.9708,-1.9708,-1.9708,-1.9708,-1.9708,-1.9708,-1.9708,-1.9708,-1.9708,-1.9708,-1.9708,-1.9708,-1.9708,-1.9708,-1.9708,-1.9708,-1.9708,-1.9708,-1.9708,-1.9708,-1.9708,-1.9708,-1.9708,-1.9708,-1.9708,-1.9654,-1.9551,-1.9479,-1.9136,-1.8798,-1.8741,-1.8405,-1.7953,-1.7435,-1.7312,-1.7146,-1.6603,-1.65,-1.65,-1.65,-1.65,-1.65,-1.65,-1.65,-1.65,-1.65,-1.65,-1.65,-1.65,-1.645,-1.64,-1.64,-1.5944,-1.5211,-1.4191,-1.4022,-1.3752,-1.3148,-1.3098,-1.3073,-1.3023,-1.3023,-1.3006,-1.2947,-1.26,-1.2395,-1.2342,-1.1977,-1.2047,-1.2512,-1.2512,-1.2454,-1.1769,-1.2408,0.0,0.0,-1.5583,-1.6221,-1.7271,-1.8577,-2.0101,-2.1917,-2.2751,-2.3391,-2.408,-2.3591,-2.2917,0.0,-2.2313,-2.2313,-2.2313,-2.2313,-2.2313,-2.2313,-2.2313,-2.2313,-2.2313,-2.2313,-2.2109,-2.1584,-2.1354,-2.0764,-1.9762,-1.9708,-1.9708,-1.9708,-1.9708,-1.9708,-1.9708,-1.9708,-1.9708,-1.9708,-1.9708,-1.9708,-1.9708,-1.9708,-2.0127,-2.0857,-2.0857,-2.0857,-2.0827,-2.0438,-2.0498,-2.0827,-2.0438,-2.0288,-2.0228,-1.9839,-1.9708,-1.9708,-1.9708,-1.9708,-1.9708,-1.9708,-1.9708,-1.9708,-1.9708,-1.9708,-1.9636,-1.9332,-1.9314,-1.9295,-1.8987,-1.8968,-1.8817,-1.7953,-1.7753,-1.7537,-1.6667,-1.65,-1.65,-1.65,-1.65,-1.65,-1.65,-1.65,-1.65,-1.65,-1.65,-1.65,-1.65,-1.65,-1.65,-1.65,-1.6019,-1.5537,-1.506,-1.4752,-1.4305,-1.3752,-1.3727,-1.3559,-1.3198,-1.3198,-1.3198,-1.3198,-1.3025,-1.292,-1.292,-1.3071,-1.3264,-1.3481,-1.3795,-1.4103,-1.3133,0.0,0.0,-1.5131,-1.6493,-1.758,-1.8109,-1.9039,-2.0431,-2.2645,-2.35,-2.3925,-2.4161,-2.3445,0.0,-2.2349,-2.2313,-2.2313,-2.2313,-2.2313,-2.2313,-2.2313,-2.2313,-2.2313,-2.2313,-2.2313,-2.2017,-2.1416,-2.1797,-2.1478,-2.0137,-1.9945,-1.9803,-1.9708,-1.9708,-1.9708,-1.9708,-2.0067,-2.0067,-1.9708,-2.0067,-2.0247,-2.0247,-2.0247,-2.0827,-2.1874,-2.1874,-2.1784,-2.1665,-2.1186,-2.1276,-2.1635,-2.1186,-2.0976,-2.0917,-2.0438,-2.0037,-1.9708,-1.9708,-1.9708,-1.9708,-1.9708,-1.9708,-1.9708,-1.9708,-1.9708,-1.9636,-1.924,-1.9406,-1.9617,-1.924,-1.9406,-1.946,-1.8521,-1.8308,-1.8013,-1.6964,-1.671,-1.6667,-1.6543,-1.65,-1.65,-1.65,-1.65,-1.65,-1.65,-1.65,-1.65,-1.65,-1.65,-1.65,-1.65,-1.6149,-1.5869,-1.5718,-1.5336,-1.4884,-1.4349,-1.4324,-1.4104,-1.3692,-1.3667,-1.3667,-1.3667,-1.3667,-1.3667,-1.3667,-1.4104,-1.44,-1.4551,-1.4934,-1.5412,0.0,0.0,-1.4257,-1.6708,-1.8216,-1.9385,-2.0307,-2.0813,-2.1472,-2.2645,-2.292,-2.32,-2.4026,-2.417,-2.3721,-2.2515,-2.2313,-2.2313,-2.2313,-2.2313,-2.2313,-2.2313,-2.2313,-2.2313,0.0,-2.2313,-2.2299,-2.2251,-2.1735,-2.1291,-2.0975,-2.0549,-2.0089,-1.9726,-1.9708,-1.9708,-1.9708,-2.0976,-2.0996,-1.9708,-2.1006,-2.1635,-2.1635,-2.1635,-2.1874,-2.2263,-2.2263,-2.2054,-2.1695,-2.1665,-2.1665,-2.1695,-2.1665,-2.1665,-2.1665,-2.1635,-2.0816,-1.9708,-1.9708,-1.9708,-1.9708,-1.9708,-1.9708,-1.9708,-1.9708,-1.9708,-1.9708,-1.969,-1.969,-1.9708,-1.969,-1.969,-1.9551,-1.9006,-1.8874,-1.8588,-1.7517,-1.7271,-1.7105,-1.6607,-1.65,-1.65,-1.65,-1.65,-1.65,-1.65,-1.65,-1.65,-1.65,-1.65,-1.65,-1.65,-1.6475,-1.6271,-1.5743,-1.5693,-1.5462,-1.4928,-1.4878,-1.4878,-1.4833,-1.4833,-1.4833,-1.4833,-1.4833,-1.4833,-1.4833,-1.4878,-1.5135,-1.5643,-1.5668,-1.5969,0.0,0.0,-1.6565,-1.8298,-1.9429,-2.0341,-2.1088,-2.1621,-2.2092,-2.2772,-2.3019,-2.3341,-2.4046,-2.1878,-2.0477,-2.2024,-2.2313,-2.2313,-2.2313,-2.2313,-2.2313,-2.2313,-2.2313,0.0,0.0,0.0,0.0,-2.1853,-2.1945,-2.1584,-2.0599,-2.0698,-2.0431,-1.9726,-2.0139,-2.0378,-2.0378,-2.1246,-2.1455,-2.1036,-2.1754,-2.2084,-2.2113,-2.2682,-2.3041,-2.3161,-2.3161,-2.3101,-2.2921,-2.2553,-2.2613,-2.2921,-2.2523,-2.2373,-2.2373,-2.2373,-2.1804,-2.1036,-2.1036,-2.1036,-2.0946,-2.0498,-2.0378,-2.0288,-1.9828,-1.9708,-1.9708,-1.9708,-1.9708,-1.9708,-1.9708,-1.9708,-1.9551,-1.9024,-1.8645,-1.8171,-1.7456,-1.7001,-1.671,-1.6543,-1.65,-1.65,-1.65,-1.65,-1.65,-1.65,-1.65,-1.65,-1.65,-1.65,-1.65,-1.65,-1.65,-1.6425,-1.6245,-1.6245,-1.5994,-1.5442,-1.5437,-1.5261,-1.4909,-1.4884,-1.4884,-1.4884,-1.4884,-1.4884,-1.4884,-1.5261,-1.5517,-1.5693,-1.607,-1.6346,0.0,-1.7643,-1.7993,-1.975,-2.0684,-2.1316,-2.1753,-2.1959,-2.2125,-2.2578,-2.2513,-2.2342,-2.2447,-1.9246,-1.8004,-2.2303,-2.2777,-2.2548,-2.2321,-2.2313,-2.2313,-2.2313,-2.2313,0.0,0.0,0.0,0.0,-2.1868,-2.2137,-2.1797,-2.0601,-2.1231,-2.1144,-2.0085,-2.0865,-2.1228,-2.1066,-2.1724,-2.2194,-2.2383,-2.2413,-2.2562,-2.2772,-2.334,-2.361,-2.361,-2.361,-2.361,-2.358,-2.3161,-2.3251,-2.355,-2.3182,-2.3032,-2.3032,-2.3032,-2.2742,-2.2323,-2.1844,-2.1695,-2.1635,-2.1216,-2.1066,-2.0976,-2.0557,-2.0408,-2.0348,-2.0109,-2.0049,-1.9989,-1.9768,-1.9708,-1.9617,-1.9277,-1.893,-1.8463,-1.7733,-1.7333,-1.6964,-1.6586,-1.65,-1.65,-1.65,-1.65,-1.65,-1.65,-1.65,-1.65,-1.65,-1.65,-1.65,-1.65,-1.65,-1.65,-1.65,-1.65,-1.635,-1.6019,-1.5994,-1.5819,-1.5487,-1.5487,-1.5487,-1.5487,-1.5487,-1.5487,-1.5467,-1.5819,-1.5994,-1.5994,-1.6325,-1.65,-1.8082,-1.8262,-1.8665,-2.1017,-2.1959,-2.2279,-2.2274,-2.1844,-2.1597,-2.2105,-2.1411,-2.0322,0.0,0.0,-1.6768,-2.2942,-2.3545,-2.3056,-2.2412,-2.2335,-2.2307,0.0,0.0,0.0,0.0,0.0,0.0,-2.2415,0.0,-2.1997,-2.1135,-2.2148,-2.2179,-2.085,-2.1929,-2.2286,-2.1824,-2.2465,-2.3074,-2.3623,-2.3032,-2.3062,-2.361,-2.361,-2.361,-2.361,-2.361,-2.361,-2.361,-2.361,-2.361,-2.361,-2.361,-2.361,-2.361,-2.361,-2.361,-2.343,-2.2203,-2.1784,-2.1784,-2.1754,-2.1754,-2.1724,-2.1695,-2.1695,-2.1575,-2.0946,-2.0718,-2.0539,-1.9917,-1.9738,-1.9708,-1.9708,-1.969,-1.9387,-1.8347,-1.8092,-1.7753,-1.6774,-1.6565,-1.6543,-1.65,-1.65,-1.65,-1.65,-1.65,-1.65,-1.65,-1.65,-1.65,-1.65,-1.65,-1.65,-1.65,-1.65,-1.65,-1.65,-1.65,-1.65,-1.65,-1.65,-1.65,-1.65,-1.65,-1.65,-1.65,-1.65,-1.65,-1.65,-1.65,-1.65,-1.892,-1.9875,-2.0809,-2.1435,-2.1959,-2.2214,-2.1781,-2.1125,-2.0729,-2.1103,-2.0136,-1.778,-1.3004,0.0,0.0,-2.027,-2.2465,0.0,-2.3068,-2.2832,0.0,0.0,0.0,-2.3105,-2.3105,-2.3613,0.0,0.0,-2.3444,-2.2865,-2.2293,-2.3111,-2.3274,-2.2568,-2.3324,-2.3687,-2.3557,-2.382,-2.403,-2.4184,-2.3643,-2.346,-2.361,-2.361,-2.361,-2.361,-2.361,-2.361,-2.361,-2.361,-2.361,-2.361,-2.361,-2.361,-2.361,-2.361,-2.361,-2.355,-2.3221,-2.3101,-2.3041,-2.2613,-2.2463,-2.2343,-2.1844,-2.1695,-2.1665,-2.1485,-2.1096,-2.0658,-2.0498,-2.0079,-1.9708,-1.9708,-1.9387,-1.9024,-1.876,-1.8052,-1.7558,-1.7653,-1.7374,-1.6985,-1.6586,-1.65,-1.65,-1.65,-1.65,-1.65,-1.65,-1.65,-1.65,-1.65,-1.65,-1.65,-1.65,-1.65,-1.65,-1.65,-1.65,-1.65,-1.65,-1.65,-1.65,-1.65,-1.65,-1.65,-1.65,-1.65,-1.65,-1.65,-1.65,-1.65,-2.013,-2.0983,-2.1642,-2.1853,-2.2184,-2.2213,-2.1184,-2.0582,-1.9882,-1.8706,-1.7601,0.0,-1.1494,0.0,0.0,0.0,0.0,0.0,-2.314,-2.3093,-2.2984,0.0,-2.3139,0.0,-2.3864,-2.4271,-2.4508,0.0,-2.4135,-2.3698,-2.3257,-2.4148,-2.4331,-2.3658,-2.4497,-2.4774,-2.427,-2.4365,-2.4287,-2.4069,-2.373,-2.361,-2.361,-2.361,-2.361,-2.361,0.0,-2.361,-2.361,-2.361,-2.361,-2.361,-2.361,-2.361,-2.361,-2.361,-2.361,-2.361,-2.361,-2.361,-2.355,-2.3212,-2.3092,-2.3032,-2.2652,-2.2532,-2.2473,-2.2203,-2.1894,-2.1515,-2.1216,-2.0647,-2.0139,-2.0139,-1.9668,-1.9173,-1.8949,-1.8424,-1.8013,-1.8072,-1.7653,-1.7188,-1.69,-1.6646,-1.65,-1.65,-1.65,-1.65,-1.65,-1.65,-1.65,-1.65,-1.65,-1.65,-1.65,-1.65,-1.65,-1.65,-1.65,-1.65,-1.65,-1.65,-1.65,-1.65,-1.65,-1.65,-1.65,-1.65,-1.65,-1.65,-1.65,-1.65,-2.1327,-2.1627,-2.1794,-2.2194,-2.2398,-2.2141,-2.0626,-1.9931,-1.8806,-1.5936,0.0,-1.3723,-1.226,0.0,-1.5521,-1.8654,0.0,-2.1134,-2.2951,-2.32,-2.3263,-2.3362,-2.3477,-2.3831,-2.4575,-2.4745,-2.4778,-2.4778,-2.4778,-2.4603,-2.4149,-2.5161,-2.538,-2.458,-2.556,-2.5635,-2.4701,-2.4652,-2.4369,-2.3921,-2.3773,-2.3709,-2.3687,-2.3653,-2.361,-2.361,0.0,0.0,-2.361,-2.361,-2.361,-2.361,-2.361,-2.361,-2.361,-2.361,-2.361,-2.361,-2.361,-2.361,-2.361,-2.361,-2.361,-2.361,-2.361,-2.361,-2.349,-2.2972,-2.2763,-2.2553,-2.1964,-2.1335,-2.0838,-2.0838,-2.0318,-1.97,-1.9245,-1.9064,-1.8836,-1.821,-1.7773,-1.7497,-1.7435,-1.7001,-1.6689,-1.6603,-1.6629,-1.6586,-1.6522,-1.65,-1.65,-1.65,-1.65,-1.65,-1.65,-1.65,-1.65,-1.65,-1.65,-1.65,-1.65,-1.65,-1.65,-1.65,-1.65,-1.65,-1.65,-1.65,-1.65,-1.65,-1.65,-1.65,-2.1412,-2.1794,-2.2194,-2.2265,-2.191,-2.1313,-2.0477,-1.86,0.0,0.0,0.0,-1.2297,-1.1567,-1.3104,0.0,-1.7876,0.0,0.0,0.0,0.0,-2.3263,0.0,0.0,0.0,0.0,0.0,0.0,0.0,0.0,-2.6015,-2.5343,-2.6083,-2.6421,-2.6286,-2.6488,-2.6471,-2.6315,-2.5924,-2.5687,-2.5561,-2.4692,-2.4266,-2.4246,-2.3794,-2.361,-2.361,-2.361,0.0,-2.361,-2.361,-2.361,-2.361,-2.361,-2.361,-2.361,-2.361,-2.361,-2.361,-2.361,-2.361,-2.361,-2.361,-2.361,-2.361,-2.361,-2.361,-2.358,-2.346,-2.3092,-2.2673,-2.2553,-2.2044,-2.1515,-2.1515,-2.1006,-2.049,-2.0414,-1.9949,-1.9277,-1.8288,-1.8366,-1.8463,-1.8033,-1.7874,-1.7653,-1.7229,-1.7146,-1.698,-1.6565,-1.65,-1.65,-1.65,-1.65,-1.65,-1.65,-1.65,-1.65,-1.65,-1.65,-1.65,-1.65,-1.65,-1.65,-1.65,-1.65,-1.65,-1.65,-1.65,-1.65,-1.65,-1.65,-1.65,-2.1768,-2.2061,-2.2349,-2.2575,-2.1964,-2.101,-1.9857,0.0,0.0,0.0,0.0,-1.1264,-1.0576,0.0,0.0,0.0,0.0,0.0,0.0,0.0,0.0,0.0,0.0,0.0,0.0,0.0,0.0,0.0,0.0,-2.6556,-2.6184,-2.6522,-2.6691,-2.6691,-2.6691,-2.659,-2.6349,-2.6104,-2.587,-2.5561,-2.5067,-2.4831,-2.4812,-2.4552,-2.4122,-2.3631,-2.39,0.0,-2.361,-2.361,-2.361,-2.361,-2.361,-2.361,-2.361,-2.361,-2.361,-2.361,-2.361,-2.361,-2.361,-2.361,-2.361,-2.361,-2.361,-2.361,-2.361,-2.361,-2.337,-2.3182,-2.3182,-2.2703,-2.2224,-2.2224,-2.1695,-2.1126,-2.0778,-2.0468,-1.9979,-1.9111,-1.8912,-1.8817,-1.8568,-1.8269,-1.7993,-1.7753,-1.7713,-1.7537,-1.7005,-1.6921,-1.6816,-1.6543,-1.65,-1.65,-1.65,-1.65,-1.65,-1.65,-1.65,-1.65,-1.65,-1.65,-1.65,-1.65,-1.65,-1.65,-1.65,-1.65,-1.65,-1.65,-1.65,-1.65,-2.2255,-2.2446,-2.2508,-2.287,-2.2084,-2.0714,-1.8743,-1.7307,0.0,0.0,-1.1191,-1.0494,-1.0025,0.0,0.0,0.0,0.0,0.0,0.0,0.0,0.0,0.0,0.0,0.0,0.0,0.0,0.0,0.0,0.0,0.0,-2.6691,-2.6691,-2.6691,-2.6691,-2.6691,-2.6521,-2.6139,-2.6139,-2.5943,-2.5524,-2.5411,-2.5373,-2.5373,-2.5259,-2.4752,-2.3964,-2.4266,0.0,0.0,-2.3644,-2.361,-2.361,-2.361,-2.361,-2.361,-2.361,-2.361,-2.361,-2.361,-2.361,-2.361,-2.361,-2.361,-2.361,-2.361,-2.361,-2.361,-2.361,-2.361,-2.361,-2.361,-2.3251,-2.2853,-2.2733,-2.2313,-2.1724,-2.1066,-2.0808,-2.0539,-2.0037,-1.9457,-1.9062,-1.9062,-1.8722,-1.8386,-1.8288,-1.8269,-1.8033,-1.7394,-1.7312,-1.7084,-1.6565,-1.65,-1.65,-1.65,-1.65,-1.65,-1.65,-1.65,-1.65,-1.65,-1.65,-1.65,-1.65,-1.65,-1.65,-1.65,-1.65,-1.65,-1.65,-1.65,-1.65,-2.2673,-2.2832,-2.2895,-2.3105,-2.2042,-2.0144,-1.705,0.0,0.0,-1.1517,-1.0388,-1.0025,-1.0673,-1.0967,0.0,0.0,0.0,0.0,0.0,0.0,0.0,0.0,0.0,0.0,0.0,0.0,0.0,0.0,0.0,0.0,-2.6691,-2.6691,-2.6691,-2.6691,-2.6691,-2.6674,-2.6641,-2.6641,-2.6607,-2.6573,-2.6122,-2.5924,-2.5906,-2.5411,-2.5163,-2.5028,-2.4592,0.0,0.0,-2.3794,-2.361,-2.361,-2.361,-2.361,-2.361,-2.361,-2.361,-2.361,-2.361,-2.361,-2.361,-2.361,-2.361,-2.361,-2.361,-2.361,-2.361,-2.361,-2.361,-2.361,-2.361,-2.355,-2.337,-2.2823,-2.2643,-2.2433,-2.1754,-2.1126,-2.0688,-2.0628,-2.0072,-1.9636,-1.9636,-1.9599,-1.9387,-1.8893,-1.8836,-1.8444,-1.7435,-1.7312,-1.7084,-1.6565,-1.65,-1.65,-1.65,-1.65,-1.65,-1.65,-1.65,-1.65,-1.65,-1.65,-1.65,-1.65,-1.65,-1.65,-1.65,-1.65,-1.65,-1.65,-1.65,-1.65,-2.2798,-2.3271,-2.3352,-2.3721,-2.2345,-2.0262,-1.7832,0.0,-1.3813,-1.1458,-1.0289,-0.9828,-1.0168,-1.0605,-1.148,-1.3251,-1.4205,-1.5546,0.0,0.0,0.0,0.0,0.0,0.0,0.0,0.0,0.0,0.0,0.0,0.0,-2.6691,-2.6691,-2.6691,-2.6691,-2.6691,-2.6691,-2.6691,-2.6691,-2.6691,-2.6691,-2.6521,-2.6435,-2.6418,-2.621,-2.5961,-2.5654,-2.5449,0.0,0.0,-2.4307,-2.4059,-2.4038,-2.3709,-2.361,-2.361,-2.361,-2.361,-2.361,-2.361,-2.361,-2.361,-2.361,-2.361,-2.361,-2.361,-2.361,-2.361,-2.361,-2.361,-2.361,-2.361,-2.361,-2.355,-2.3281,-2.3221,-2.3092,-2.2433,-2.2104,-2.1665,-2.0868,-2.0479,-2.0168,-1.9768,-1.9708,-1.9636,-1.9406,-1.9387,-1.9099,-1.8347,-1.7973,-1.7598,-1.7021,-1.6689,-1.65,-1.65,-1.65,-1.65,-1.65,-1.65,-1.65,-1.65,-1.65,-1.65,-1.65,-1.65,-1.65,-1.65,-1.65,-1.65,-1.65,-1.65,-1.65,-2.2206,-2.3106,-2.3423,-2.3756,-2.2318,-2.0189,0.0,0.0,-1.3497,-1.1145,-1.0176,-0.9753,-0.9788,-1.0217,-1.0895,-1.1934,-1.2784,-1.4125,-1.6474,0.0,0.0,0.0,0.0,0.0,0.0,0.0,0.0,0.0,0.0,0.0,0.0,-2.6691,-2.6691,-2.6691,-2.6691,-2.6691,-2.6691,-2.6691,-2.6691,-2.6691,-2.6691,-2.6691,-2.6691,-2.6691,-2.6521,-2.6192,0.0,0.0,0.0,-2.4871,-2.4552,-2.4369,-2.3985,-2.373,-2.361,-2.361,-2.361,-2.361,-2.361,-2.361,-2.361,-2.361,-2.361,-2.361,-2.361,-2.361,-2.361,-2.361,-2.361,-2.361,-2.361,-2.361,-2.361,-2.361,-2.361,-2.349,-2.3062,-2.2823,-2.2373,-2.1216,-2.0838,-2.0498,-1.9828,-1.9708,-1.9708,-1.9708,-1.9708,-1.9497,-1.8968,-1.8588,-1.8052,-1.7374,-1.6964,-1.6667,-1.6522,-1.65,-1.65,-1.65,-1.65,-1.65,-1.65,-1.65,-1.65,-1.65,-1.65,-1.65,-1.65,-1.65,-1.65,-1.65,-1.65,-1.65,-2.0752,-2.2153,-2.3006,-2.3006,-2.1758,-1.9667,0.0,-1.4504,-1.2734,-1.0309,-0.9857,-0.9888,-0.9811,-0.9795,-1.0317,-1.1838,-1.2784,-1.435,-1.7259,0.0,0.0,0.0,0.0,0.0,0.0,0.0,0.0,0.0,0.0,0.0,0.0,-2.6691,-2.6691,-2.6691,-2.6691,-2.6691,-2.6691,-2.6691,-2.6691,-2.6691,-2.6691,-2.6691,-2.6691,-2.6691,-2.6691,0.0,0.0,0.0,0.0,-2.5411,-2.4891,-2.441,-2.4389,-2.409,-2.361,-2.361,-2.361,-2.361,-2.361,-2.361,-2.361,-2.361,-2.361,-2.361,-2.361,-2.361,-2.361,-2.361,-2.361,-2.361,-2.361,-2.361,-2.361,-2.361,-2.361,-2.361,-2.358,-2.3122,-2.2493,-2.1814,-2.1156,-2.0498,-1.9828,-1.9708,-1.9708,-1.9708,-1.9708,-1.9497,-1.8968,-1.8893,-1.8463,-1.7415,-1.7312,-1.7063,-1.6565,-1.65,-1.65,-1.65,-1.65,-1.65,-1.65,-1.65,-1.65,-1.65,-1.65,-1.65,-1.65,-1.65,-1.65,-1.65,-1.65,-1.65,-1.7957,-1.8991,-1.9582,-1.9044,-1.849,-1.7426,-1.4748,-1.3743,-1.2714,-1.0344,-0.9894,-0.9906,-0.9882,-0.9834,-1.0647,-1.3298,-1.3943,0.0,0.0,0.0,0.0,0.0,0.0,0.0,0.0,0.0,0.0,0.0,0.0,0.0,0.0,-2.6691,-2.6691,-2.6691,-2.6691,-2.6691,-2.6691,-2.6691,-2.6691,-2.6691,-2.6691,-2.6691,-2.6691,-2.6691,0.0,0.0,0.0,0.0,0.0,-2.5961,-2.543,-2.491,-2.4552,-2.4059,-2.361,-2.361,-2.361,-2.361,-2.361,-2.361,-2.361,-2.361,-2.361,-2.361,-2.361,-2.361,-2.361,-2.361,-2.361,-2.361,-2.361,-2.361,-2.361,-2.361,-2.361,-2.361,-2.361,-2.346,-2.2981,-2.1904,-2.1515,-2.1006,-1.9887,-1.9708,-1.9708,-1.9708,-1.9708,-1.9654,-1.946,-1.9118,-1.8645,-1.7913,-1.7537,-1.7063,-1.6565,-1.65,-1.65,-1.65,-1.65,-1.65,-1.65,-1.65,-1.65,-1.65,-1.65,-1.65,-1.65,-1.65,-1.65,-1.65,-1.65,-1.65,0.0,-1.6701,-1.7213,-1.667,-1.6336,-1.5521,-1.339,-1.2701,-1.2028,-1.027,-0.9957,-0.9944,-0.9923,-1.0094,-1.1016,-1.3235,-1.409,0.0,0.0,0.0,0.0,0.0,0.0,0.0,0.0,0.0,0.0,0.0,0.0,0.0,0.0,-2.6691,-2.6691,-2.6691,-2.6691,-2.6691,-2.6691,-2.6691,-2.6691,-2.6691,-2.6691,-2.6691,-2.6691,-2.6691,0.0,0.0,0.0,0.0,0.0,-2.6401,-2.5837,-2.5163,-2.4831,-2.4246,-2.361,-2.361,-2.361,-2.361,-2.361,-2.361,-2.361,-2.361,-2.361,-2.361,-2.361,-2.361,-2.361,-2.361,-2.361,-2.361,-2.361,-2.361,-2.361,-2.361,-2.361,-2.361,-2.361,-2.361,-2.3281,-2.2283,-2.1874,-2.1335,-2.0258,-1.9887,-1.9708,-1.9708,-1.9708,-1.9708,-1.9708,-1.9406,-1.893,-1.8171,-1.7794,-1.7312,-1.6565,-1.65,-1.65,-1.65,-1.65,-1.65,-1.65,-1.65,-1.65,-1.65,-1.65,-1.65,-1.65,-1.65,-1.65,-1.65,-1.65,-1.65,0.0,-1.4972,-1.5524,-1.5412,-1.4844,-1.3944,-1.2303,-1.1496,0.0,-1.0059,-0.9987,-1.0074,-1.0089,-1.0612,-1.1405,-1.2367,0.0,0.0,0.0,0.0,0.0,0.0,0.0,0.0,0.0,0.0,0.0,0.0,0.0,0.0,0.0,-2.6691,-2.6691,-2.6691,-2.6691,-2.6691,-2.6691,-2.6691,-2.6691,-2.6691,-2.6691,-2.6691,-2.6691,-2.6691,0.0,0.0,0.0,0.0,0.0,-2.6691,-2.6122,-2.5202,-2.5202,-2.4552,-2.361,-2.361,-2.3631,-2.3644,-2.3601,-2.3644,-2.3709,-2.3666,-2.3653,-2.361,-2.361,-2.361,-2.361,-2.361,-2.361,-2.361,-2.361,-2.361,-2.361,-2.361,-2.361,-2.361,-2.361,-2.361,-2.34,-2.2823,-2.2194,-2.1545,-2.0868,-2.0228,-1.9768,-1.9768,-1.9738,-1.9708,-1.9708,-1.9708,-1.9314,-1.8269,-1.8112,-1.7673,-1.6625,-1.6522,-1.65,-1.65,-1.65,-1.65,-1.65,-1.65,-1.65,-1.65,-1.65,-1.65,-1.65,-1.65,-1.65,-1.65,-1.65,-1.65,-1.104,0.0,-1.2133,-1.1535,-1.1645,-1.167,0.0,-1.0769,-1.0885,-1.0088,0.0,-1.036,-1.1525,-1.1349,-1.226,0.0,0.0,0.0,0.0,0.0,0.0,0.0,0.0,0.0,0.0,0.0,0.0,0.0,0.0,0.0,0.0,-2.6691,-2.6691,-2.6691,-2.6691,-2.6691,-2.6691,-2.6691,-2.6691,-2.6691,-2.6691,-2.6691,-2.6691,-2.6691,0.0,0.0,0.0,0.0,-2.6691,-2.6691,-2.6122,-2.5202,-2.5202,-2.4552,-2.361,-2.361,-2.3858,-2.4142,-2.373,-2.4122,-2.4772,-2.4348,-2.3943,-2.361,-2.361,-2.361,-2.361,-2.361,-2.361,-2.361,-2.361,-2.361,-2.361,-2.361,-2.361,-2.361,-2.361,-2.361,-2.34,-2.2823,-2.2583,-2.2254,-2.1575,-2.0917,-2.0449,-2.0449,-2.0019,-1.9708,-1.9708,-1.9708,-1.9442,-1.8779,-1.8327,-1.7814,-1.7167,-1.6731,-1.65,-1.65,-1.65,-1.65,-1.65,-1.65,-1.65,-1.65,-1.65,-1.65,-1.65,-1.65,-1.65,-1.65,-1.65,-1.65,-1.0113,-1.0985,-1.1733,-1.1175,-1.1397,-1.1555,-1.1014,-1.0714,0.0,0.0,0.0,-1.0744,-1.1572,0.0,0.0,0.0,0.0,0.0,0.0,0.0,0.0,0.0,0.0,0.0,0.0,0.0,0.0,0.0,0.0,0.0,0.0,-2.6691,-2.6691,-2.6691,-2.6691,-2.6691,-2.6691,-2.6691,-2.6691,-2.6691,-2.6691,-2.6691,-2.6691,-2.6691,-2.6691,0.0,0.0,0.0,-2.6691,-2.6691,-2.6245,-2.5561,-2.5561,-2.5067,-2.4328,-2.4328,-2.4532,-2.4732,-2.443,-2.4712,-2.5125,-2.4572,-2.4369,-2.4225,-2.3752,-2.3773,-2.3921,-2.3666,-2.361,-2.361,-2.361,-2.361,-2.361,-2.361,-2.361,-2.361,-2.361,-2.361,-2.349,-2.3182,-2.2882,-2.2583,-2.2224,-2.1605,-2.1066,-2.0748,-2.0408,-2.0049,-1.9738,-1.9708,-1.9479,-1.8968,-1.8921,-1.8583,-1.774,-1.7445,-1.7098,-1.6522,-1.65,-1.65,-1.65,-1.65,-1.65,-1.65,-1.65,-1.65,-1.65,-1.65,-1.65,-1.65,-1.65,-1.65,-1.0394,-1.1733,-1.2916,-1.2327,-1.238,-1.2521,-1.225,0.0,0.0,0.0,0.0,0.0,0.0,0.0,0.0,0.0,0.0,0.0,0.0,0.0,0.0,0.0,0.0,0.0,0.0,0.0,0.0,0.0,0.0,0.0,0.0,-2.6691,-2.6691,-2.6691,-2.6691,-2.6691,-2.6691,-2.6691,-2.6691,-2.6691,-2.6691,-2.6691,-2.6691,-2.6691,-2.6691,0.0,0.0,0.0,-2.6691,-2.6691,-2.6402,-2.5997,-2.5997,-2.5654,-2.5202,-2.5202,-2.5259,-2.5335,-2.5411,-2.5335,-2.5144,-2.4772,-2.491,-2.5047,-2.4101,-2.408,-2.4307,-2.3858,-2.3644,-2.361,-2.361,-2.361,-2.361,-2.361,-2.361,-2.361,-2.361,-2.361,-2.361,-2.361,-2.3212,-2.2853,-2.2853,-2.2313,-2.1665,-2.1096,-2.0917,-2.0647,-2.0097,-2.0007,-1.9812,-1.94,-1.9758,-1.9627,-1.8603,-1.8575,-1.8147,-1.7098,-1.6683,-1.65,-1.65,-1.65,-1.65,-1.65,-1.65,-1.65,-1.65,-1.65,-1.65,-1.65,-1.65,-1.65,-1.1696,-1.3322,-1.4166,-1.2055,-1.2585,-1.3368,-1.2595,0.0,0.0,0.0,0.0,0.0,0.0,0.0,0.0,0.0,0.0,0.0,0.0,0.0,0.0,0.0,0.0,0.0,0.0,0.0,0.0,0.0,0.0,0.0,0.0,0.0,-2.6691,-2.6691,-2.6691,-2.6691,-2.6691,-2.6691,-2.6691,-2.6691,-2.6691,-2.6691,-2.6691,-2.6691,-2.6691,0.0,0.0,-2.6691,-2.6691,-2.6691,-2.6402,-2.5997,-2.5997,-2.5654,-2.5202,-2.5202,-2.5486,-2.5924,-2.6333,-2.591,-2.5259,-2.5617,-2.5486,-2.5182,-2.5008,-2.4712,-2.4389,-2.4287,-2.3964,-2.361,-2.361,-2.361,-2.361,-2.361,-2.361,-2.361,-2.361,-2.361,-2.361,-2.361,-2.352,-2.346,-2.346,-2.2972,-2.2523,-2.2403,-2.1904,-2.1515,-2.1395,-2.1395,-2.1376,-2.1267,-2.0977,-2.0662,-2.0493,-2.007,-1.9728,-1.9559,-1.7631,-1.65,-1.65,-1.65,-1.65,-1.65,-1.65,-1.65,-1.65,-1.65,-1.65,-1.65,-1.65,-1.65,-1.0902,-1.2622,-1.4008,-1.2949,-1.4235,-1.5773,-1.5847,-1.5113,0.0,0.0,0.0,0.0,0.0,0.0,0.0,0.0,0.0,0.0,0.0,0.0,0.0,0.0,0.0,0.0,0.0,0.0,0.0,0.0,0.0,0.0,0.0,0.0,-2.6691,-2.6691,-2.6691,-2.6691,-2.6691,-2.6691,-2.6691,-2.6691,-2.6691,-2.6691,-2.6691,-2.6691,-2.6691,-2.6691,0.0,-2.6691,-2.6691,-2.6691,-2.6573,-2.6383,-2.6383,-2.6228,-2.5999,-2.5999,-2.6175,-2.6418,-2.6624,-2.6402,-2.5999,-2.5997,-2.6015,-2.591,-2.5373,-2.524,-2.5202,-2.493,-2.4225,-2.361,-2.361,-2.361,-2.361,-2.361,-2.361,-2.361,-2.361,-2.361,-2.361,-2.361,-2.361,-2.361,-2.361,-2.337,-2.3092,-2.2733,-2.2433,-2.2134,-2.1754,-2.1695,-2.1695,-2.1695,-2.1812,-2.1727,-2.1353,-2.1181,-2.0783,-2.0144,-1.8728,-1.7756,-1.7467,-1.7171,-1.6848,-1.65,-1.65,-1.65,-1.65,-1.65,-1.65,-1.65,-1.65,-1.65,-1.0424,-1.2052,-1.3714,-1.4194,-1.5737,-1.743,-1.8505,-1.7608,0.0,0.0,0.0,0.0,0.0,0.0,0.0,0.0,0.0,0.0,0.0,0.0,0.0,0.0,0.0,0.0,0.0,0.0,0.0,0.0,0.0,0.0,0.0,0.0,-2.6858,-2.6858,-2.6758,-2.6691,-2.6691,-2.6691,-2.6691,-2.6691,-2.6691,-2.6691,-2.6691,-2.6691,-2.6691,-2.6691,-2.6691,-2.6691,-2.6691,-2.6691,-2.6691,-2.6691,-2.6691,-2.6691,-2.6691,-2.6691,-2.6691,-2.6691,-2.6691,-2.6691,-2.6641,-2.6263,-2.6418,-2.6573,-2.5783,-2.5746,-2.5906,-2.5486,-2.4712,-2.3964,-2.3815,-2.3687,-2.361,-2.361,-2.361,-2.361,-2.361,-2.361,-2.361,-2.361,-2.361,-2.361,-2.361,-2.361,-2.343,-2.2972,-2.2912,-2.2733,-2.2203,-2.2143,-2.2143,-2.2143,-2.2613,-2.2703,-2.2173,-2.2229,-2.1903,-2.1004,-1.9772,-1.8932,-1.8503,-1.7808,-1.7174,-1.6722,-1.6575,-1.6575,-1.6722,-1.6722,-1.6798,-1.6901,-1.6901,-1.6901,-1.1763,-1.2844,-1.3994,-1.5548,-1.6166,-1.6823,-1.8566,-1.821,0.0,-1.9597,0.0,0.0,0.0,0.0,0.0,0.0,0.0,0.0,0.0,0.0,0.0,0.0,0.0,0.0,0.0,0.0,0.0,0.0,0.0,0.0,0.0,0.0,0.0,-2.7257,-2.6873,-2.6691,-2.6691,-2.6691,-2.6691,-2.6691,-2.6691,-2.6691,-2.6691,-2.6691,-2.6691,-2.6691,-2.6691,-2.6691,-2.6691,-2.6691,-2.6691,-2.6691,-2.6691,-2.6691,-2.6691,-2.6691,-2.6691,-2.6691,-2.6691,-2.6691,-2.6691,-2.6657,-2.6674,-2.6691,-2.6624,-2.6298,-2.5979,-2.5943,-2.5524,-2.4969,-2.4471,-2.3985,-2.361,-2.361,-2.361,-2.361,-2.361,-2.361,-2.361,-2.361,-2.361,-2.361,-2.361,-2.361,-2.358,-2.355,-2.352,-2.352,-2.346,-2.346,-2.346,-2.346,-2.352,-2.352,-2.346,-2.3447,-2.3425,-2.3352,-2.0679,-1.9069,-1.9042,-1.8013,-1.7398,-1.7348,-1.6798,-1.6798,-1.7348,-1.7348,-1.7576,-1.8078,-1.8078,-1.8078,-1.0721,-1.2614,-1.458,-1.5308,-1.7075,0.0,0.0,-2.0716,-2.1312,-2.2997,-2.3485,0.0,0.0,0.0,0.0,0.0,0.0,0.0,0.0,0.0,0.0,0.0,0.0,0.0,0.0,0.0,0.0,0.0,0.0,0.0,0.0,0.0,0.0,-2.7681,-2.7288,-2.7067,-2.7067,-2.6841,-2.6691,-2.6691,-2.6691,-2.6691,-2.6691,-2.6691,-2.6691,-2.6691,-2.6691,-2.6691,-2.6691,-2.6691,-2.6691,-2.6691,-2.6691,-2.6691,-2.6691,-2.6691,-2.6691,-2.6691,-2.6691,-2.6691,-2.6691,-2.6691,-2.6691,-2.6691,-2.6691,-2.659,-2.6453,-2.6453,-2.6086,-2.5486,-2.4632,-2.4491,-2.443,-2.3752,-2.3858,-2.4027,-2.3666,-2.361,-2.361,-2.361,-2.361,-2.361,-2.361,-2.361,-2.361,-2.361,-2.361,-2.361,-2.361,-2.361,-2.361,-2.361,-2.361,-2.361,-2.361,-2.361,-2.361,-2.361,-2.2189,-2.0995,-2.0248,-1.9443,-1.865,-1.7926,-1.7677,-1.7677,-1.7903,-1.7903,-1.8003,-1.8204,-1.8204,-1.8204,-1.0731,-1.2636,-1.4773,-1.5651,0.0,0.0,-2.1579,-2.2358,-2.3262,-2.4966,0.0,0.0,0.0,0.0,0.0,0.0,0.0,0.0,0.0,0.0,0.0,0.0,0.0,0.0,0.0,0.0,0.0,0.0,0.0,0.0,0.0,0.0,0.0,0.0,-2.771,-2.7441,-2.7303,-2.7019,-2.6841,-2.6691,-2.6691,-2.6691,-2.6691,-2.6691,-2.6691,-2.6691,-2.6691,-2.6691,-2.6691,-2.6691,-2.6691,-2.6691,-2.6691,-2.6691,-2.6691,-2.6691,-2.6691,-2.6691,-2.6691,-2.6691,-2.6691,-2.6691,-2.6691,-2.6691,-2.6691,-2.6691,-2.6691,-2.6691,-2.6487,-2.6015,-2.5144,-2.5067,-2.5028,-2.4266,-2.4246,-2.4287,-2.3943,-2.3709,-2.361,-2.361,-2.361,-2.361,-2.361,-2.361,-2.361,-2.361,-2.361,-2.361,-2.361,-2.361,-2.361,-2.361,-2.361,-2.361,-2.361,-2.361,-2.361,-2.361,-2.3209,-2.2448,-2.1199,-2.0432,-1.9506,-1.848,-1.8304,-1.8279,-1.8431,-1.8431,-1.8555,-1.8706,-1.8706,-1.8706,-1.2268,-1.3155,-1.4453,0.0,0.0,0.0,-2.223,-2.2812,-2.3291,-2.4971,0.0,0.0,0.0,0.0,0.0,0.0,0.0,0.0,0.0,0.0,0.0,0.0,0.0,0.0,0.0,0.0,0.0,0.0,0.0,0.0,0.0,0.0,0.0,0.0,-2.8093,-2.7725,-2.7319,-2.7319,-2.7099,-2.6708,-2.6691,-2.6691,-2.6691,-2.6691,-2.6691,-2.6691,-2.6691,-2.6691,-2.6691,-2.6691,-2.6691,-2.6691,-2.6691,-2.6691,-2.6691,-2.6691,-2.6691,-2.6691,-2.6691,-2.6691,-2.6691,-2.6691,-2.6691,-2.6691,-2.6691,-2.6691,-2.6691,-2.6691,-2.6691,-2.659,-2.6122,-2.5598,-2.5221,-2.5202,-2.4812,-2.441,-2.441,-2.4006,-2.361,-2.361,-2.361,-2.361,-2.361,-2.361,-2.361,-2.361,-2.361,-2.361,-2.361,-2.361,-2.361,-2.361,-2.361,-2.361,-2.361,-2.361,-2.361,-2.361,-2.361,-2.3024,-2.1781,-2.062,-1.9712,-1.9032,-1.8505,-1.848,-1.9008,-1.9008,-1.9284,-1.9811,-1.9811,-1.9811,-1.1827,-1.4092,0.0,0.0,0.0,0.0,0.0,-2.3724,0.0,0.0,0.0,0.0,0.0,0.0,0.0,0.0,0.0,0.0,0.0,0.0,0.0,0.0,0.0,0.0,0.0,0.0,0.0,0.0,0.0,0.0,0.0,0.0,0.0,0.0,-2.8451,-2.8192,-2.8084,-2.7557,-2.7241,-2.7115,-2.6841,-2.6691,-2.6691,-2.6691,-2.6691,-2.6691,-2.6691,-2.6691,-2.6691,-2.6691,-2.6691,-2.6691,-2.6691,-2.6691,-2.6691,-2.6691,-2.6691,-2.6691,-2.6691,-2.6691,-2.6691,-2.6691,-2.6691,-2.6691,-2.6691,-2.6691,-2.6691,-2.6691,-2.6691,-2.6674,-2.6539,-2.6367,-2.6071,-2.5373,-2.5373,-2.5411,-2.5047,-2.4552,-2.4142,-2.4142,-2.3858,-2.361,-2.361,-2.361,-2.361,-2.361,-2.361,-2.361,-2.361,-2.361,-2.361,-2.361,-2.361,-2.361,-2.361,-2.361,-2.361,-2.361,-2.361,-2.3231,-2.2438,-2.2061,-2.1395,-2.0287,-2.0131,-1.9884,-1.956,-1.956,-1.966,-1.9811,-1.9811,-1.9811,-1.3683,0.0,0.0,0.0,0.0,0.0,0.0,0.0,0.0,0.0,0.0,0.0,0.0,0.0,0.0,0.0,0.0,0.0,0.0,0.0,0.0,0.0,0.0,0.0,0.0,0.0,0.0,0.0,0.0,0.0,0.0,0.0,0.0,0.0,-2.8761,-2.8565,-2.8389,-2.7974,-2.7587,-2.7303,-2.7051,-2.684,-2.6691,-2.6691,-2.6691,-2.6691,-2.6691,-2.6691,-2.6691,-2.6691,-2.6691,-2.6691,-2.6691,-2.6691,-2.6691,-2.6691,-2.6691,-2.6691,-2.6691,-2.6691,-2.6691,-2.6691,-2.6691,-2.6691,-2.6691,-2.6691,-2.6691,-2.6691,-2.6691,-2.6691,-2.6691,-2.6691,-2.6556,-2.5928,-2.5906,-2.5906,-2.558,-2.5105,-2.4652,-2.445,-2.4122,-2.3858,-2.3653,-2.361,-2.361,-2.361,-2.361,-2.361,-2.361,-2.361,-2.361,-2.361,-2.361,-2.361,-2.361,-2.361,-2.361,-2.361,-2.361,-2.3428,-2.3054,-2.283,-2.2207,-2.1186,-2.1161,-2.0966,-2.0546,-2.0546,-2.0546,-2.0546,-2.0546,-2.0546,-1.6605,0.0,0.0,0.0,0.0,0.0,0.0,0.0,0.0,0.0,0.0,0.0,0.0,0.0,0.0,0.0,0.0,0.0,0.0,0.0,0.0,0.0,0.0,0.0,0.0,0.0,0.0,0.0,0.0,0.0,0.0,0.0,0.0,0.0,-2.895,-2.8809,-2.8476,-2.8402,-2.8071,0.0,-2.738,-2.7147,-2.6758,-2.6708,-2.6691,-2.6691,-2.6691,-2.6691,-2.6691,-2.6691,-2.6691,-2.6691,-2.6691,-2.6691,-2.6691,-2.6691,-2.6691,-2.6691,-2.6691,-2.6691,-2.6691,-2.6691,-2.6691,-2.6691,-2.6691,-2.6691,-2.6691,-2.6691,-2.6691,-2.6691,-2.6691,-2.6691,-2.6691,-2.6691,-2.635,-2.605,-2.605,-2.5635,-2.5125,-2.4652,-2.4471,-2.4246,-2.3752,-2.3653,-2.361,-2.361,-2.361,-2.361,-2.361,-2.361,-2.361,-2.361,-2.361,-2.361,-2.361,-2.361,-2.361,-2.361,-2.361,-2.361,-2.361,-2.3054,-2.246,-2.1805,-2.1805,-2.1758,-2.171,-2.171,-2.171,-2.171,-2.171,-2.171,0.0,-1.7212,0.0,0.0,0.0,0.0,0.0,0.0,0.0,0.0,0.0,0.0,0.0,0.0,0.0,0.0,0.0,0.0,0.0,0.0,0.0,0.0,0.0,0.0,0.0,0.0,0.0,0.0,0.0,0.0,0.0,0.0,0.0,-2.8044,-2.8656,-2.8952,-2.8881,-2.8565,-2.8311,0.0,-2.7911,-2.7577,-2.7162,-2.6858,-2.6691,-2.6691,-2.6691,-2.6691,-2.6691,-2.6691,-2.6691,-2.6691,-2.6691,-2.6691,-2.6691,-2.6691,-2.6691,-2.6691,-2.6691,-2.6691,-2.6691,-2.6691,-2.6691,-2.6691,-2.6691,-2.6691,-2.6691,-2.6691,-2.6691,-2.6691,-2.6691,-2.6691,-2.6691,-2.6691,-2.6624,-2.6556,-2.6556,-2.6157,-2.5797,-2.5687,-2.4989,-2.4369,-2.4246,-2.3879,-2.361,-2.361,-2.361,-2.361,-2.361,-2.361,-2.361,-2.361,-2.361,-2.361,-2.361,-2.361,-2.361,-2.361,-2.361,-2.361,-2.361,-2.3501,-2.312,-2.2512,-2.246,-2.223,-2.171,-2.171,-2.171,-2.171,-2.171,-2.171,0.0,0.0,0.0,0.0,0.0,0.0,0.0,0.0,0.0,0.0,0.0,0.0,0.0,0.0,0.0,0.0,0.0,0.0,0.0,0.0,0.0,0.0,0.0,0.0,0.0,0.0,0.0,0.0,0.0,0.0,0.0,-2.7016,-2.7383,-2.7787,-2.7824,-2.8216,-2.8987,-2.842,-2.8227,-2.8389,-2.8206,-2.7968,-2.7577,-2.6954,-2.6691,-2.6691,-2.6691,-2.6691,-2.6691,-2.6691,-2.6691,-2.6691,-2.6691,-2.6691,-2.6691,-2.6691,-2.6691,-2.6691,-2.6691,-2.6691,-2.6691,-2.6691,-2.6691,-2.6691,-2.6691,-2.6691,-2.6691,-2.6691,-2.6691,-2.6691,-2.6691,-2.6691,-2.6691,-2.6691,-2.6691,-2.6691,-2.6691,-2.6521,-2.6245,-2.6033,-2.5542,-2.5008,-2.4491,-2.3964,-2.361,-2.361,-2.361,-2.361,-2.361,-2.361,-2.361,-2.361,-2.361,-2.361,-2.361,-2.361,-2.361,-2.361,-2.361,-2.361,-2.361,-2.361,-2.345,-2.3143,-2.312,-2.2965,-2.2591,-2.2591,-2.2591,-2.2591,-2.2591,-2.2591,0.0,0.0,0.0,0.0,0.0,0.0,0.0,0.0,0.0,0.0,0.0,0.0,0.0,0.0,0.0,0.0,0.0,0.0,0.0,0.0,0.0,0.0,0.0,0.0,0.0,0.0,0.0,0.0,0.0,0.0,-2.6209,-2.6319,-2.6686,-2.7357,-2.6869,-2.7226,-2.8583,-2.8044,-2.7956,-2.8297,-2.8379,-2.8246,-2.7968,-2.7241,-2.6923,-2.6923,-2.6923,-2.6923,-2.6923,-2.6923,-2.6923,-2.6889,-2.6841,-2.6808,-2.6808,-2.6808,-2.6808,-2.6825,-2.6873,-2.6923,-2.6923,-2.6923,-2.6874,-2.6808,-2.6808,-2.6758,-2.6691,-2.6691,-2.6691,-2.6691,-2.6691,-2.6691,-2.6691,-2.6691,-2.6691,-2.6691,-2.6691,-2.6691,-2.659,-2.6192,-2.6015,-2.5617,-2.4612,-2.3985,-2.361,-2.361,-2.361,-2.361,-2.361,-2.361,-2.361,-2.361,-2.361,-2.361,-2.361,-2.361,-2.361,-2.361,-2.361,-2.361,-2.361,-2.361,-2.361,-2.361,-2.361,-2.361,-2.361,-2.361,-2.361,-2.361,-2.361,-2.361,0.0,0.0,0.0,0.0,0.0,0.0,0.0,0.0,0.0,0.0,0.0,0.0,0.0,0.0,0.0,0.0,0.0,0.0,0.0,0.0,0.0,0.0,0.0,0.0,0.0,0.0,0.0,0.0,0.0,0.0,-2.452,-2.5191,-2.5595,-2.5705,-2.6282,-2.6712,-2.6932,-2.7493,-2.7849,-2.7867,-2.8239,-2.8363,-2.8311,-2.7904,-2.7754,-2.7754,-2.7754,-2.7754,-2.7754,-2.7754,-2.7754,-2.771,-2.7365,-2.7225,-2.7225,-2.7225,-2.7225,-2.7272,-2.7636,-2.7754,-2.7754,-2.7754,-2.7517,-2.7225,-2.7225,-2.6971,-2.6691,-2.6691,-2.6691,-2.6691,-2.6691,-2.6691,-2.6691,-2.6691,-2.6691,-2.6691,-2.6691,-2.6691,-2.6674,-2.6624,-2.6139,-2.5486,-2.4784,-2.4069,-2.361,-2.361,-2.361,-2.361,-2.361,-2.361,-2.361,-2.361,-2.361,-2.361,-2.361,-2.361,-2.361,-2.361,-2.361,-2.361,-2.361,-2.361,-2.361,-2.361,-2.361,-2.361,-2.361,-2.361,-2.361,-2.361,-2.361,-2.361,0.0,0.0,0.0,0.0,0.0,0.0,0.0,0.0,0.0,0.0,0.0,0.0,0.0,0.0,0.0,0.0,0.0,0.0,0.0,0.0,0.0,0.0,0.0,0.0,0.0,0.0,0.0,0.0,0.0,-2.419,-2.419,-2.453,-2.4934,-2.5374,-2.5291,-2.5695,-2.6602,-2.6502,-2.6917,-2.7787,-2.7981,-2.8312,-2.8737,-2.8601,-2.8281,-2.7897,-2.7897,-2.7897,-2.7897,-2.7897,-2.7897,-2.7883,-2.771,-2.7651,-2.7651,-2.7651,-2.7651,-2.7666,-2.784,-2.7897,-2.7897,-2.7897,-2.7783,-2.7651,-2.7651,-2.7365,-2.7035,-2.7035,-2.6856,-2.6691,-2.6691,-2.6691,-2.6691,-2.6691,-2.6691,-2.6691,-2.6691,-2.6691,-2.6691,-2.6691,-2.6157,-2.5742,-2.5834,-2.4592,-2.361,-2.361,-2.361,-2.361,-2.361,-2.361,-2.361,-2.361,-2.361,-2.361,-2.361,-2.361,-2.361,-2.361,-2.361,-2.361,-2.361,-2.361,-2.361,-2.361,-2.361,-2.361,-2.361,-2.361,-2.361,-2.361,-2.361,-2.361,0.0,0.0,0.0,0.0,0.0,0.0,0.0,0.0,0.0,0.0,0.0,0.0,0.0,0.0,0.0,0.0,0.0,0.0,0.0,0.0,0.0,0.0,0.0,0.0,0.0,0.0,0.0,0.0,0.0,-2.419,-2.419,-2.419,-2.4493,-2.5081,-2.453,-2.4777,-2.5988,-2.5595,-2.6109,-2.7493,-2.7493,-2.7934,-2.8693,-2.8693,-2.8518,-2.8174,-2.8174,-2.8174,-2.8174,-2.8174,-2.8174,-2.8174,-2.8079,-2.8037,-2.8037,-2.8037,-2.8037,-2.8051,-2.8147,-2.8174,-2.8174,-2.8174,-2.8174,-2.8174,-2.8174,-2.7855,-2.7426,-2.721,-2.6922,-2.6691,-2.6691,-2.6691,-2.6691,-2.6691,-2.6691,-2.6691,-2.6691,-2.6691,-2.6691,-2.6691,-2.6298,-2.6122,-2.6624,-2.5416,-2.4379,-2.4379,-2.3964,-2.361,-2.361,-2.361,-2.361,-2.361,-2.361,-2.361,-2.361,-2.361,-2.361,-2.361,-2.361,-2.361,-2.361,-2.361,-2.361,-2.361,-2.361,-2.361,-2.361,-2.361,-2.361,-2.361,-2.361,-2.361,0.0,0.0,0.0,0.0,0.0,0.0,0.0,0.0,0.0,0.0,0.0,0.0,0.0,0.0,0.0,0.0,0.0,0.0,0.0,0.0,0.0,0.0,0.0,0.0,0.0,0.0,0.0,0.0,0.0,-2.419,-2.419,-2.419,-2.4226,-2.4263,-2.4226,-2.4226,-2.4337,-2.5044,-2.5815,-2.6638,-2.6638,-2.709,-2.786,-2.786,-2.8242,-2.894,-2.894,-2.894,-2.894,-2.894,-2.894,-2.8905,-2.8527,-2.8363,-2.8363,-2.8363,-2.8363,-2.8451,-2.8797,-2.894,-2.894,-2.894,-2.894,-2.894,-2.894,-2.8425,-2.7725,-2.6938,-2.6708,-2.6691,-2.6691,-2.6691,-2.6691,-2.6691,-2.6691,-2.6691,-2.6691,-2.6691,-2.6691,-2.6691,-2.6674,-2.6657,-2.6691,-2.6624,-2.6522,-2.6522,-2.4859,-2.361,-2.361,-2.361,-2.361,-2.361,-2.361,-2.361,-2.361,-2.361,-2.361,-2.361,-2.361,-2.361,-2.361,-2.361,-2.361,-2.361,-2.361,-2.361,-2.361,-2.361,-2.361,-2.361,-2.361,-2.361,0.0,0.0,0.0,0.0,0.0,0.0,0.0,0.0,0.0,0.0,0.0,0.0,0.0,0.0,0.0,0.0,0.0,0.0,0.0,0.0,0.0,0.0,0.0,0.0,0.0,0.0,0.0,0.0,0.0,0.0,-2.419,-2.419,-2.419,-2.419,-2.419,-2.419,-2.419,-2.4493,-2.5044,-2.5815,-2.5815,-2.6245,-2.7016,-2.7016,-2.7457,-2.8227,-2.8227,-2.851,-2.8987,-2.8987,-2.8987,-2.8975,-2.8821,-2.8785,-2.8785,-2.8785,-2.8785,-2.8797,-2.894,-2.8987,-2.8987,-2.8987,-2.8987,-2.8987,-2.8987,-2.8834,-2.8563,-2.8268,-2.7467,-2.6691,-2.6691,-2.6691,-2.6691,-2.6691,-2.6691,-2.6691,-2.6691,-2.6691,-2.6691,-2.6691,-2.6691,-2.6691,-2.6691,-2.6691,-2.6691,-2.6691,-2.6071,-2.5584,-2.5584,-2.445,-2.361,-2.361,-2.361,-2.361,-2.361,-2.361,-2.361,-2.361,-2.361,-2.361,-2.361,-2.361,-2.361,-2.361,-2.361,-2.361,-2.361,-2.361,-2.361,-2.361,-2.361,-2.361,-1.1667,0.0,0.0,0.0,0.0,0.0,0.0,0.0,0.0,0.0,0.0,0.0,0.0,0.0,0.0,0.0,0.0,0.0,0.0,0.0,0.0,0.0,0.0,0.0,0.0,0.0,0.0,0.0,0.0,0.0,-2.4199,-2.419,-2.419,-2.419,-2.419,-2.419,-2.419,-2.419,-2.4456,-2.5007,-2.5007,-2.5411,-2.6209,-2.6209,-2.6649,-2.7383,-2.7383,-2.8007,-2.8987,-2.8987,-2.8987,-2.8987,-2.8987,-2.8987,-2.8987,-2.8987,-2.8987,-2.8987,-2.8987,-2.8987,-2.8987,-2.8987,-2.8987,-2.8987,-2.8987,-2.8987,-2.8987,-2.8987,-2.8246,-2.7346,-2.6824,-2.6691,-2.6691,-2.6691,-2.6691,-2.6691,-2.6691,-2.6691,-2.6691,-2.6691,-2.6691,-2.6691,-2.6691,-2.6691,-2.6691,-2.6691,-2.6691,-2.6691,-2.6691,-2.5491,-2.4641,-2.4641,-2.4641,-2.4338,-2.3644,-2.361,-2.361,-2.361,-2.361,-2.361,-2.361,-2.361,-2.361,-2.361,-2.361,-2.361,-2.361,-2.361,-2.361,-2.361,-2.361,-2.361,0.0,0.0,0.0,0.0,0.0,0.0,0.0,0.0,0.0,0.0,0.0,0.0,0.0,0.0,0.0,0.0,0.0,0.0,0.0,0.0,0.0,0.0,0.0,0.0,0.0,0.0,0.0,0.0,0.0,-2.4428,-2.4228,-2.4209,-2.4209,-2.4218,-2.4199,-2.4199,-2.4199,-2.4199,-2.419,-2.419,-2.419,-2.4603,-2.5374,-2.5374,-2.5815,-2.6565,-2.6565,-2.7446,-2.8913,-2.895,-2.8987,-2.8987,-2.8987,-2.8987,-2.8987,-2.8987,-2.8987,-2.8987,-2.8987,-2.8987,-2.8987,-2.8987,-2.8987,-2.8987,-2.8987,-2.8987,-2.8987,-2.8987,-2.8987,-2.8651,-2.7115,-2.6691,-2.6691,-2.6691,-2.6691,-2.6691,-2.6691,-2.6691,-2.6691,-2.6691,-2.6691,-2.6691,-2.6691,-2.6691,-2.6691,-2.6691,-2.6691,-2.6691,-2.6691,-2.6691,-2.6691,-2.6691,-2.6691,-2.5873,-2.3773,-2.361,-2.361,-2.361,-2.361,-2.361,-2.361,-2.361,-2.361,-2.361,-2.361,-2.361,-2.361,-2.361,-2.361,-2.361,-2.361,-2.361,-1.0469,0.0,0.0,0.0,0.0,0.0,0.0,0.0,0.0,0.0,0.0,0.0,0.0,0.0,0.0,0.0,0.0,0.0,0.0,0.0,0.0,0.0,0.0,0.0,0.0,0.0,0.0,0.0,-2.4788,-2.4693,-2.4631,-2.4513,-2.4468,-2.4623,-2.4348,-2.4284,-2.4419,-2.4284,-2.419,-2.419,-2.419,-2.43,-2.453,-2.453,-2.497,-2.5742,-2.5742,-2.6319,-2.7299,-2.7897,-2.8473,-2.8987,-2.8987,-2.8987,-2.8987,-2.8987,-2.8987,-2.8987,-2.8987,-2.8987,-2.8987,-2.8987,-2.8987,-2.8987,-2.8987,-2.8987,-2.8987,-2.8987,-2.8987,-2.8651,-2.7115,-2.6691,-2.6691,-2.6691,-2.6691,-2.6691,-2.6691,-2.6691,-2.6691,-2.6691,-2.6691,-2.6691,-2.6691,-2.6691,-2.6691,-2.6691,-2.6691,-2.6691,-2.6691,-2.6691,-2.6691,-2.6691,-2.6691,-2.5873,-2.3773,-2.361,-2.361,-2.361,-2.361,-2.361,-2.361,-2.361,-2.361,-2.361,-2.361,-2.361,-2.361,-2.361,-2.361,-2.361,-2.361,-2.361,-1.2031,-1.2266,0.0,0.0,0.0,0.0,0.0,0.0,0.0,0.0,0.0,0.0,0.0,0.0,0.0,0.0,0.0,0.0,0.0,0.0,0.0,0.0,0.0,0.0,0.0,0.0,0.0,-2.4991,-2.4936,-2.4843,-2.4804,-2.4685,-2.4678,-2.4797,-2.4567,-2.4479,-2.4485,-2.4384,-2.4294,-2.419,-2.419,-2.419,-2.419,-2.419,-2.4456,-2.4897,-2.4897,-2.5374,-2.6135,-2.6623,-2.7457,-2.8521,-2.8521,-2.8693,-2.8987,-2.8987,-2.8987,-2.8987,-2.8987,-2.8987,-2.8987,-2.8987,-2.8987,-2.8987,-2.8987,-2.8987,-2.8987,-2.8987,-2.8987,-2.8785,-2.7904,-2.7175,-2.6691,-2.6691,-2.6691,-2.6691,-2.6691,-2.6691,-2.6691,-2.6691,-2.6691,-2.6691,-2.6691,-2.6691,-2.6691,-2.6691,-2.6691,-2.6691,-2.6691,-2.6691,-2.6691,-2.6691,-2.6691,-2.6194,-2.4996,-2.4621,-2.4328,-2.3964,-2.3943,-2.3837,-2.361,-2.361,-2.361,-2.361,-2.361,-2.361,-2.361,-2.361,-2.361,-2.361,-2.361,-2.361,-1.4453,-1.4531,0.0,0.0,0.0,0.0,-1.6953,-1.6445,0.0,0.0,0.0,0.0,0.0,0.0,0.0,0.0,0.0,0.0,0.0,0.0,0.0,0.0,0.0,0.0,0.0,-2.5308,-2.5224,-2.5059,-2.5015,-2.4987,-2.4867,-2.484,-2.484,-2.4861,-2.4825,-2.4723,-2.4559,-2.451,-2.4419,-2.4237,-2.4209,-2.419,-2.419,-2.419,-2.419,-2.419,-2.419,-2.4603,-2.5264,-2.5264,-2.6256,-2.7798,-2.7798,-2.8301,-2.8987,-2.8987,-2.8987,-2.8987,-2.8987,-2.8987,-2.8987,-2.8987,-2.8987,-2.8987,-2.8987,-2.8987,-2.8987,-2.8987,-2.8987,-2.8987,-2.8987,-2.7862,-2.6691,-2.6691,-2.6691,-2.6691,-2.6691,-2.6691,-2.6691,-2.6691,-2.6691,-2.6691,-2.6691,-2.6691,-2.6691,-2.6691,-2.6691,-2.6691,-2.6691,-2.6691,-2.6691,-2.6691,-2.6691,-2.6691,-2.6691,-2.6157,-2.543,-2.4552,-2.4491,-2.4246,-2.3709,-2.3687,-2.3644,-2.361,-2.361,-2.361,-2.361,-2.361,-2.361,-2.361,-2.361,-2.361,-1.6562,-1.7227,-1.7852,-1.6094,0.0,0.0,0.0,-1.5156,0.0,0.0,0.0,0.0,0.0,0.0,0.0,0.0,0.0,0.0,0.0,0.0,0.0,0.0,0.0,0.0,0.0,-2.5308,-2.5298,-2.5234,-2.5229,-2.5219,-2.5192,-2.5047,-2.5036,-2.5187,-2.4948,-2.4816,-2.4892,-2.4617,-2.4497,-2.4454,-2.4294,-2.419,-2.419,-2.419,-2.419,-2.419,-2.419,-2.43,-2.441,-2.441,-2.5768,-2.7798,-2.7798,-2.8301,-2.8987,-2.8987,-2.8987,-2.8987,-2.8987,-2.8987,-2.8987,-2.8987,-2.8987,-2.8987,-2.8987,-2.8987,-2.8987,-2.8987,-2.8987,-2.8987,-2.8987,-2.7862,-2.6691,-2.6691,-2.6691,-2.6691,-2.6691,-2.6691,-2.6691,-2.6691,-2.6691,-2.6691,-2.6691,-2.6691,-2.6691,-2.6691,-2.6691,-2.6691,-2.6691,-2.6691,-2.6691,-2.6691,-2.6691,-2.6691,-2.6691,-2.659,-2.6104,-2.5125,-2.5047,-2.4812,-2.4266,-2.4246,-2.4017,-2.361,-2.361,-2.361,-2.361,-2.361,-2.361,-2.361,-2.361,-2.361,-1.8984,-1.9609,-2.0273,-1.8984,0.0,0.0,0.0,0.0,0.0,0.0,0.0,0.0,0.0,0.0,0.0,0.0,0.0,0.0,0.0,0.0,0.0,0.0,0.0,0.0,0.0,-2.5077,-2.5308,-2.5308,-2.5308,-2.5308,-2.5308,-2.5208,-2.5203,-2.5303,-2.5138,-2.5018,-2.4985,-2.4819,-2.4663,-2.4485,-2.4401,-2.4312,-2.419,-2.419,-2.419,-2.419,-2.419,-2.419,-2.419,-2.419,-2.5154,-2.6586,-2.6586,-2.709,-2.7813,-2.7813,-2.8069,-2.8411,-2.8411,-2.8656,-2.8987,-2.8987,-2.8987,-2.8987,-2.8987,-2.8987,-2.8987,-2.8987,-2.8987,-2.8987,-2.8987,-2.8425,-2.7848,-2.7848,-2.7253,-2.6691,-2.6691,-2.6691,-2.6691,-2.6691,-2.6691,-2.6691,-2.6691,-2.6691,-2.6691,-2.6691,-2.6691,-2.6691,-2.6691,-2.6691,-2.6691,-2.6691,-2.6691,-2.6691,-2.6691,-2.6691,-2.6471,-2.5964,-2.5709,-2.5354,-2.4831,-2.4812,-2.4592,-2.4152,-2.4152,-2.3964,-2.361,-2.361,-2.361,-2.361,-2.361,-2.361,0.0,0.0,0.0,0.0,0.0,-2.0078,0.0,0.0,0.0,-1.8672,0.0,0.0,0.0,0.0,0.0,0.0,0.0,0.0,0.0,0.0,0.0,0.0,0.0,0.0,0.0,-2.4389,-2.4769,-2.5269,-2.4846,-2.4769,-2.5269,-2.5308,-2.5308,-2.5308,-2.5308,-2.5219,-2.5071,-2.5003,-2.4846,-2.4607,-2.4567,-2.4451,-2.4303,-2.4294,-2.4294,-2.4303,-2.4284,-2.4294,-2.4303,-2.4303,-2.4681,-2.5223,-2.5358,-2.5888,-2.6602,-2.6602,-2.7016,-2.7567,-2.7567,-2.8117,-2.8767,-2.8767,-2.8877,-2.8987,-2.8987,-2.8987,-2.8987,-2.8987,-2.8987,-2.8987,-2.8987,-2.8987,-2.8987,-2.8987,-2.8057,-2.7128,-2.7128,-2.6906,-2.6791,-2.7099,-2.6889,-2.6691,-2.6691,-2.6691,-2.6691,-2.6691,-2.6691,-2.6691,-2.6691,-2.6691,-2.6691,-2.6691,-2.6691,-2.6691,-2.6691,-2.6691,-2.6691,-2.6691,-2.6333,-2.5906,-2.5373,-2.5182,-2.4989,-2.4803,-2.4583,-2.4297,-2.3921,-2.4101,-2.3975,-2.361,-2.361,-2.361,0.0,0.0,0.0,0.0,-2.2852,0.0,0.0,0.0,-1.9648,-1.8398,0.0,0.0,0.0,0.0,0.0,0.0,0.0,0.0,0.0,0.0,0.0,0.0,0.0,0.0,0.0,0.0,-2.2885,-2.5115,-2.3192,-2.2923,-2.5192,-2.5308,-2.5308,-2.5308,-2.5308,-2.5298,-2.5283,-2.5094,-2.4967,-2.493,-2.4809,-2.4753,-2.4731,-2.4534,-2.4551,-2.4723,-2.4534,-2.4559,-2.4731,-2.4731,-2.4698,-2.4648,-2.5206,-2.5888,-2.6602,-2.6602,-2.6649,-2.6759,-2.6759,-2.7273,-2.7934,-2.7934,-2.8411,-2.8987,-2.8987,-2.8987,-2.8987,-2.8987,-2.8987,-2.8987,-2.8987,-2.8987,-2.8987,-2.8987,-2.8881,-2.8737,-2.8737,-2.7675,-2.7115,-2.8476,-2.7646,-2.6691,-2.6691,-2.6691,-2.6691,-2.6691,-2.6691,-2.6691,-2.6691,-2.6691,-2.6691,-2.6691,-2.6691,-2.6691,-2.6691,-2.6691,-2.6691,-2.6691,-2.6657,-2.6418,-2.5924,-2.5176,-2.4883,-2.5144,-2.4204,-2.4142,-2.5028,-2.591,-2.5398,-2.361,-2.361,-2.361,0.0,0.0,0.0,0.0,0.0,0.0,0.0,0.0,-1.9922,0.0,0.0,0.0,0.0,0.0,0.0,0.0,0.0,0.0,0.0,0.0,0.0,0.0,0.0,0.0,0.0,0.0,0.0,0.0,0.0,-2.1927,-2.4466,-2.4582,-2.4812,-2.5308,-2.5308,-2.5308,-2.5308,-2.5214,-2.5111,-2.4985,-2.4956,-2.4871,-2.4797,-2.4716,-2.4723,-2.4797,-2.4708,-2.4723,-2.4804,-2.4804,-2.4753,-2.4692,-2.4834,-2.5023,-2.5217,-2.5217,-2.5511,-2.5888,-2.5888,-2.6429,-2.7163,-2.764,-2.8338,-2.8987,-2.8987,-2.8987,-2.8987,-2.8987,-2.8987,-2.8987,-2.8987,-2.8987,-2.8987,-2.8987,-2.8987,-2.8987,-2.8987,-2.8489,-2.8206,-2.8881,-2.8476,-2.8029,-2.8029,-2.7284,-2.6691,-2.6691,-2.6691,-2.6691,-2.6691,-2.6691,-2.6691,-2.6691,-2.6691,-2.6691,-2.6691,-2.6691,-2.6691,-2.6691,-2.6691,-2.6607,-2.6418,-2.605,-2.591,-2.6086,-2.5621,-2.5603,-2.6053,-2.6104,-2.5672,-2.4831,-2.4831,-2.4732,-2.4881,0.0,0.0,0.0,0.0,0.0,0.0,0.0,0.0,0.0,0.0,0.0,0.0,0.0,0.0,0.0,0.0,0.0,0.0,0.0,0.0,0.0,0.0,0.0,0.0,0.0,0.0,0.0,0.0,0.0,-2.3937,-2.4091,-2.4471,-2.5269,-2.5308,-2.5308,-2.5308,-2.5308,-2.5224,-2.5088,-2.5088,-2.503,-2.4942,-2.4864,-2.4864,-2.4942,-2.4895,-2.4902,-2.4948,-2.4948,-2.4884,-2.4823,-2.4685,-2.4493,-2.4294,-2.4218,-2.4566,-2.5081,-2.5081,-2.5731,-2.6722,-2.753,-2.8338,-2.8987,-2.8987,-2.8987,-2.8987,-2.8987,-2.8987,-2.8987,-2.8987,-2.8987,-2.8987,-2.8987,-2.8987,-2.8987,-2.8987,-2.8987,-2.8987,-2.8987,-2.8987,-2.8987,-2.8987,-2.7733,-2.6691,-2.6691,-2.6691,-2.6691,-2.6691,-2.6691,-2.6691,-2.6691,-2.6691,-2.6691,-2.6691,-2.6691,-2.6691,-2.6691,-2.6691,-2.6691,-2.6691,-2.6691,-2.6691,-2.6691,-2.6691,-2.6691,-2.6691,-2.621,-2.5979,-2.5979,-2.5691,-2.543,0.0,0.0,0.0,-2.3633,0.0,0.0,0.0,0.0,-2.1602,0.0,0.0,0.0,0.0,0.0,-1.8984,-1.8125,-1.8008,0.0,0.0,0.0,0.0,0.0,0.0,0.0,0.0,0.0,0.0,0.0,0.0,0.0,-2.3821,-2.4091,-2.4471,-2.5269,-2.5308,-2.5308,-2.5308,-2.5308,-2.5303,-2.5298,-2.5298,-2.5298,-2.5288,-2.5082,-2.5094,-2.5288,-2.5082,-2.5099,-2.5293,-2.5293,-2.5182,-2.4979,-2.4973,-2.4795,-2.4479,-2.4284,-2.4226,-2.4226,-2.4226,-2.5291,-2.6722,-2.753,-2.8338,-2.8987,-2.8987,-2.8987,-2.8987,-2.8987,-2.8987,-2.8987,-2.8987,-2.8987,-2.8987,-2.8987,-2.8987,-2.8987,-2.8987,-2.8987,-2.8987,-2.8987,-2.8987,-2.8987,-2.8987,-2.7733,-2.6691,-2.6691,-2.6691,-2.6691,-2.6691,-2.6691,-2.6691,-2.6691,-2.6691,-2.6691,-2.6691,-2.6691,-2.6691,-2.6691,-2.6691,-2.6691,-2.6691,-2.6691,-2.6691,-2.6691,-2.6691,-2.6691,-2.6691,-2.6674,-2.6674,-2.6641,-2.5672,-2.5221,0.0,0.0,-2.5341,-2.4207,0.0,0.0,0.0,0.0,0.0,0.0,0.0,0.0,0.0,0.0,-1.9023,-1.8125,-1.7539,-1.6367,0.0,0.0,0.0,0.0,0.0,0.0,0.0,0.0,0.0,0.0,0.0,0.0,0.0,-2.2932,-2.3624,-2.4471,-2.5,-2.5308,-2.5308,-2.5308,-2.5308,-2.5308,-2.5308,-2.5308,-2.5303,-2.5224,-2.5229,-2.5303,-2.5224,-2.5229,-2.5308,-2.5308,-2.5244,-2.5198,-2.5065,-2.4917,-2.4816,-2.451,-2.4303,-2.419,-2.419,-2.4887,-2.5888,-2.6319,-2.7163,-2.8069,-2.8767,-2.8987,-2.8987,-2.8987,-2.8987,-2.8987,-2.8987,-2.8987,-2.8987,-2.8987,-2.8987,-2.8987,-2.8987,-2.8987,-2.8987,-2.8987,-2.8987,-2.8987,-2.8987,-2.8552,-2.8206,-2.8206,-2.7346,-2.6691,-2.6691,-2.6691,-2.6691,-2.6691,-2.6691,-2.6691,-2.6691,-2.6691,-2.6691,-2.6691,-2.6691,-2.6691,-2.6691,-2.6691,-2.6691,-2.6691,-2.6691,-2.6691,-2.6691,-2.6691,-2.6691,-2.6691,-2.635,-2.621,-2.5473,-2.5503,0.0,-2.4485,-2.3879,0.0,-2.2105,0.0,0.0,0.0,0.0,0.0,0.0,0.0,-1.9492,-1.8594,-1.7734,-1.625,0.0,0.0,0.0,0.0,0.0,0.0,0.0,0.0,-1.4882,-1.7198,0.0,0.0,0.0,0.0,-2.3201,-2.4052,-2.4889,-2.5308,-2.5308,-2.5308,-2.5308,-2.5308,-2.5308,-2.5308,-2.5308,-2.5308,-2.5308,-2.5308,-2.5308,-2.5308,-2.5308,-2.5308,-2.5308,-2.5298,-2.5176,-2.5071,-2.4955,-2.4693,-2.4497,-2.4331,-2.4331,-2.4855,-2.5558,-2.5731,-2.6785,-2.8106,-2.8803,-2.8987,-2.8987,-2.8987,-2.8987,-2.8987,-2.8987,-2.8987,-2.8987,-2.8987,-2.8987,-2.8987,-2.8987,-2.8987,-2.8987,-2.8987,-2.8987,-2.8987,-2.8987,-2.8987,-2.8987,-2.8987,-2.8152,-2.7527,-2.7527,-2.7051,-2.6691,-2.6691,-2.6691,-2.6691,-2.6691,-2.6691,-2.6691,-2.6691,-2.6691,-2.6691,-2.6691,-2.6691,-2.6691,-2.6691,-2.6691,-2.6691,-2.6691,-2.6691,-2.6691,-2.6691,-2.6691,-2.6691]},{"header":{"parameterUnit":"m.s-1","parameterCategory":1,"la1":30.6,"la2":29.2853,"lo1":-89.7004,"lo2":-87.6739,"dy":0.0162,"dx":0.0183,"nx":112,"ny":82,"refTime":"2024-07-06T06:00:00:Z","depth":0,"parameterNumber":3,"parameterNumberName":"V-component_of_WINDS"},"data":[0.0,0.0,0.0,0.0,0.0,0.0,0.0,0.0,0.0,0.0,0.0,0.0,0.0,0.0,0.0,0.0,0.0,0.0,0.0,0.0,0.0,0.0,0.0,0.0,0.0,0.0,0.0,0.0,0.0,0.0,0.0,0.0,0.0,0.0,0.0,0.0,0.0,0.0,0.0,0.0,0.0,0.0,0.0,0.0,0.0,0.0,0.0,0.0,0.0,0.0,0.0,0.0,0.0,0.0,0.0,0.0,0.0,0.0,0.0,0.0,0.0,0.0,0.0,0.0,0.0,0.0,0.0,0.0,0.0,0.0,0.0,0.0,0.0,0.0,0.0,0.0,0.0,0.0,0.0,0.0,0.0,0.0,0.0,0.0,0.0,0.0,0.0,0.0,0.0,0.0,0.0,-1.1021,-1.2558,-1.3413,-1.3413,-1.2728,-1.1942,-1.1164,0.0,0.0,0.0,0.0,0.0,0.0,0.0,0.0,0.0,0.0,0.0,0.0,0.0,0.0,0.0,0.0,0.0,0.0,0.0,0.0,0.0,0.0,0.0,0.0,0.0,0.0,0.0,0.0,0.0,0.0,0.0,0.0,0.0,0.0,0.0,0.0,0.0,0.0,0.0,0.0,0.0,0.0,0.0,0.0,0.0,0.0,0.0,0.0,0.0,0.0,0.0,0.0,0.0,0.0,0.0,0.0,0.0,0.0,0.0,0.0,0.0,0.0,0.0,0.0,0.0,0.0,0.0,0.0,0.0,0.0,0.0,0.0,0.0,0.0,0.0,0.0,0.0,0.0,0.0,0.0,0.0,0.0,0.0,0.0,0.0,0.0,0.0,0.0,0.0,0.0,0.0,0.0,0.0,0.0,0.0,0.0,0.0,0.0,0.0,0.0,0.0,0.0,0.0,0.0,-0.9607,-1.1874,-1.2897,-1.3413,-1.3413,-1.2728,-1.1942,-1.1164,0.0,0.0,0.0,0.0,0.0,0.0,0.0,0.0,0.0,0.0,0.0,0.0,0.0,0.0,0.0,0.0,0.0,0.0,0.0,0.0,0.0,0.0,0.0,0.0,0.0,0.0,0.0,0.0,0.0,0.0,0.0,0.0,0.0,0.0,0.0,0.0,0.0,0.0,0.0,0.0,0.0,0.0,0.0,0.0,0.0,0.0,0.0,0.0,0.0,0.0,0.0,0.0,0.0,0.0,0.0,0.0,0.0,0.0,0.0,0.0,0.0,0.0,0.0,0.0,0.0,0.0,0.0,0.0,0.0,0.0,0.0,0.0,0.0,0.0,0.0,0.0,0.0,0.0,0.0,0.0,0.0,0.0,0.0,0.0,0.0,0.0,0.0,0.0,0.0,0.0,0.0,0.0,0.0,0.0,0.0,0.0,0.0,0.0,0.0,0.0,0.0,0.0,0.0,-0.9438,-1.0663,-1.2145,-1.2965,-1.3413,-1.3413,-1.2728,-1.1942,-1.1164,-0.8998,0.0,0.0,0.0,0.0,0.0,0.0,0.0,0.0,0.0,0.0,0.0,0.0,0.0,0.0,0.0,0.0,0.0,0.0,0.0,0.0,0.0,0.0,0.0,0.0,0.0,0.0,0.0,0.0,0.0,0.0,0.0,0.0,0.0,0.0,0.0,0.0,0.0,0.0,0.0,0.0,0.0,0.0,0.0,0.0,0.0,0.0,0.0,0.0,0.0,0.0,0.0,0.0,0.0,0.0,0.0,0.0,0.0,0.0,0.0,0.0,0.0,0.0,0.0,0.0,0.0,0.0,0.0,0.0,0.0,0.0,0.0,0.0,0.0,0.0,0.0,0.0,0.0,0.0,0.0,0.0,0.0,0.0,0.0,0.0,0.0,0.0,0.0,0.0,0.0,0.0,0.0,0.0,0.0,0.0,0.0,0.0,0.0,0.0,0.0,0.0,0.0,0.0,-1.0758,-1.1468,-1.2449,-1.3066,-1.3413,-1.3413,-1.2728,-1.1942,-1.1164,-0.8963,0.0,0.0,0.0,0.0,0.0,0.0,0.0,0.0,0.0,0.0,0.0,0.0,0.0,0.0,0.0,0.0,0.0,0.0,0.0,0.0,0.0,0.0,0.0,0.0,0.0,0.0,0.0,0.0,0.0,0.0,0.0,0.0,0.0,0.0,0.0,0.0,0.0,0.0,0.0,0.0,0.0,0.0,0.0,0.0,0.0,0.0,0.0,0.0,0.0,0.0,0.0,0.0,0.0,0.0,0.0,0.0,0.0,0.0,0.0,0.0,0.0,0.0,0.0,0.0,0.0,0.0,0.0,0.0,0.0,0.0,0.0,0.0,0.0,0.0,0.0,0.0,0.0,0.0,0.0,0.0,0.0,0.0,0.0,0.0,0.0,0.0,0.0,0.0,0.0,0.0,0.0,0.0,0.0,0.0,0.0,0.0,0.0,0.0,0.0,0.0,0.0,0.0,-1.1069,-1.1678,-1.3176,-1.3379,-1.3413,-1.3413,-1.2728,-1.1942,-1.1164,-0.8963,0.0,0.0,0.0,0.0,0.0,0.0,0.0,0.0,0.0,0.0,0.0,0.0,0.0,0.0,0.0,0.0,0.0,0.0,0.0,0.0,0.0,0.0,0.0,0.0,0.0,0.0,0.0,0.0,0.0,0.0,0.0,0.0,0.0,0.0,0.0,0.0,0.0,0.0,0.0,0.0,0.0,0.0,0.0,0.0,0.0,0.0,0.0,0.0,0.0,0.0,0.0,0.0,0.0,0.0,0.0,0.0,0.0,0.0,0.0,0.0,0.0,0.0,0.0,0.0,0.0,0.0,0.0,0.0,0.0,0.0,0.0,0.0,0.0,0.0,0.0,0.0,0.0,0.0,0.0,0.0,0.0,0.0,0.0,0.0,0.0,0.0,0.0,0.0,0.0,0.0,0.0,0.0,0.0,0.0,0.0,0.0,0.0,0.0,0.0,0.0,0.0,0.0,-1.1103,-1.1678,0.0,-1.3413,-1.3413,-1.3413,-1.2728,-1.1942,-1.1164,0.0,0.0,0.0,0.0,0.0,0.0,0.0,0.0,0.0,0.0,0.0,0.0,0.0,0.0,0.0,0.0,0.0,0.0,0.0,0.0,0.0,0.0,0.0,0.0,0.0,0.0,0.0,0.0,0.0,0.0,0.0,0.0,0.0,0.0,0.0,0.0,0.0,0.0,0.0,0.0,0.0,0.0,0.0,0.0,0.0,0.0,0.0,0.0,0.0,0.0,0.0,0.0,0.0,0.0,0.0,0.0,0.0,0.0,0.0,0.0,0.0,0.0,0.0,0.0,0.0,0.0,0.0,0.0,0.0,0.0,0.0,0.0,0.0,0.0,0.0,0.0,0.0,0.0,0.0,0.0,0.0,0.0,0.0,0.0,0.0,0.0,0.0,0.0,0.0,0.0,0.0,0.0,0.0,0.0,0.0,0.0,0.0,0.0,0.0,0.0,0.0,0.0,-1.0724,-1.1103,-1.1678,0.0,-1.3413,-1.3413,-1.3413,-1.2491,-1.1671,-1.113,0.0,0.0,0.0,0.0,0.0,0.0,0.0,0.0,0.0,0.0,0.0,0.0,0.0,0.0,0.0,0.0,0.0,0.0,0.0,0.0,0.0,0.0,0.0,0.0,0.0,0.0,0.0,0.0,0.0,0.0,0.0,0.0,0.0,0.0,0.0,0.0,0.0,0.0,0.0,0.0,0.0,0.0,0.0,0.0,0.0,0.0,0.0,0.0,0.0,0.0,0.0,0.0,0.0,0.0,0.0,0.0,0.0,0.0,0.0,0.0,0.0,0.0,0.0,0.0,0.0,0.0,0.0,0.0,0.0,0.0,0.0,0.0,0.0,0.0,0.0,0.0,0.0,0.0,0.0,0.0,0.0,0.0,0.0,0.0,0.0,0.0,0.0,0.0,0.0,0.0,0.0,0.0,0.0,0.0,0.0,0.0,0.0,0.0,0.0,0.0,0.0,0.0,-1.0724,-1.1103,-1.1678,-1.3244,-1.3413,-1.3413,-1.3413,-1.1983,-1.1103,0.0,0.0,0.0,0.0,0.0,0.0,0.0,0.0,0.0,0.0,0.0,0.0,0.0,0.0,0.0,0.0,0.0,0.0,0.0,0.0,0.0,0.0,0.0,0.0,0.0,0.0,0.0,0.0,0.0,0.0,0.0,0.0,0.0,0.0,0.0,0.0,0.0,0.0,0.0,0.0,0.0,0.0,0.0,0.0,0.0,0.0,0.0,0.0,0.0,0.0,0.0,0.0,0.0,0.0,0.0,0.0,0.0,0.0,0.0,0.0,0.0,0.0,0.0,0.0,0.0,0.0,0.0,0.0,0.0,0.0,0.0,0.0,0.0,0.0,0.0,0.0,0.0,0.0,0.0,0.0,0.0,0.0,0.0,0.0,0.0,0.0,0.0,0.0,0.0,0.0,0.0,0.0,0.0,0.0,0.0,0.0,0.0,0.0,0.0,0.0,0.0,0.0,0.0,-1.0724,-1.1103,-1.1678,-1.3244,-1.3413,-1.3413,-1.3413,-1.1983,-1.1103,-1.1103,0.0,0.0,0.0,0.0,0.0,0.0,0.0,0.0,0.0,0.0,0.0,0.0,0.0,0.0,0.0,0.0,0.0,0.0,0.0,0.0,0.0,0.0,0.0,0.0,0.0,0.0,0.0,0.0,0.0,0.0,0.0,0.0,0.0,0.0,0.0,0.0,0.0,0.0,0.0,0.0,0.0,0.0,0.0,0.0,0.0,0.0,0.0,0.0,0.0,0.0,0.0,0.0,0.0,0.0,0.0,0.0,0.0,0.0,0.0,0.0,0.0,0.0,0.0,0.0,0.0,0.0,0.0,0.0,0.0,0.0,0.0,0.0,0.0,0.0,0.0,0.0,0.0,0.0,0.0,0.0,0.0,0.0,0.0,0.0,0.0,0.0,0.0,0.0,0.0,0.0,0.0,0.0,0.0,0.0,0.0,0.0,0.0,0.0,0.0,0.0,0.0,0.0,-1.0724,-1.1103,-1.1678,-1.3244,-1.3413,-1.3413,-1.3413,-1.2288,-1.1434,-1.1137,0.0,0.0,0.0,0.0,0.0,0.0,0.0,0.0,0.0,0.0,0.0,0.0,0.0,0.0,0.0,0.0,0.0,0.0,0.0,0.0,0.0,0.0,0.0,0.0,0.0,0.0,0.0,0.0,0.0,0.0,0.0,0.0,0.0,0.0,0.0,0.0,0.0,0.0,0.0,0.0,0.0,0.0,0.0,0.0,0.0,0.0,0.0,0.0,0.0,0.0,0.0,0.0,0.0,0.0,0.0,0.0,0.0,0.0,0.0,0.0,0.0,0.0,0.0,0.0,0.0,0.0,0.0,0.0,0.0,0.0,0.0,0.0,0.0,0.0,0.0,0.0,0.0,0.0,0.0,0.0,0.0,0.0,0.0,0.0,0.0,0.0,0.0,0.0,0.0,0.0,0.0,0.0,0.0,0.0,0.0,0.0,0.0,0.0,0.0,0.0,0.0,0.0,-1.0724,-1.1171,-1.178,-1.3244,-1.3413,-1.3413,-1.3413,-1.2728,-1.1942,-1.1164,0.0,0.0,0.0,0.0,0.0,0.0,0.0,0.0,0.0,0.0,0.0,0.0,0.0,0.0,0.0,0.0,0.0,0.0,0.0,0.0,0.0,0.0,0.0,0.0,0.0,0.0,0.0,0.0,0.0,0.0,0.0,0.0,0.0,0.0,0.0,0.0,0.0,0.0,0.0,0.0,0.0,0.0,0.0,0.0,0.0,0.0,0.0,0.0,0.0,0.0,0.0,0.0,0.0,0.0,0.0,0.0,0.0,0.0,0.0,0.0,-0.6209,0.0,0.0,0.0,0.0,0.0,0.0,0.0,0.0,0.0,0.0,0.0,0.0,0.0,0.0,0.0,0.0,0.0,0.0,0.0,0.0,0.0,0.0,0.0,0.0,0.0,0.0,0.0,0.0,0.0,0.0,0.0,0.0,0.0,0.0,0.0,0.0,0.0,0.0,0.0,0.0,0.0,-1.0798,-1.1637,-1.2389,-1.3312,-1.3413,-1.3413,-1.3413,-1.2728,-1.1942,-1.1164,0.0,0.0,0.0,0.0,0.0,0.0,0.0,0.0,0.0,0.0,0.0,0.0,0.0,0.0,0.0,0.0,0.0,0.0,0.0,0.0,0.0,0.0,0.0,0.0,0.0,0.0,0.0,0.0,0.0,0.0,0.0,0.0,0.0,0.0,0.0,0.0,0.0,0.0,0.0,0.0,0.0,0.0,0.0,0.0,0.0,0.0,0.0,0.0,0.0,0.0,0.0,0.0,0.0,0.0,0.0,0.0,0.0,0.0,0.0,0.0,0.0,-0.6611,0.0,0.0,0.0,0.0,0.0,0.0,0.0,0.0,0.0,0.0,0.0,0.0,0.0,0.0,0.0,0.0,0.0,0.0,0.0,0.0,0.0,0.0,0.0,0.0,0.0,0.0,0.0,0.0,0.0,0.0,0.0,0.0,0.0,0.0,0.0,0.0,0.0,0.0,0.0,0.0,-1.0866,-1.1806,-1.2584,-1.3312,-1.3413,-1.3413,-1.3413,-1.3032,-1.2491,-1.1739,-1.0595,0.0,0.0,0.0,0.0,0.0,0.0,0.0,0.0,0.0,0.0,0.0,0.0,0.0,0.0,0.0,0.0,0.0,0.0,0.0,0.0,0.0,0.0,0.0,0.0,0.0,0.0,0.0,0.0,0.0,0.0,0.0,0.0,0.0,0.0,0.0,0.0,0.0,0.0,0.0,0.0,0.0,0.0,0.0,0.0,0.0,0.0,0.0,0.0,0.0,0.0,0.0,0.0,0.0,-1.0495,-1.0495,-1.0495,-1.0495,-1.1043,-1.1877,-0.9005,-0.7538,-0.7162,0.0,0.0,0.0,0.0,0.0,0.0,0.0,0.0,0.0,0.0,0.0,0.0,0.0,0.0,0.0,0.0,0.0,0.0,0.0,0.0,0.0,0.0,0.0,0.0,0.0,-1.2239,-1.2098,0.0,0.0,0.0,0.0,0.0,0.0,0.0,0.0,0.0,0.0,0.0,0.0,-1.1186,-1.207,-1.2782,-1.3518,-1.3502,-1.3444,-1.3444,-1.3319,-1.2967,-1.2259,-1.1619,-1.0629,0.0,0.0,0.0,0.0,0.0,0.0,0.0,0.0,0.0,0.0,0.0,0.0,0.0,0.0,0.0,0.0,0.0,0.0,0.0,0.0,0.0,0.0,0.0,0.0,0.0,0.0,0.0,0.0,0.0,0.0,0.0,0.0,-0.3933,-0.585,0.0,0.0,0.0,0.0,0.0,0.0,0.0,0.0,0.0,0.0,0.0,0.0,0.0,-1.1177,-1.1281,-1.1281,-1.1777,-1.2747,-1.2747,-1.2747,-1.2747,-1.2747,-1.2847,-1.2986,-1.2528,0.0,-0.9466,-0.9466,0.0,0.0,0.0,0.0,0.0,0.0,0.0,0.0,0.0,0.0,0.0,0.0,0.0,0.0,0.0,0.0,0.0,0.0,0.0,0.0,0.0,0.0,-1.3423,-1.3513,-1.3974,-1.421,0.0,-1.1964,-1.0521,-0.9808,-0.9193,0.0,0.0,0.0,0.0,0.0,0.0,0.0,-1.2366,-1.3116,-1.3673,-1.4367,-1.3929,-1.3575,-1.3575,-1.3025,-1.2481,-1.1984,-1.186,-1.1501,-1.0805,-0.9562,0.0,0.0,0.0,0.0,0.0,0.0,0.0,0.0,0.0,0.0,0.0,0.0,0.0,0.0,0.0,0.0,0.0,0.0,0.0,0.0,0.0,0.0,0.0,0.0,0.0,0.0,0.0,0.0,0.0,-0.4213,-0.5517,-0.6486,-0.5714,-0.5489,0.0,0.0,0.0,0.0,0.0,0.0,0.0,0.0,0.0,-0.8451,-1.2076,-1.406,-1.406,-1.3067,-1.2791,-1.3198,-1.3198,-1.3198,-1.3198,-1.3198,-1.3198,-1.3198,-1.3198,-1.2647,-1.1745,-1.1745,-1.0457,-0.8401,0.0,0.0,0.0,0.0,-0.8812,-1.185,-1.2201,-1.31,0.0,-1.231,0.0,0.0,0.0,0.0,0.0,0.0,0.0,0.0,0.0,0.0,0.0,-1.5905,-1.6204,-1.6353,-1.6054,-1.4994,-1.359,0.0,-1.1591,-1.1052,-0.9142,0.0,0.0,0.0,0.0,0.0,-1.3065,-1.3781,-1.4268,-1.4563,-1.4331,-1.4003,-1.3621,-1.3323,-1.2893,-1.2338,-1.19,-1.1637,-1.155,-1.0544,-0.9587,0.0,0.0,0.0,0.0,0.0,0.0,0.0,0.0,0.0,0.0,0.0,0.0,0.0,0.0,0.0,0.0,0.0,0.0,0.0,0.0,0.0,0.0,0.0,0.0,0.0,0.0,0.0,0.0,-0.4906,-0.6037,-0.6189,-0.6289,-0.631,0.0,0.0,0.0,0.0,0.0,0.0,-0.7448,-0.9529,-1.0733,-1.0733,-1.3606,-1.512,-1.512,-1.441,-1.4024,-1.4024,-1.4024,-1.4024,-1.4024,-1.4024,-1.4024,-1.4024,-1.4024,-1.4024,-1.3999,-1.3423,-1.2237,-1.0671,-0.9855,-0.9318,-0.8904,-0.8436,-1.0214,-1.3118,-1.5109,-1.5799,-1.5469,-1.3478,0.0,-1.5799,-1.5799,0.0,0.0,0.0,0.0,-1.4799,-1.5994,-1.6622,-1.7085,-1.7563,-1.7818,-1.7908,-1.7758,-1.7443,-1.6503,0.0,-1.3837,-1.3377,-1.1229,0.0,0.0,0.0,0.0,-1.2926,-1.3805,-1.4335,-1.4718,-1.4905,-1.4749,-1.446,-1.3962,-1.3596,-1.3199,-1.2786,-1.2082,-1.1812,-1.2078,-1.1368,-1.0368,-0.9101,0.0,0.0,0.0,0.0,0.0,0.0,0.0,0.0,0.0,0.0,0.0,0.0,0.0,0.0,0.0,0.0,0.0,0.0,0.0,0.0,0.0,0.0,0.0,0.0,0.0,0.0,0.0,0.0,0.0,-0.5095,-0.7842,0.0,0.0,0.0,0.0,-0.6611,-0.8551,-0.9742,-0.9742,-1.1836,-1.3023,-1.3023,-1.3225,-1.3335,-1.3335,-1.5336,-1.6325,-1.6325,-1.6325,-1.6325,-1.6325,-1.6325,-1.6325,-1.6325,-1.6325,-1.6325,-1.6174,-1.4068,-1.3123,-1.3023,-1.2973,-1.3932,-1.5138,-1.348,-1.4038,-1.5619,-1.5739,-1.5799,-1.5769,-1.5649,-1.5679,-1.5799,-1.5799,-1.6548,0.0,0.0,-1.7085,-1.6726,-1.7413,-1.7639,-1.7652,-1.7699,-1.8177,-1.8493,-1.7848,-1.8177,-1.8014,0.0,-1.5155,-1.4369,-1.3153,0.0,-1.2852,-1.3272,-1.3029,-1.3352,-1.4911,-1.4919,-1.5016,-1.5661,-1.5167,-1.4776,-1.4746,-1.3587,-1.2921,-1.3149,-1.2551,-1.2279,-1.2562,-1.1844,-1.1055,-1.0133,-0.8821,0.0,0.0,0.0,0.0,0.0,0.0,0.0,0.0,0.0,0.0,0.0,0.0,0.0,0.0,0.0,0.0,0.0,0.0,0.0,0.0,0.0,0.0,0.0,0.0,0.0,0.0,0.0,0.0,-0.7422,-0.7629,0.0,0.0,-0.664,-0.7084,-1.0577,-1.157,-1.2037,-1.2037,-1.2772,-1.3198,-1.3198,-1.4594,-1.5322,-1.5322,-1.6099,-1.65,-1.65,-1.65,-1.65,-1.65,-1.65,-1.65,-1.65,-1.65,-1.65,-1.6425,-1.5648,-1.5322,-1.5322,-1.5322,-1.5691,-1.6167,-1.5534,-1.5711,-1.6243,-1.6243,-1.6243,-1.6469,-1.7863,-1.83,-1.83,-1.83,-1.824,-1.8253,-1.8822,-1.8523,-1.8147,-1.8822,-1.9001,-1.9001,-1.9001,-1.9181,-1.9271,-1.9031,-1.9181,-1.9001,-1.7864,-1.7116,-1.6263,-1.5041,-1.479,-1.4652,-1.4366,-1.4179,-1.4446,-1.5458,-1.5495,-1.5559,-1.5769,-1.5589,-1.5275,-1.4856,-1.3974,-1.3305,-1.297,-1.2303,-1.2055,-1.2332,-1.1662,-1.0955,-1.0224,-0.9335,-0.8278,0.0,0.0,0.0,0.0,0.0,0.0,0.0,0.0,0.0,0.0,0.0,0.0,0.0,0.0,0.0,0.0,0.0,0.0,0.0,0.0,0.0,0.0,0.0,0.0,0.0,0.0,-0.7057,-0.8402,-0.8013,-0.7826,-0.824,-0.7338,-0.8527,-1.2872,-1.3198,-1.3198,-1.3198,-1.3899,-1.43,-1.43,-1.5748,-1.65,-1.65,-1.65,-1.65,-1.65,-1.65,-1.65,-1.65,-1.65,-1.65,-1.65,-1.65,-1.65,-1.65,-1.65,-1.65,-1.65,-1.65,-1.65,-1.65,-1.65,-1.65,-1.65,-1.65,-1.6985,-1.7794,-1.9258,-1.9708,-1.9708,-1.9708,-1.9288,-1.8959,-1.9528,-1.9378,-1.9121,-1.9588,-1.9708,-1.9708,-1.9708,-1.9708,-1.9708,-1.9708,-1.9708,-1.9558,-1.9121,-1.8523,-1.7699,-1.6623,-1.6443,-1.6293,-1.5859,-1.559,-1.559,-1.6039,-1.5934,-1.5799,-1.5799,-1.5799,-1.5619,-1.5185,-1.4303,-1.3615,-1.3178,-1.2299,-1.1876,-1.2055,-1.1412,-1.0755,-1.0119,-0.9562,-0.8841,-0.7919,0.0,0.0,0.0,0.0,0.0,0.0,0.0,0.0,0.0,0.0,0.0,0.0,0.0,0.0,0.0,0.0,0.0,0.0,0.0,0.0,0.0,0.0,0.0,-0.6589,-0.7193,-0.7725,-0.7744,-0.9124,-0.8803,-0.5579,-0.8204,-1.0983,-1.3148,-1.3298,-1.3298,-1.3298,-1.5347,-1.65,-1.65,-1.65,-1.65,-1.65,-1.65,-1.65,-1.65,-1.65,-1.65,-1.65,-1.65,-1.65,-1.65,-1.65,-1.65,-1.65,-1.65,-1.65,-1.65,-1.65,-1.65,-1.65,-1.65,-1.65,-1.65,-1.65,-1.7854,-1.9617,-1.9654,-1.9654,-1.9654,-1.969,-1.969,-1.969,-1.9708,-1.9708,-1.9708,-1.9708,-1.9708,-1.9708,-1.9708,-1.9708,-1.9708,-1.9708,-1.9708,-1.9708,-1.9708,-1.9181,-1.8506,-1.7878,-1.7758,-1.7728,-1.7728,-1.7174,0.0,-1.6711,-1.6189,-1.5829,-1.5799,-1.5799,-1.5799,-1.5799,-1.4573,-1.3812,-1.3812,-1.2568,-1.182,-1.179,-1.1151,-1.0523,-0.9923,-0.9544,-0.9326,-0.9302,0.0,0.0,0.0,0.0,0.0,0.0,0.0,0.0,0.0,0.0,0.0,0.0,0.0,0.0,0.0,0.0,0.0,0.0,0.0,0.0,0.0,0.0,-0.8558,-0.832,-0.8242,-0.8379,-0.887,-0.915,-0.9181,-0.8901,-1.2398,-1.4945,-1.5547,-1.5597,-1.5597,-1.5597,-1.6174,-1.65,-1.65,-1.65,-1.65,-1.65,-1.65,-1.65,-1.65,-1.65,-1.65,-1.65,-1.65,-1.65,-1.65,-1.65,-1.65,-1.65,-1.65,-1.65,-1.65,-1.65,-1.65,-1.65,-1.65,-1.65,-1.65,-1.65,-1.69,-1.7517,-1.8288,-1.8366,-1.8366,-1.9387,-1.9424,-1.9192,-1.9599,-1.9708,-1.9708,-1.9708,-1.9708,-1.9708,-1.9708,-1.9708,-1.9708,-1.9708,-1.9708,-1.9708,-1.9708,-1.9558,-1.9378,-1.9181,-1.8762,-1.8433,-1.8433,-1.7848,0.0,-1.6771,-1.6547,-1.6263,-1.5858,-1.5799,-1.5799,-1.5799,-1.5005,-1.4303,-1.3812,-1.2987,-1.231,-1.182,-1.1151,-1.0589,-1.0144,-1.0152,-0.9989,0.0,0.0,0.0,0.0,0.0,0.0,0.0,0.0,0.0,0.0,0.0,0.0,0.0,0.0,0.0,0.0,0.0,0.0,0.0,0.0,0.0,0.0,-0.9512,-1.0039,-0.9903,-0.9316,-0.9199,-1.002,-0.9785,-1.0038,-1.1271,-1.4502,-1.65,-1.65,-1.65,-1.65,-1.65,-1.65,-1.65,-1.65,-1.65,-1.65,-1.65,-1.65,-1.65,-1.65,-1.65,-1.65,-1.65,-1.65,-1.65,0.0,-1.65,-1.65,-1.65,-1.65,-1.65,0.0,0.0,0.0,0.0,0.0,-1.65,-1.65,-1.65,-1.65,-1.6607,-1.7229,-1.7894,-1.854,-1.893,-1.8912,-1.8893,-1.9515,-1.9708,-1.9708,-1.9708,-1.9708,-1.9708,-1.9708,-1.9708,-1.9708,-1.9708,-1.9708,-1.9708,-1.9708,-1.9708,0.0,-1.9708,-1.9378,-1.9121,-1.9121,-1.8553,-1.7968,-1.7593,-1.7055,-1.6577,-1.6219,-1.5934,-1.5799,-1.5799,-1.5185,0.0,0.0,0.0,-1.237,-1.142,-1.1002,0.0,0.0,0.0,0.0,0.0,0.0,0.0,0.0,-1.1133,-1.1249,0.0,0.0,0.0,0.0,0.0,0.0,0.0,0.0,0.0,0.0,0.0,0.0,0.0,0.0,0.0,0.0,-1.1154,-1.1506,-1.1248,-1.041,-1.0137,-1.1014,-1.0723,-1.1095,-1.2739,-1.5085,-1.65,-1.65,-1.65,-1.65,-1.65,0.0,0.0,0.0,0.0,-1.65,-1.65,-1.65,-1.65,-1.65,-1.65,-1.65,-1.65,-1.65,-1.65,-1.65,-1.65,-1.65,-1.65,-1.65,-1.65,-1.65,-1.65,-1.65,-1.65,-1.65,-1.65,-1.65,-1.65,0.0,0.0,-1.6607,-1.7854,-1.9173,-1.8308,-1.823,-1.8607,-1.9277,-1.9515,-1.9617,-1.9617,-1.9654,-1.9708,-1.9708,-1.9708,-1.9708,-1.9708,-1.9708,-1.9708,-1.9708,-1.9708,-1.9708,-1.9708,-1.9708,-1.9708,-1.9708,-1.9181,-1.8792,-1.8702,-1.7652,-1.689,-1.683,0.0,0.0,-1.5904,-1.5275,-1.4886,-1.4796,-1.3598,-1.237,-1.1171,-1.1141,-1.1253,-1.1526,-1.2451,-1.3346,-1.4196,-1.515,-1.5629,-1.5663,-1.3633,-1.3354,0.0,0.0,0.0,0.0,0.0,0.0,0.0,0.0,0.0,0.0,0.0,0.0,0.0,0.0,0.0,-1.2074,-1.1937,-1.1643,-1.1816,-1.1465,-1.1193,-1.1112,-1.1252,-1.1763,-1.2798,-1.5085,-1.65,-1.65,-1.65,-1.65,-1.65,-1.65,0.0,-1.65,-1.65,-1.65,-1.65,-1.65,-1.65,-1.65,0.0,0.0,-1.65,-1.65,-1.65,-1.65,-1.65,-1.65,-1.65,-1.65,-1.65,-1.65,-1.65,-1.65,-1.65,-1.65,-1.65,-1.65,-1.65,-1.65,-1.6607,-1.7188,-1.7271,-1.7188,-1.7598,-1.7639,0.0,-1.7913,-1.8502,-1.9043,-1.9043,-1.9387,-1.9708,-1.9708,-1.9708,-1.9708,-1.9708,-1.9708,-1.9708,-1.9708,-1.9708,-1.9708,-1.9708,-1.9708,-1.9708,-1.9708,-1.9588,-1.9301,-1.8762,-1.8476,-1.8117,-1.7563,-1.6906,-1.6517,-1.6517,-1.5949,-1.5379,-1.4826,-1.4064,-1.3496,-1.3244,-1.3214,-1.3358,-1.3601,-1.4065,-1.4519,-1.4903,-1.5365,-1.591,-1.6451,-1.5436,-1.5122,0.0,0.0,0.0,0.0,0.0,0.0,0.0,0.0,0.0,0.0,0.0,-0.5984,0.0,0.0,-1.088,-1.2621,-1.2524,-1.2152,-1.1839,-1.2054,-1.2113,-1.1697,-1.1623,-1.1937,-1.2817,-1.4001,-1.5197,-1.6414,-1.65,-1.65,-1.65,-1.65,-1.65,-1.65,-1.65,-1.65,-1.65,-1.65,-1.65,-1.65,-1.65,-1.65,-1.65,-1.65,-1.65,-1.65,-1.65,-1.65,-1.65,-1.65,-1.65,-1.65,-1.65,-1.65,-1.65,-1.65,-1.65,-1.65,-1.65,-1.65,-1.6565,-1.6942,-1.6795,-1.6586,-1.6942,-1.7229,-1.7558,-1.7973,-1.8288,-1.8568,-1.8836,-1.8893,-1.8968,-1.9258,-1.9314,-1.9369,-1.9654,-1.9708,-1.9708,-1.9708,-1.9708,-1.9708,-1.9708,-1.9708,-1.9708,-1.9708,-1.9708,-1.9588,-1.9241,-1.8912,-1.8565,-1.8237,-1.7593,-1.7055,-1.6711,-1.6159,-1.5529,-1.4856,-1.4483,-1.4154,-1.3812,-1.3812,-1.3933,-1.4196,-1.4742,-1.5137,-1.5404,-1.5932,-1.6384,-1.6757,-1.6384,-1.6376,0.0,0.0,0.0,0.0,0.0,0.0,0.0,0.0,-0.838,-0.8103,-0.6847,-0.6669,-0.9485,-1.0022,-1.0653,-1.2584,-1.2915,-1.2661,-1.1959,-1.2465,-1.2754,-1.2379,-1.2054,-1.2135,-1.2837,-1.2915,-1.3716,-1.5644,-1.6216,-1.65,-1.65,-1.65,-1.65,-1.65,-1.65,-1.65,-1.65,-1.65,-1.65,-1.65,-1.65,-1.65,-1.65,-1.65,-1.65,-1.65,-1.65,-1.65,-1.65,-1.65,-1.65,-1.65,-1.65,-1.65,-1.65,-1.65,-1.65,-1.65,-1.65,-1.65,-1.65,-1.65,-1.65,-1.65,-1.65,-1.6921,-1.7517,-1.8033,-1.8052,-1.8033,-1.8463,-1.8347,-1.823,-1.8779,-1.8893,-1.9043,-1.957,-1.9708,-1.9708,-1.9708,-1.9708,-1.9708,-1.9708,-1.9708,-1.9708,-1.9708,-1.9708,-1.9708,-1.9708,-1.9211,-1.8882,-1.8882,-1.8296,-1.7563,-1.6771,-1.6248,-1.5694,-1.5035,-1.5005,-1.4766,-1.4214,-1.4184,-1.43,-1.451,-1.5147,-1.5593,-1.5832,-1.6492,-1.6882,-1.6997,-1.6997,-1.7292,-0.5574,-0.7361,-0.9662,-1.1962,-1.134,-1.0058,0.0,0.0,-1.0797,-0.9552,-0.8394,-0.7876,-0.8799,-0.895,-0.9834,-1.2467,-1.2915,-1.2876,-1.2778,-1.2837,-1.2895,-1.2837,-1.2798,-1.2798,-1.2895,-1.2915,-1.3017,-1.3262,-1.5287,-1.65,-1.65,-1.65,-1.65,-1.65,-1.65,-1.65,-1.65,-1.65,-1.65,-1.65,-1.65,-1.65,-1.65,-1.65,-1.65,-1.65,-1.65,-1.65,-1.65,-1.65,-1.65,-1.65,-1.65,-1.65,-1.65,-1.65,-1.65,-1.65,-1.65,-1.65,-1.65,-1.65,-1.65,-1.65,-1.65,-1.6565,-1.6625,-1.671,-1.7042,-1.7415,-1.7476,-1.7773,-1.823,-1.8779,-1.8893,-1.9043,-1.957,-1.9708,-1.9708,-1.9708,-1.9708,-1.9708,-1.9708,-1.9708,-1.9708,-1.9708,-1.9708,-1.9708,-1.9708,-1.9648,-1.9588,-1.9588,-1.9001,-1.8087,-1.6801,-1.6637,-1.6353,-1.5739,-1.5679,-1.5649,-1.5589,-1.5589,-1.5603,-1.5601,-1.5982,-1.619,-1.6231,-1.6599,-1.7125,-1.7704,-1.7704,-1.7745,-0.7625,-0.8973,0.0,0.0,-1.1903,-1.1019,-1.0766,-1.1024,-1.1114,-1.0395,-0.9279,-0.8485,-0.8764,-1.0105,-1.1551,0.0,-1.2915,-1.2915,-1.2915,-1.2915,-1.2915,-1.2915,-1.2915,-1.2915,-1.2915,-1.2915,-1.3186,-1.3884,-1.4235,-1.5017,-1.6436,-1.65,-1.65,-1.65,-1.65,-1.65,-1.65,-1.65,-1.65,-1.65,-1.65,-1.65,-1.65,-1.65,-1.6851,-1.7501,-1.7501,-1.7501,-1.7476,-1.7149,-1.72,-1.7476,-1.7149,-1.7024,-1.6974,-1.6647,-1.65,-1.65,-1.65,-1.65,-1.65,-1.65,-1.65,-1.65,-1.65,-1.65,-1.6586,-1.6879,-1.69,-1.6921,-1.7209,-1.7229,-1.7394,-1.823,-1.8424,-1.8684,-1.9515,-1.9708,-1.9708,-1.9708,-1.9708,-1.9708,-1.9708,-1.9708,-1.9708,-1.9708,-1.9708,-1.9708,-1.9708,-1.9708,-1.9708,-1.9708,-1.9091,-1.8476,-1.7908,-1.7503,-1.7011,-1.6353,-1.6323,-1.6159,-1.5799,-1.5799,-1.5799,-1.5799,-1.5942,-1.6026,-1.6026,-1.6506,-1.6901,-1.7178,-1.7577,-1.793,-0.9303,0.0,0.0,-1.2226,-1.2513,-1.2281,-1.1704,-1.1468,-1.1325,-1.1045,-1.0218,-0.9394,-0.8883,-1.0438,0.0,-1.2774,-1.2915,-1.2915,-1.2915,-1.2915,-1.2915,-1.2915,-1.2915,-1.2915,-1.2915,-1.2915,-1.3262,-1.4142,-1.3621,-1.4048,-1.591,-1.6151,-1.6324,-1.65,-1.65,-1.65,-1.65,-1.6801,-1.6801,-1.65,-1.6801,-1.6951,-1.6951,-1.6951,-1.7476,-1.8355,-1.8355,-1.8279,-1.8179,-1.7777,-1.7852,-1.8154,-1.7777,-1.7601,-1.7551,-1.7149,-1.6776,-1.65,-1.65,-1.65,-1.65,-1.65,-1.65,-1.65,-1.65,-1.65,-1.6586,-1.6985,-1.6795,-1.6607,-1.6985,-1.6795,-1.6731,-1.7653,-1.7874,-1.8171,-1.9258,-1.9479,-1.9515,-1.9672,-1.9708,-1.9708,-1.9708,-1.9708,-1.9708,-1.9708,-1.9708,-1.9708,-1.9708,-1.9708,-1.9708,-1.9708,-1.9288,-1.8912,-1.8732,-1.8237,-1.7699,-1.7025,-1.6995,-1.6772,-1.6353,-1.6323,-1.6323,-1.6323,-1.6323,-1.6323,-1.6323,-1.6772,-1.7085,-1.7264,-1.7758,-1.8326,0.0,0.0,-1.0743,-1.2619,-1.3603,-1.3923,-1.3125,-1.2536,-1.2025,-1.157,-1.1459,-1.088,-0.9133,-0.8857,-0.9795,-1.248,-1.2915,-1.2915,-1.2915,-1.2915,-1.2915,-1.2915,-1.2915,-1.2915,0.0,-1.2915,-1.2939,-1.2944,-1.3647,-1.426,-1.4721,-1.531,-1.5908,-1.6479,-1.65,-1.65,-1.65,-1.7601,-1.7578,-1.65,-1.7626,-1.8154,-1.8154,-1.8154,-1.8355,-1.8681,-1.8681,-1.8505,-1.8204,-1.8179,-1.8179,-1.8204,-1.8179,-1.8179,-1.8179,-1.8154,-1.7428,-1.65,-1.65,-1.65,-1.65,-1.65,-1.65,-1.65,-1.65,-1.65,-1.65,-1.6522,-1.6522,-1.65,-1.6522,-1.6522,-1.6625,-1.7188,-1.7333,-1.7639,-1.8703,-1.893,-1.908,-1.9617,-1.9708,-1.9708,-1.9708,-1.9708,-1.9708,-1.9708,-1.9708,-1.9708,-1.9708,-1.9708,-1.9708,-1.9708,-1.9678,-1.939,-1.8762,-1.8702,-1.8386,-1.7712,-1.7652,-1.7652,-1.7639,-1.7639,-1.7639,-1.7639,-1.7639,-1.7639,-1.7639,-1.7652,-1.7997,-1.8642,-1.8672,-1.9031,0.0,0.0,-1.2483,-1.3883,-1.3795,-1.3431,-1.3499,-1.3088,-1.2436,-1.1665,-1.1258,-1.0576,-0.908,-0.9343,-1.049,-1.2556,-1.2915,-1.2915,-1.2915,-1.2915,-1.2915,-1.2915,-1.2915,0.0,0.0,0.0,0.0,-1.3457,-1.3382,-1.3884,-1.5242,-1.5107,-1.5466,-1.6479,-1.6898,-1.7099,-1.7099,-1.7827,-1.8003,-1.7652,-1.8254,-1.853,-1.8555,-1.9032,-1.9334,-1.9434,-1.9434,-1.9384,-1.9233,-1.8882,-1.8933,-1.9233,-1.8857,-1.8732,-1.8732,-1.8732,-1.8255,-1.7652,-1.7652,-1.7652,-1.7576,-1.72,-1.7099,-1.7024,-1.66,-1.65,-1.65,-1.65,-1.65,-1.65,-1.65,-1.65,-1.6625,-1.7167,-1.7578,-1.8013,-1.876,-1.9173,-1.9479,-1.9672,-1.9708,-1.9708,-1.9708,-1.9708,-1.9708,-1.9708,-1.9708,-1.9708,-1.9708,-1.9708,-1.9708,-1.9708,-1.9708,-1.9618,-1.9361,-1.9361,-1.9061,-1.8403,-1.8356,-1.8147,-1.7728,-1.7699,-1.7699,-1.7699,-1.7699,-1.7699,-1.7699,-1.8147,-1.8493,-1.8702,-1.9151,-1.948,0.0,-1.3325,-1.3314,-1.4218,-1.3691,-1.3062,-1.3396,-1.2902,-1.2296,-1.2036,-1.1225,-1.0035,-0.8448,-0.8343,-0.9149,-1.112,-1.1825,-1.2338,-1.2822,-1.2915,-1.2915,-1.2915,-1.2915,0.0,0.0,0.0,0.0,-1.3433,-1.3138,-1.3621,-1.5174,-1.4832,-1.5291,-1.6779,-1.7124,-1.7421,-1.7677,-1.8229,-1.8581,-1.8781,-1.8807,-1.8932,-1.9108,-1.9585,-1.9811,-1.9811,-1.9811,-1.9811,-1.9786,-1.9434,-1.951,-1.9761,-1.9409,-1.9284,-1.9284,-1.9284,-1.9083,-1.8731,-1.8329,-1.8204,-1.8154,-1.7802,-1.7677,-1.7601,-1.725,-1.7124,-1.7074,-1.6873,-1.6823,-1.6773,-1.655,-1.65,-1.6607,-1.6942,-1.7271,-1.7713,-1.8444,-1.8874,-1.9258,-1.9636,-1.9708,-1.9708,-1.9708,-1.9708,-1.9708,-1.9708,-1.9708,-1.9708,-1.9708,-1.9708,-1.9708,-1.9708,-1.9708,-1.9708,-1.9708,-1.9708,-1.9528,-1.9091,-1.9061,-1.8852,-1.8416,-1.8416,-1.8416,-1.8416,-1.8416,-1.8416,-1.8433,-1.8852,-1.9061,-1.9061,-1.9498,-1.9708,-1.3781,-1.3606,-1.3252,-1.3681,-1.3358,-1.2895,-1.2827,-1.2077,-1.1635,-1.257,-1.1235,-0.9288,0.0,0.0,-0.6124,-0.835,-0.9813,-1.1183,-1.2584,-1.2798,-1.2847,0.0,0.0,0.0,0.0,0.0,0.0,-1.2974,0.0,-1.3447,-1.4628,-1.4521,-1.5315,-1.7264,-1.7171,-1.7412,-1.811,-1.8684,-1.9233,-1.9734,-1.9284,-1.9309,-1.9811,-1.9811,-1.9811,-1.9811,-1.9811,-1.9811,-1.9811,-1.9811,-1.9811,-1.9811,-1.9811,-1.9811,-1.9811,-1.9811,-1.9811,-1.966,-1.8631,-1.8279,-1.8279,-1.8254,-1.8254,-1.8229,-1.8204,-1.8204,-1.8103,-1.7576,-1.7423,-1.7272,-1.6676,-1.6525,-1.65,-1.65,-1.6522,-1.6816,-1.7834,-1.8092,-1.8424,-1.9424,-1.9654,-1.9672,-1.9708,-1.9708,-1.9708,-1.9708,-1.9708,-1.9708,-1.9708,-1.9708,-1.9708,-1.9708,-1.9708,-1.9708,-1.9708,-1.9708,-1.9708,-1.9708,-1.9708,-1.9708,-1.9708,-1.9708,-1.9708,-1.9708,-1.9708,-1.9708,-1.9708,-1.9708,-1.9708,-1.9708,-1.9708,-1.9708,-1.442,-1.4111,-1.3643,-1.3755,-1.3358,-1.2696,-1.195,-1.144,-1.1022,-1.0724,-0.9685,-0.7893,-0.4927,0.0,0.0,-0.7353,-0.8511,0.0,-1.1158,-1.1633,0.0,0.0,0.0,-1.334,-1.334,-1.3633,0.0,0.0,-1.3535,-1.3671,-1.4443,-1.4759,-1.5368,-1.6322,-1.6675,-1.6974,-1.7154,-1.8237,-1.8859,-1.898,-1.9403,-1.9685,-1.9811,-1.9811,-1.9811,-1.9811,-1.9811,-1.9811,-1.9811,-1.9811,-1.9811,-1.9811,-1.9811,-1.9811,-1.9811,-1.9811,-1.9811,-1.9761,-1.9484,-1.9384,-1.9334,-1.8933,-1.8807,-1.8707,-1.8329,-1.8204,-1.8179,-1.8028,-1.7702,-1.7373,-1.72,-1.6848,-1.65,-1.65,-1.6816,-1.7167,-1.7456,-1.8131,-1.8664,-1.8521,-1.8836,-1.924,-1.9636,-1.9708,-1.9708,-1.9708,-1.9708,-1.9708,-1.9708,-1.9708,-1.9708,-1.9708,-1.9708,-1.9708,-1.9708,-1.9708,-1.9708,-1.9708,-1.9708,-1.9708,-1.9708,-1.9708,-1.9708,-1.9708,-1.9708,-1.9708,-1.9708,-1.9708,-1.9708,-1.9708,-1.9708,-1.9708,-1.4292,-1.4087,-1.3721,-1.3457,-1.2905,-1.2218,-1.1412,-1.0543,-0.967,-0.8872,-0.7814,0.0,-0.4283,0.0,0.0,0.0,0.0,0.0,-1.0545,-1.1015,-1.1679,0.0,-1.3359,0.0,-1.3743,-1.3977,-1.4114,0.0,-1.3899,-1.4029,-1.4674,-1.487,-1.5389,-1.6336,-1.6562,-1.6987,-1.7634,-1.836,-1.8847,-1.9188,-1.9605,-1.9811,-1.9811,-1.9811,-1.9811,-1.9811,0.0,-1.9811,-1.9811,-1.9811,-1.9811,-1.9811,-1.9811,-1.9811,-1.9811,-1.9811,-1.9811,-1.9811,-1.9811,-1.9811,-1.9761,-1.9434,-1.9334,-1.9284,-1.9007,-1.8907,-1.8857,-1.8631,-1.8331,-1.8053,-1.7802,-1.7325,-1.6898,-1.6898,-1.6909,-1.7001,-1.725,-1.7753,-1.8171,-1.8112,-1.8521,-1.9006,-1.9314,-1.9533,-1.9708,-1.9708,-1.9708,-1.9708,-1.9708,-1.9708,-1.9708,-1.9708,-1.9708,-1.9708,-1.9708,-1.9708,-1.9708,-1.9708,-1.9708,-1.9708,-1.9708,-1.9708,-1.9708,-1.9708,-1.9708,-1.9708,-1.9708,-1.9708,-1.9708,-1.9708,-1.9708,-1.9708,-1.385,-1.3745,-1.3552,-1.3041,-1.2288,-1.1526,-1.0881,-0.948,-0.808,-0.7137,0.0,-0.5012,-0.4462,0.0,-0.5668,-0.6767,0.0,-0.8272,-1.049,-1.0788,-1.1472,-1.3285,-1.3555,-1.3724,-1.4153,-1.425,-1.427,-1.427,-1.427,-1.4493,-1.5017,-1.4932,-1.5401,-1.6579,-1.6441,-1.6968,-1.8236,-1.8367,-1.8741,-1.9371,-1.9553,-1.9631,-1.9657,-1.9759,-1.9811,-1.9811,0.0,0.0,-1.9811,-1.9811,-1.9811,-1.9811,-1.9811,-1.9811,-1.9811,-1.9811,-1.9811,-1.9811,-1.9811,-1.9811,-1.9811,-1.9811,-1.9811,-1.9811,-1.9811,-1.9811,-1.971,-1.9233,-1.9058,-1.8882,-1.843,-1.7903,-1.7524,-1.7524,-1.7049,-1.6751,-1.7214,-1.724,-1.7374,-1.7973,-1.8405,-1.8722,-1.8779,-1.9173,-1.9497,-1.957,-1.9599,-1.9636,-1.969,-1.9708,-1.9708,-1.9708,-1.9708,-1.9708,-1.9708,-1.9708,-1.9708,-1.9708,-1.9708,-1.9708,-1.9708,-1.9708,-1.9708,-1.9708,-1.9708,-1.9708,-1.9708,-1.9708,-1.9708,-1.9708,-1.9708,-1.9708,-1.4005,-1.3552,-1.3041,-1.292,-1.1958,-1.0743,-0.9603,-0.8355,0.0,0.0,0.0,-0.4476,-0.4196,-0.477,0.0,-0.6506,0.0,0.0,0.0,0.0,-1.1472,0.0,0.0,0.0,0.0,0.0,0.0,0.0,0.0,-1.5096,-1.4854,-1.5135,-1.5408,-1.5638,-1.5603,-1.5709,-1.5968,-1.6595,-1.6961,-1.7079,-1.8313,-1.8874,-1.89,-1.9527,-1.9811,-1.9811,-1.9811,0.0,-1.9811,-1.9811,-1.9811,-1.9811,-1.9811,-1.9811,-1.9811,-1.9811,-1.9811,-1.9811,-1.9811,-1.9811,-1.9811,-1.9811,-1.9811,-1.9811,-1.9811,-1.9811,-1.9786,-1.9685,-1.9334,-1.8983,-1.8882,-1.8456,-1.8053,-1.8053,-1.7626,-1.7269,-1.7359,-1.7001,-1.6942,-1.7894,-1.7814,-1.7713,-1.8151,-1.8308,-1.8521,-1.8968,-1.9043,-1.9192,-1.9654,-1.9708,-1.9708,-1.9708,-1.9708,-1.9708,-1.9708,-1.9708,-1.9708,-1.9708,-1.9708,-1.9708,-1.9708,-1.9708,-1.9708,-1.9708,-1.9708,-1.9708,-1.9708,-1.9708,-1.9708,-1.9708,-1.9708,-1.9708,-1.3372,-1.319,-1.2774,-1.2289,-1.1525,-1.0475,-0.8893,0.0,0.0,0.0,0.0,-0.4114,-0.3836,0.0,0.0,0.0,0.0,0.0,0.0,0.0,0.0,0.0,0.0,0.0,0.0,0.0,0.0,0.0,0.0,-1.5332,-1.5117,-1.5312,-1.541,-1.541,-1.541,-1.5584,-1.5989,-1.6312,-1.668,-1.7079,-1.7797,-1.8124,-1.8151,-1.8501,-1.9059,-1.9785,-1.9397,0.0,-1.9811,-1.9811,-1.9811,-1.9811,-1.9811,-1.9811,-1.9811,-1.9811,-1.9811,-1.9811,-1.9811,-1.9811,-1.9811,-1.9811,-1.9811,-1.9811,-1.9811,-1.9811,-1.9811,-1.9811,-1.961,-1.9409,-1.9409,-1.9008,-1.8607,-1.8607,-1.8204,-1.7727,-1.7473,-1.7174,-1.7026,-1.7246,-1.7291,-1.7394,-1.7659,-1.7913,-1.819,-1.8424,-1.8463,-1.8684,-1.9221,-1.9295,-1.9387,-1.9672,-1.9708,-1.9708,-1.9708,-1.9708,-1.9708,-1.9708,-1.9708,-1.9708,-1.9708,-1.9708,-1.9708,-1.9708,-1.9708,-1.9708,-1.9708,-1.9708,-1.9708,-1.9708,-1.9708,-1.9708,-1.2464,-1.2603,-1.2412,-1.1559,-1.0771,-0.9742,-0.8029,-0.6796,0.0,0.0,-0.4087,-0.3832,-0.3636,0.0,0.0,0.0,0.0,0.0,0.0,0.0,0.0,0.0,0.0,0.0,0.0,0.0,0.0,0.0,0.0,0.0,-1.541,-1.541,-1.541,-1.541,-1.541,-1.57,-1.6255,-1.6255,-1.6567,-1.7135,-1.7302,-1.7357,-1.7357,-1.7523,-1.8232,-1.9319,-1.8874,0.0,0.0,-1.9708,-1.9811,-1.9811,-1.9811,-1.9811,-1.9811,-1.9811,-1.9811,-1.9811,-1.9811,-1.9811,-1.9811,-1.9811,-1.9811,-1.9811,-1.9811,-1.9811,-1.9811,-1.9811,-1.9811,-1.9811,-1.9811,-1.951,-1.9133,-1.9033,-1.8682,-1.8229,-1.7677,-1.7498,-1.7272,-1.6776,-1.6914,-1.7126,-1.7126,-1.7497,-1.7794,-1.7894,-1.7913,-1.8151,-1.8817,-1.8893,-1.9099,-1.9654,-1.9708,-1.9708,-1.9708,-1.9708,-1.9708,-1.9708,-1.9708,-1.9708,-1.9708,-1.9708,-1.9708,-1.9708,-1.9708,-1.9708,-1.9708,-1.9708,-1.9708,-1.9708,-1.9708,-1.9708,-1.1428,-1.1633,-1.1509,-1.099,-0.9356,-0.7582,-0.6375,0.0,0.0,-0.422,-0.3781,-0.3636,-0.3911,-0.4019,0.0,0.0,0.0,0.0,0.0,0.0,0.0,0.0,0.0,0.0,0.0,0.0,0.0,0.0,0.0,0.0,-1.541,-1.541,-1.541,-1.541,-1.541,-1.5439,-1.5497,-1.5497,-1.5555,-1.5613,-1.6283,-1.6595,-1.6624,-1.7302,-1.766,-1.7852,-1.8447,0.0,0.0,-1.9527,-1.9811,-1.9811,-1.9811,-1.9811,-1.9811,-1.9811,-1.9811,-1.9811,-1.9811,-1.9811,-1.9811,-1.9811,-1.9811,-1.9811,-1.9811,-1.9811,-1.9811,-1.9811,-1.9811,-1.9811,-1.9811,-1.9761,-1.961,-1.9108,-1.8958,-1.8782,-1.8254,-1.7727,-1.7398,-1.7348,-1.6917,-1.6586,-1.6586,-1.6629,-1.6816,-1.7312,-1.7374,-1.7733,-1.8779,-1.8893,-1.9099,-1.9654,-1.9708,-1.9708,-1.9708,-1.9708,-1.9708,-1.9708,-1.9708,-1.9708,-1.9708,-1.9708,-1.9708,-1.9708,-1.9708,-1.9708,-1.9708,-1.9708,-1.9708,-1.9708,-1.9708,-1.9708,-1.054,-1.0728,-1.055,-0.9795,-0.8606,-0.7375,-0.6512,0.0,-0.4993,-0.3917,-0.3593,-0.3492,-0.3464,-0.3755,-0.4207,-0.4823,-0.517,-0.6045,0.0,0.0,0.0,0.0,0.0,0.0,0.0,0.0,0.0,0.0,0.0,0.0,-1.541,-1.541,-1.541,-1.541,-1.541,-1.541,-1.541,-1.541,-1.541,-1.541,-1.57,-1.5845,-1.5874,-1.614,-1.6539,-1.694,-1.7246,0.0,0.0,-1.8821,-1.9137,-1.9164,-1.9631,-1.9811,-1.9811,-1.9811,-1.9811,-1.9811,-1.9811,-1.9811,-1.9811,-1.9811,-1.9811,-1.9811,-1.9811,-1.9811,-1.9811,-1.9811,-1.9811,-1.9811,-1.9811,-1.9811,-1.9761,-1.9535,-1.9484,-1.9334,-1.8782,-1.8506,-1.8179,-1.7549,-1.7222,-1.6923,-1.655,-1.65,-1.6586,-1.6795,-1.6816,-1.7084,-1.7834,-1.821,-1.8626,-1.9155,-1.9497,-1.9708,-1.9708,-1.9708,-1.9708,-1.9708,-1.9708,-1.9708,-1.9708,-1.9708,-1.9708,-1.9708,-1.9708,-1.9708,-1.9708,-1.9708,-1.9708,-1.9708,-1.9708,-1.9708,-0.9569,-0.9748,-0.9493,-0.8852,-0.8123,-0.7348,0.0,0.0,-0.4714,-0.3621,-0.3319,-0.3228,-0.3121,-0.3443,-0.3872,-0.4329,-0.4621,-0.5387,-0.7078,0.0,0.0,0.0,0.0,0.0,0.0,0.0,0.0,0.0,0.0,0.0,0.0,-1.541,-1.541,-1.541,-1.541,-1.541,-1.541,-1.541,-1.541,-1.541,-1.541,-1.541,-1.541,-1.541,-1.57,-1.6169,0.0,0.0,0.0,-1.807,-1.8501,-1.8741,-1.9293,-1.9605,-1.9811,-1.9811,-1.9811,-1.9811,-1.9811,-1.9811,-1.9811,-1.9811,-1.9811,-1.9811,-1.9811,-1.9811,-1.9811,-1.9811,-1.9811,-1.9811,-1.9811,-1.9811,-1.9811,-1.9811,-1.9811,-1.971,-1.9309,-1.9108,-1.8732,-1.7802,-1.7524,-1.72,-1.66,-1.65,-1.65,-1.65,-1.65,-1.6689,-1.7229,-1.7639,-1.8131,-1.8836,-1.9258,-1.9515,-1.969,-1.9708,-1.9708,-1.9708,-1.9708,-1.9708,-1.9708,-1.9708,-1.9708,-1.9708,-1.9708,-1.9708,-1.9708,-1.9708,-1.9708,-1.9708,-1.9708,-1.9708,-0.849,-0.867,-0.8402,-0.8402,-0.7946,-0.7182,0.0,-0.503,-0.4168,-0.3287,-0.2896,-0.2789,-0.3046,-0.31,-0.339,-0.425,-0.4621,-0.5455,-0.7326,0.0,0.0,0.0,0.0,0.0,0.0,0.0,0.0,0.0,0.0,0.0,0.0,-1.541,-1.541,-1.541,-1.541,-1.541,-1.541,-1.541,-1.541,-1.541,-1.541,-1.541,-1.541,-1.541,-1.541,0.0,0.0,0.0,0.0,-1.7302,-1.8043,-1.8688,-1.8715,-1.9162,-1.9811,-1.9811,-1.9811,-1.9811,-1.9811,-1.9811,-1.9811,-1.9811,-1.9811,-1.9811,-1.9811,-1.9811,-1.9811,-1.9811,-1.9811,-1.9811,-1.9811,-1.9811,-1.9811,-1.9811,-1.9811,-1.9811,-1.9786,-1.9359,-1.8832,-1.8304,-1.7752,-1.72,-1.66,-1.65,-1.65,-1.65,-1.65,-1.6689,-1.7229,-1.7312,-1.7713,-1.8798,-1.8893,-1.9118,-1.9654,-1.9708,-1.9708,-1.9708,-1.9708,-1.9708,-1.9708,-1.9708,-1.9708,-1.9708,-1.9708,-1.9708,-1.9708,-1.9708,-1.9708,-1.9708,-1.9708,-1.9708,-0.6848,-0.6983,-0.6838,-0.6604,-0.6412,-0.6022,-0.5042,-0.4598,-0.4101,-0.3039,-0.2767,-0.2724,-0.281,-0.2971,-0.3511,-0.4807,-0.5092,0.0,0.0,0.0,0.0,0.0,0.0,0.0,0.0,0.0,0.0,0.0,0.0,0.0,0.0,-1.541,-1.541,-1.541,-1.541,-1.541,-1.541,-1.541,-1.541,-1.541,-1.541,-1.541,-1.541,-1.541,0.0,0.0,0.0,0.0,0.0,-1.6539,-1.7274,-1.8015,-1.8501,-1.9137,-1.9811,-1.9811,-1.9811,-1.9811,-1.9811,-1.9811,-1.9811,-1.9811,-1.9811,-1.9811,-1.9811,-1.9811,-1.9811,-1.9811,-1.9811,-1.9811,-1.9811,-1.9811,-1.9811,-1.9811,-1.9811,-1.9811,-1.9811,-1.9685,-1.9284,-1.838,-1.8053,-1.7626,-1.6651,-1.65,-1.65,-1.65,-1.65,-1.6565,-1.6731,-1.7063,-1.7578,-1.8269,-1.8684,-1.9118,-1.9654,-1.9708,-1.9708,-1.9708,-1.9708,-1.9708,-1.9708,-1.9708,-1.9708,-1.9708,-1.9708,-1.9708,-1.9708,-1.9708,-1.9708,-1.9708,-1.9708,-1.9708,0.0,-0.5608,-0.5676,-0.5578,-0.5466,-0.5193,-0.4545,-0.4142,-0.3677,-0.2872,-0.2529,-0.2422,-0.2659,-0.2918,-0.3513,-0.4752,-0.5146,0.0,0.0,0.0,0.0,0.0,0.0,0.0,0.0,0.0,0.0,0.0,0.0,0.0,0.0,-1.541,-1.541,-1.541,-1.541,-1.541,-1.541,-1.541,-1.541,-1.541,-1.541,-1.541,-1.541,-1.541,0.0,0.0,0.0,0.0,0.0,-1.5902,-1.6659,-1.766,-1.8124,-1.89,-1.9811,-1.9811,-1.9811,-1.9811,-1.9811,-1.9811,-1.9811,-1.9811,-1.9811,-1.9811,-1.9811,-1.9811,-1.9811,-1.9811,-1.9811,-1.9811,-1.9811,-1.9811,-1.9811,-1.9811,-1.9811,-1.9811,-1.9811,-1.9811,-1.9535,-1.8657,-1.8355,-1.7903,-1.6999,-1.6651,-1.65,-1.65,-1.65,-1.65,-1.65,-1.6795,-1.7271,-1.8013,-1.8386,-1.8893,-1.9654,-1.9708,-1.9708,-1.9708,-1.9708,-1.9708,-1.9708,-1.9708,-1.9708,-1.9708,-1.9708,-1.9708,-1.9708,-1.9708,-1.9708,-1.9708,-1.9708,-1.9708,0.0,-0.447,-0.4802,-0.5026,-0.4877,-0.4615,-0.4342,-0.368,0.0,-0.2754,-0.2237,-0.2015,-0.2644,-0.2955,-0.3446,-0.4395,0.0,0.0,0.0,0.0,0.0,0.0,0.0,0.0,0.0,0.0,0.0,0.0,0.0,0.0,0.0,-1.541,-1.541,-1.541,-1.541,-1.541,-1.541,-1.541,-1.541,-1.541,-1.541,-1.541,-1.541,-1.541,0.0,0.0,0.0,0.0,0.0,-1.541,-1.6283,-1.7605,-1.7605,-1.8501,-1.9811,-1.9811,-1.9785,-1.9708,-1.976,-1.9708,-1.9631,-1.9683,-1.9759,-1.9811,-1.9811,-1.9811,-1.9811,-1.9811,-1.9811,-1.9811,-1.9811,-1.9811,-1.9811,-1.9811,-1.9811,-1.9811,-1.9811,-1.9811,-1.9635,-1.9108,-1.8581,-1.8078,-1.7549,-1.6974,-1.655,-1.655,-1.6525,-1.65,-1.65,-1.65,-1.69,-1.7913,-1.8072,-1.8502,-1.9551,-1.969,-1.9708,-1.9708,-1.9708,-1.9708,-1.9708,-1.9708,-1.9708,-1.9708,-1.9708,-1.9708,-1.9708,-1.9708,-1.9708,-1.9708,-1.9708,-1.9708,-0.2359,0.0,-0.3166,-0.2983,-0.3175,-0.3374,0.0,-0.3254,-0.3276,-0.2798,0.0,-0.2356,-0.3169,-0.3362,-0.3983,0.0,0.0,0.0,0.0,0.0,0.0,0.0,0.0,0.0,0.0,0.0,0.0,0.0,0.0,0.0,0.0,-1.541,-1.541,-1.541,-1.541,-1.541,-1.541,-1.541,-1.541,-1.541,-1.541,-1.541,-1.541,-1.541,0.0,0.0,0.0,0.0,-1.541,-1.541,-1.6283,-1.7605,-1.7605,-1.8501,-1.9811,-1.9811,-1.9449,-1.9032,-1.9605,-1.9059,-1.8205,-1.8768,-1.9345,-1.9811,-1.9811,-1.9811,-1.9811,-1.9811,-1.9811,-1.9811,-1.9811,-1.9811,-1.9811,-1.9811,-1.9811,-1.9811,-1.9811,-1.9811,-1.9635,-1.9108,-1.8907,-1.8632,-1.8103,-1.7551,-1.7197,-1.7197,-1.6798,-1.65,-1.65,-1.65,-1.6752,-1.7435,-1.7854,-1.8366,-1.9024,-1.946,-1.9708,-1.9708,-1.9708,-1.9708,-1.9708,-1.9708,-1.9708,-1.9708,-1.9708,-1.9708,-1.9708,-1.9708,-1.9708,-1.9708,-1.9708,-1.9708,-0.1806,-0.2036,-0.2281,-0.2286,-0.2371,-0.2562,-0.2964,-0.3301,0.0,0.0,0.0,-0.2247,-0.2993,0.0,0.0,0.0,0.0,0.0,0.0,0.0,0.0,0.0,0.0,0.0,0.0,0.0,0.0,0.0,0.0,0.0,0.0,-1.541,-1.541,-1.541,-1.541,-1.541,-1.541,-1.541,-1.541,-1.541,-1.541,-1.541,-1.541,-1.541,-1.541,0.0,0.0,0.0,-1.541,-1.541,-1.6083,-1.7079,-1.7079,-1.7797,-1.8794,-1.8794,-1.8528,-1.8259,-1.8661,-1.8286,-1.7715,-1.8474,-1.8741,-1.8927,-1.9579,-1.9553,-1.9371,-1.9683,-1.9811,-1.9811,-1.9811,-1.9811,-1.9811,-1.9811,-1.9811,-1.9811,-1.9811,-1.9811,-1.971,-1.9409,-1.9158,-1.8907,-1.8607,-1.8129,-1.7677,-1.7448,-1.7124,-1.6823,-1.6525,-1.65,-1.671,-1.7229,-1.7799,-1.8262,-1.8491,-1.9247,-1.9712,-1.969,-1.9708,-1.9708,-1.9708,-1.9708,-1.9708,-1.9708,-1.9708,-1.9708,-1.9708,-1.9708,-1.9708,-1.9708,-1.9708,-1.9708,-0.2009,-0.2069,-0.2103,-0.2299,-0.2225,-0.2321,-0.3182,0.0,0.0,0.0,0.0,0.0,0.0,0.0,0.0,0.0,0.0,0.0,0.0,0.0,0.0,0.0,0.0,0.0,0.0,0.0,0.0,0.0,0.0,0.0,0.0,-1.541,-1.541,-1.541,-1.541,-1.541,-1.541,-1.541,-1.541,-1.541,-1.541,-1.541,-1.541,-1.541,-1.541,0.0,0.0,0.0,-1.541,-1.541,-1.5825,-1.6482,-1.6482,-1.694,-1.7605,-1.7605,-1.7523,-1.7413,-1.7302,-1.7413,-1.7688,-1.8205,-1.8015,-1.7825,-1.9085,-1.9111,-1.8821,-1.9449,-1.9708,-1.9811,-1.9811,-1.9811,-1.9811,-1.9811,-1.9811,-1.9811,-1.9811,-1.9811,-1.9811,-1.9811,-1.9434,-1.9133,-1.9133,-1.8682,-1.8179,-1.7702,-1.7551,-1.7325,-1.6826,-1.6751,-1.6921,-1.7392,-1.7986,-1.8302,-1.8242,-1.9151,-1.9717,-1.9712,-1.9707,-1.9708,-1.9708,-1.9708,-1.9708,-1.9708,-1.9708,-1.9708,-1.9708,-1.9708,-1.9708,-1.9708,-1.9708,-1.9708,-0.2984,-0.3244,-0.3059,-0.2262,-0.279,-0.338,-0.2922,0.0,0.0,0.0,0.0,0.0,0.0,0.0,0.0,0.0,0.0,0.0,0.0,0.0,0.0,0.0,0.0,0.0,0.0,0.0,0.0,0.0,0.0,0.0,0.0,0.0,-1.541,-1.541,-1.541,-1.541,-1.541,-1.541,-1.541,-1.541,-1.541,-1.541,-1.541,-1.541,-1.541,0.0,0.0,-1.541,-1.541,-1.541,-1.5825,-1.6482,-1.6482,-1.694,-1.7605,-1.7605,-1.7191,-1.6595,-1.594,-1.6546,-1.7523,-1.6996,-1.7191,-1.7633,-1.7879,-1.8286,-1.8715,-1.8847,-1.9319,-1.9811,-1.9811,-1.9811,-1.9811,-1.9811,-1.9811,-1.9811,-1.9811,-1.9811,-1.9811,-1.9811,-1.9736,-1.9685,-1.9685,-1.9233,-1.8857,-1.8757,-1.838,-1.8053,-1.7953,-1.7953,-1.7976,-1.8044,-1.8558,-1.885,-1.8861,-1.9423,-1.9771,-1.9773,-1.971,-1.9708,-1.9708,-1.9708,-1.9708,-1.9708,-1.9708,-1.9708,-1.9708,-1.9708,-1.9708,-1.9708,-1.9708,-1.9708,-0.2442,-0.3739,-0.467,-0.344,-0.3286,-0.3389,-0.3224,-0.3299,0.0,0.0,0.0,0.0,0.0,0.0,0.0,0.0,0.0,0.0,0.0,0.0,0.0,0.0,0.0,0.0,0.0,0.0,0.0,0.0,0.0,0.0,0.0,0.0,-1.541,-1.541,-1.541,-1.541,-1.541,-1.541,-1.541,-1.541,-1.541,-1.541,-1.541,-1.541,-1.541,-1.541,0.0,-1.541,-1.541,-1.541,-1.5613,-1.5931,-1.5931,-1.6112,-1.6404,-1.6404,-1.6197,-1.5874,-1.5526,-1.5825,-1.6404,-1.6482,-1.6454,-1.6546,-1.7357,-1.755,-1.7605,-1.7988,-1.8927,-1.9811,-1.9811,-1.9811,-1.9811,-1.9811,-1.9811,-1.9811,-1.9811,-1.9811,-1.9811,-1.9811,-1.9811,-1.9811,-1.9811,-1.961,-1.9334,-1.9033,-1.8782,-1.8531,-1.8254,-1.8204,-1.8204,-1.8204,-1.867,-1.8887,-1.8603,-1.9324,-1.9809,-1.9795,-2.0084,-2.007,-1.97,-2.0061,-2.0079,-1.9708,-1.9708,-1.9708,-1.9708,-1.9708,-1.9708,-1.9708,-1.9708,-1.9708,-0.2251,-0.3989,-0.5471,-0.4475,-0.3724,-0.327,-0.3472,-0.3582,0.0,0.0,0.0,0.0,0.0,0.0,0.0,0.0,0.0,0.0,0.0,0.0,0.0,0.0,0.0,0.0,0.0,0.0,0.0,0.0,0.0,0.0,0.0,0.0,-1.5118,-1.5118,-1.5294,-1.541,-1.541,-1.541,-1.541,-1.541,-1.541,-1.541,-1.541,-1.541,-1.541,-1.541,-1.541,-1.541,-1.541,-1.541,-1.541,-1.541,-1.541,-1.541,-1.541,-1.541,-1.541,-1.541,-1.541,-1.541,-1.5497,-1.6054,-1.5874,-1.5613,-1.6743,-1.68,-1.6624,-1.7191,-1.8286,-1.9319,-1.9501,-1.9657,-1.9811,-1.9811,-1.9811,-1.9811,-1.9811,-1.9811,-1.9811,-1.9811,-1.9811,-1.9811,-1.9811,-1.9811,-1.966,-1.9233,-1.9183,-1.9033,-1.8631,-1.8581,-1.8581,-1.8581,-1.8933,-1.9008,-1.8606,-1.9323,-1.9808,-1.9802,-2.0385,-2.0481,-1.9973,-2.044,-2.0468,-1.9929,-1.9798,-1.9798,-1.9929,-1.9929,-2.0019,-2.0187,-2.0187,-2.0187,-0.361,-0.4081,-0.4329,-0.4587,-0.4106,-0.3518,-0.3357,-0.356,0.0,-0.4188,0.0,0.0,0.0,0.0,0.0,0.0,0.0,0.0,0.0,0.0,0.0,0.0,0.0,0.0,0.0,0.0,0.0,0.0,0.0,0.0,0.0,0.0,0.0,-1.4302,-1.5011,-1.541,-1.541,-1.541,-1.541,-1.541,-1.541,-1.541,-1.541,-1.541,-1.541,-1.541,-1.541,-1.541,-1.541,-1.541,-1.541,-1.541,-1.541,-1.541,-1.541,-1.541,-1.541,-1.541,-1.541,-1.541,-1.541,-1.5468,-1.5439,-1.541,-1.5526,-1.5997,-1.651,-1.6567,-1.7135,-1.7934,-1.8608,-1.9293,-1.9811,-1.9811,-1.9811,-1.9811,-1.9811,-1.9811,-1.9811,-1.9811,-1.9811,-1.9811,-1.9811,-1.9811,-1.9786,-1.9761,-1.9736,-1.9736,-1.9685,-1.9685,-1.9685,-1.9685,-1.9736,-1.9736,-1.9685,-1.9762,-1.9787,-1.9813,-2.0365,-2.0674,-2.0645,-2.0676,-2.0688,-2.0628,-2.0019,-2.0019,-2.0628,-2.0628,-2.0946,-2.1545,-2.1545,-2.1545,-0.2999,-0.3483,-0.3686,-0.3499,-0.3649,0.0,0.0,-0.3536,-0.3974,-0.4314,-0.4671,0.0,0.0,0.0,0.0,0.0,0.0,0.0,0.0,0.0,0.0,0.0,0.0,0.0,0.0,0.0,0.0,0.0,0.0,0.0,0.0,0.0,0.0,-1.3463,-1.4243,-1.4658,-1.4658,-1.5147,-1.541,-1.541,-1.541,-1.541,-1.541,-1.541,-1.541,-1.541,-1.541,-1.541,-1.541,-1.541,-1.541,-1.541,-1.541,-1.541,-1.541,-1.541,-1.541,-1.541,-1.541,-1.541,-1.541,-1.541,-1.541,-1.541,-1.541,-1.5584,-1.5816,-1.5816,-1.634,-1.7191,-1.8394,-1.8581,-1.8661,-1.9579,-1.9449,-1.924,-1.9683,-1.9811,-1.9811,-1.9811,-1.9811,-1.9811,-1.9811,-1.9811,-1.9811,-1.9811,-1.9811,-1.9811,-1.9811,-1.9811,-1.9811,-1.9811,-1.9811,-1.9811,-1.9811,-1.9811,-1.9811,-1.9811,-2.0422,-2.0767,-2.0739,-2.1126,-2.1313,-2.1316,-2.1066,-2.1066,-2.1335,-2.1335,-2.1455,-2.1695,-2.1695,-2.1695,-0.249,-0.2917,-0.3208,-0.3007,0.0,0.0,-0.3587,-0.3666,-0.3945,-0.4402,0.0,0.0,0.0,0.0,0.0,0.0,0.0,0.0,0.0,0.0,0.0,0.0,0.0,0.0,0.0,0.0,0.0,0.0,0.0,0.0,0.0,0.0,0.0,0.0,-1.3403,-1.3944,-1.4213,-1.4746,-1.5147,-1.541,-1.541,-1.541,-1.541,-1.541,-1.541,-1.541,-1.541,-1.541,-1.541,-1.541,-1.541,-1.541,-1.541,-1.541,-1.541,-1.541,-1.541,-1.541,-1.541,-1.541,-1.541,-1.541,-1.541,-1.541,-1.541,-1.541,-1.541,-1.541,-1.5758,-1.6454,-1.7688,-1.7797,-1.7852,-1.8874,-1.89,-1.8847,-1.9345,-1.9631,-1.9811,-1.9811,-1.9811,-1.9811,-1.9811,-1.9811,-1.9811,-1.9811,-1.9811,-1.9811,-1.9811,-1.9811,-1.9811,-1.9811,-1.9811,-1.9811,-1.9811,-1.9811,-1.9811,-1.9811,-2.022,-2.066,-2.1061,-2.1484,-2.1807,-2.2024,-2.1814,-2.1784,-2.2014,-2.2014,-2.2113,-2.2293,-2.2293,-2.2293,-0.2398,-0.2542,-0.2826,0.0,0.0,0.0,-0.4372,-0.4022,-0.3767,-0.4375,0.0,0.0,0.0,0.0,0.0,0.0,0.0,0.0,0.0,0.0,0.0,0.0,0.0,0.0,0.0,0.0,0.0,0.0,0.0,0.0,0.0,0.0,0.0,0.0,-1.2581,-1.3373,-1.4183,-1.4183,-1.4599,-1.5381,-1.541,-1.541,-1.541,-1.541,-1.541,-1.541,-1.541,-1.541,-1.541,-1.541,-1.541,-1.541,-1.541,-1.541,-1.541,-1.541,-1.541,-1.541,-1.541,-1.541,-1.541,-1.541,-1.541,-1.541,-1.541,-1.541,-1.541,-1.541,-1.541,-1.5584,-1.6283,-1.7024,-1.7578,-1.7605,-1.8151,-1.8688,-1.8688,-1.9267,-1.9811,-1.9811,-1.9811,-1.9811,-1.9811,-1.9811,-1.9811,-1.9811,-1.9811,-1.9811,-1.9811,-1.9811,-1.9811,-1.9811,-1.9811,-1.9811,-1.9811,-1.9811,-1.9811,-1.9811,-1.9811,-2.037,-2.1639,-2.1682,-2.1989,-2.2682,-2.2054,-2.2024,-2.2703,-2.2703,-2.3032,-2.361,-2.361,-2.361,-0.2205,-0.2169,0.0,0.0,0.0,0.0,0.0,-0.4023,0.0,0.0,0.0,0.0,0.0,0.0,0.0,0.0,0.0,0.0,0.0,0.0,0.0,0.0,0.0,0.0,0.0,0.0,0.0,0.0,0.0,0.0,0.0,0.0,0.0,0.0,-1.1748,-1.2258,-1.2504,-1.3627,-1.4332,-1.4569,-1.5147,-1.541,-1.541,-1.541,-1.541,-1.541,-1.541,-1.541,-1.541,-1.541,-1.541,-1.541,-1.541,-1.541,-1.541,-1.541,-1.541,-1.541,-1.541,-1.541,-1.541,-1.541,-1.541,-1.541,-1.541,-1.541,-1.541,-1.541,-1.541,-1.5439,-1.5671,-1.5882,-1.6291,-1.7357,-1.7357,-1.7302,-1.7825,-1.8501,-1.9032,-1.9032,-1.9449,-1.9811,-1.9811,-1.9811,-1.9811,-1.9811,-1.9811,-1.9811,-1.9811,-1.9811,-1.9811,-1.9811,-1.9811,-1.9811,-1.9811,-1.9811,-1.9811,-1.9811,-1.9811,-2.0194,-2.1015,-2.1072,-2.1583,-2.268,-2.2505,-2.2724,-2.331,-2.331,-2.343,-2.361,-2.361,-2.361,-0.1999,0.0,0.0,0.0,0.0,0.0,0.0,0.0,0.0,0.0,0.0,0.0,0.0,0.0,0.0,0.0,0.0,0.0,0.0,0.0,0.0,0.0,0.0,0.0,0.0,0.0,0.0,0.0,0.0,0.0,0.0,0.0,0.0,0.0,-1.1076,-1.1469,-1.1795,-1.2749,-1.3567,-1.4213,-1.4688,-1.507,-1.541,-1.541,-1.541,-1.541,-1.541,-1.541,-1.541,-1.541,-1.541,-1.541,-1.541,-1.541,-1.541,-1.541,-1.541,-1.541,-1.541,-1.541,-1.541,-1.541,-1.541,-1.541,-1.541,-1.541,-1.541,-1.541,-1.541,-1.541,-1.541,-1.541,-1.5642,-1.6518,-1.6624,-1.6624,-1.7052,-1.7743,-1.8367,-1.8635,-1.9059,-1.9449,-1.9759,-1.9811,-1.9811,-1.9811,-1.9811,-1.9811,-1.9811,-1.9811,-1.9811,-1.9811,-1.9811,-1.9811,-1.9811,-1.9811,-1.9811,-1.9811,-1.9811,-1.9965,-2.0396,-2.0646,-2.1259,-2.2276,-2.23,-2.2483,-2.2868,-2.2868,-2.2868,-2.2868,-2.2868,-2.2868,-0.1947,0.0,0.0,0.0,0.0,0.0,0.0,0.0,0.0,0.0,0.0,0.0,0.0,0.0,0.0,0.0,0.0,0.0,0.0,0.0,0.0,0.0,0.0,0.0,0.0,0.0,0.0,0.0,0.0,0.0,0.0,0.0,0.0,0.0,-1.0573,-1.0951,-1.1686,-1.1764,-1.2535,0.0,-1.4064,-1.451,-1.5294,-1.5381,-1.541,-1.541,-1.541,-1.541,-1.541,-1.541,-1.541,-1.541,-1.541,-1.541,-1.541,-1.541,-1.541,-1.541,-1.541,-1.541,-1.541,-1.541,-1.541,-1.541,-1.541,-1.541,-1.541,-1.541,-1.541,-1.541,-1.541,-1.541,-1.541,-1.541,-1.5911,-1.6397,-1.6397,-1.6968,-1.7715,-1.8367,-1.8608,-1.89,-1.9579,-1.9759,-1.9811,-1.9811,-1.9811,-1.9811,-1.9811,-1.9811,-1.9811,-1.9811,-1.9811,-1.9811,-1.9811,-1.9811,-1.9811,-1.9811,-1.9811,-1.9811,-1.9811,-2.0396,-2.0991,-2.1615,-2.1615,-2.1663,-2.171,-2.171,-2.171,-2.171,-2.171,-2.171,0.0,-0.3757,0.0,0.0,0.0,0.0,0.0,0.0,0.0,0.0,0.0,0.0,0.0,0.0,0.0,0.0,0.0,0.0,0.0,0.0,0.0,0.0,0.0,0.0,0.0,0.0,0.0,0.0,0.0,0.0,0.0,0.0,0.0,-1.0207,-1.0466,-1.0681,-1.087,-1.1469,-1.1981,0.0,-1.2978,-1.3674,-1.4481,-1.5118,-1.541,-1.541,-1.541,-1.541,-1.541,-1.541,-1.541,-1.541,-1.541,-1.541,-1.541,-1.541,-1.541,-1.541,-1.541,-1.541,-1.541,-1.541,-1.541,-1.541,-1.541,-1.541,-1.541,-1.541,-1.541,-1.541,-1.541,-1.541,-1.541,-1.541,-1.5526,-1.5642,-1.5642,-1.6226,-1.6793,-1.6961,-1.7907,-1.8741,-1.89,-1.9423,-1.9811,-1.9811,-1.9811,-1.9811,-1.9811,-1.9811,-1.9811,-1.9811,-1.9811,-1.9811,-1.9811,-1.9811,-1.9811,-1.9811,-1.9811,-1.9811,-1.9811,-1.9939,-2.0321,-2.0993,-2.0991,-2.1234,-2.171,-2.171,-2.171,-2.171,-2.171,-2.171,0.0,0.0,0.0,0.0,0.0,0.0,0.0,0.0,0.0,0.0,0.0,0.0,0.0,0.0,0.0,0.0,0.0,0.0,0.0,0.0,0.0,0.0,0.0,0.0,0.0,0.0,0.0,0.0,0.0,0.0,0.0,-0.9833,-0.9967,-1.0114,-1.0127,-1.0305,-1.0586,-1.0874,-1.1261,-1.1795,-1.2228,-1.2856,-1.3674,-1.4864,-1.541,-1.541,-1.541,-1.541,-1.541,-1.541,-1.541,-1.541,-1.541,-1.541,-1.541,-1.541,-1.541,-1.541,-1.541,-1.541,-1.541,-1.541,-1.541,-1.541,-1.541,-1.541,-1.541,-1.541,-1.541,-1.541,-1.541,-1.541,-1.541,-1.541,-1.541,-1.541,-1.541,-1.57,-1.6083,-1.6425,-1.7107,-1.7879,-1.8581,-1.9319,-1.9811,-1.9811,-1.9811,-1.9811,-1.9811,-1.9811,-1.9811,-1.9811,-1.9811,-1.9811,-1.9811,-1.9811,-1.9811,-1.9811,-1.9811,-1.9811,-1.9811,-1.9811,-1.994,-2.0295,-2.0321,-2.0497,-2.0792,-2.0792,-2.0792,-2.0792,-2.0792,-2.0792,0.0,0.0,0.0,0.0,0.0,0.0,0.0,0.0,0.0,0.0,0.0,0.0,0.0,0.0,0.0,0.0,0.0,0.0,0.0,0.0,0.0,0.0,0.0,0.0,0.0,0.0,0.0,0.0,0.0,0.0,-0.9539,-0.9579,-0.9713,-0.9923,-0.978,-0.9943,-1.0439,-1.0207,-1.0557,-1.1505,-1.1719,-1.2135,-1.2856,-1.4332,-1.5001,-1.5001,-1.5001,-1.5001,-1.5001,-1.5001,-1.5001,-1.4982,-1.5147,-1.5206,-1.5206,-1.5206,-1.5206,-1.5177,-1.5011,-1.5001,-1.5001,-1.5001,-1.5089,-1.5206,-1.5206,-1.5294,-1.541,-1.541,-1.541,-1.541,-1.541,-1.541,-1.541,-1.541,-1.541,-1.541,-1.541,-1.541,-1.5584,-1.6169,-1.6454,-1.6996,-1.8421,-1.9293,-1.9811,-1.9811,-1.9811,-1.9811,-1.9811,-1.9811,-1.9811,-1.9811,-1.9811,-1.9811,-1.9811,-1.9811,-1.9811,-1.9811,-1.9811,-1.9811,-1.9811,-1.9811,-1.9811,-1.9811,-1.9811,-1.9811,-1.9811,-1.9811,-1.9811,-1.9811,-1.9811,-1.9811,0.0,0.0,0.0,0.0,0.0,0.0,0.0,0.0,0.0,0.0,0.0,0.0,0.0,0.0,0.0,0.0,0.0,0.0,0.0,0.0,0.0,0.0,0.0,0.0,0.0,0.0,0.0,0.0,0.0,0.0,-0.8925,-0.9138,-0.9284,-0.9324,-0.9566,-0.9755,-0.9836,-1.0007,-1.0171,-1.035,-1.1338,-1.1857,-1.1981,-1.2901,-1.3312,-1.3312,-1.3312,-1.3312,-1.3312,-1.3312,-1.3312,-1.3403,-1.4094,-1.4362,-1.4362,-1.4362,-1.4362,-1.4273,-1.3554,-1.3312,-1.3312,-1.3312,-1.3795,-1.4362,-1.4362,-1.4835,-1.541,-1.541,-1.541,-1.541,-1.541,-1.541,-1.541,-1.541,-1.541,-1.541,-1.541,-1.541,-1.5439,-1.5526,-1.6255,-1.7191,-1.8255,-1.9188,-1.9811,-1.9811,-1.9811,-1.9811,-1.9811,-1.9811,-1.9811,-1.9811,-1.9811,-1.9811,-1.9811,-1.9811,-1.9811,-1.9811,-1.9811,-1.9811,-1.9811,-1.9811,-1.9811,-1.9811,-1.9811,-1.9811,-1.9811,-1.9811,-1.9811,-1.9811,-1.9811,-1.9811,0.0,0.0,0.0,0.0,0.0,0.0,0.0,0.0,0.0,0.0,0.0,0.0,0.0,0.0,0.0,0.0,0.0,0.0,0.0,0.0,0.0,0.0,0.0,0.0,0.0,0.0,0.0,0.0,0.0,-0.8804,-0.8804,-0.8898,-0.9044,-0.9204,-0.9205,-0.9352,-0.9715,-0.9646,-0.9764,-1.0114,-1.0601,-1.0939,-1.1139,-1.1483,-1.2151,-1.3009,-1.3009,-1.3009,-1.3009,-1.3009,-1.3009,-1.3039,-1.3403,-1.3524,-1.3524,-1.3524,-1.3524,-1.3494,-1.313,-1.3009,-1.3009,-1.3009,-1.3252,-1.3524,-1.3524,-1.4094,-1.4717,-1.4717,-1.504,-1.541,-1.541,-1.541,-1.541,-1.541,-1.541,-1.541,-1.541,-1.541,-1.541,-1.541,-1.6226,-1.6877,-1.6736,-1.8447,-1.9811,-1.9811,-1.9811,-1.9811,-1.9811,-1.9811,-1.9811,-1.9811,-1.9811,-1.9811,-1.9811,-1.9811,-1.9811,-1.9811,-1.9811,-1.9811,-1.9811,-1.9811,-1.9811,-1.9811,-1.9811,-1.9811,-1.9811,-1.9811,-1.9811,-1.9811,-1.9811,-1.9811,0.0,0.0,0.0,0.0,0.0,0.0,0.0,0.0,0.0,0.0,0.0,0.0,0.0,0.0,0.0,0.0,0.0,0.0,0.0,0.0,0.0,0.0,0.0,0.0,0.0,0.0,0.0,0.0,0.0,-0.8804,-0.8804,-0.8804,-0.8884,-0.9098,-0.8898,-0.9018,-0.9459,-0.9284,-0.9471,-1.0007,-1.0007,-1.0167,-1.0479,-1.0479,-1.1162,-1.2397,-1.2397,-1.2397,-1.2397,-1.2397,-1.2397,-1.2397,-1.2612,-1.2704,-1.2704,-1.2704,-1.2704,-1.2673,-1.2458,-1.2397,-1.2397,-1.2397,-1.2397,-1.2397,-1.2397,-1.31,-1.3974,-1.4392,-1.4923,-1.541,-1.541,-1.541,-1.541,-1.541,-1.541,-1.541,-1.541,-1.541,-1.541,-1.541,-1.5997,-1.6283,-1.5526,-1.7224,-1.8664,-1.8664,-1.9319,-1.9811,-1.9811,-1.9811,-1.9811,-1.9811,-1.9811,-1.9811,-1.9811,-1.9811,-1.9811,-1.9811,-1.9811,-1.9811,-1.9811,-1.9811,-1.9811,-1.9811,-1.9811,-1.9811,-1.9811,-1.9811,-1.9811,-1.9811,-1.9811,-1.9811,0.0,0.0,0.0,0.0,0.0,0.0,0.0,0.0,0.0,0.0,0.0,0.0,0.0,0.0,0.0,0.0,0.0,0.0,0.0,0.0,0.0,0.0,0.0,0.0,0.0,0.0,0.0,0.0,0.0,-0.8804,-0.8804,-0.8804,-0.8818,-0.8831,-0.8818,-0.8818,-0.8858,-0.9084,-0.9364,-0.9729,-0.9729,-0.986,-1.014,-1.014,-1.0349,-1.0713,-1.0713,-1.0713,-1.0713,-1.0713,-1.0713,-1.0807,-1.1562,-1.1857,-1.1857,-1.1857,-1.1857,-1.1748,-1.0982,-1.0713,-1.0713,-1.0713,-1.0713,-1.0713,-1.0713,-1.181,-1.3373,-1.4894,-1.5381,-1.541,-1.541,-1.541,-1.541,-1.541,-1.541,-1.541,-1.541,-1.541,-1.541,-1.541,-1.5439,-1.5468,-1.541,-1.5526,-1.5623,-1.5623,-1.802,-1.9811,-1.9811,-1.9811,-1.9811,-1.9811,-1.9811,-1.9811,-1.9811,-1.9811,-1.9811,-1.9811,-1.9811,-1.9811,-1.9811,-1.9811,-1.9811,-1.9811,-1.9811,-1.9811,-1.9811,-1.9811,-1.9811,-1.9811,-1.9811,-1.9811,0.0,0.0,0.0,0.0,0.0,0.0,0.0,0.0,0.0,0.0,0.0,0.0,0.0,0.0,0.0,0.0,0.0,0.0,0.0,0.0,0.0,0.0,0.0,0.0,0.0,0.0,0.0,0.0,0.0,0.0,-0.8804,-0.8804,-0.8804,-0.8804,-0.8804,-0.8804,-0.8804,-0.8884,-0.9084,-0.9364,-0.9364,-0.9552,-0.9833,-0.9833,-0.9993,-1.0274,-1.0274,-1.0412,-1.0586,-1.0586,-1.0586,-1.0618,-1.0919,-1.1014,-1.1014,-1.1014,-1.1014,-1.0982,-1.0713,-1.0586,-1.0586,-1.0586,-1.0586,-1.0586,-1.0586,-1.0996,-1.1577,-1.2182,-1.3807,-1.541,-1.541,-1.541,-1.541,-1.541,-1.541,-1.541,-1.541,-1.541,-1.541,-1.541,-1.541,-1.541,-1.541,-1.541,-1.541,-1.541,-1.6291,-1.6974,-1.6974,-1.8635,-1.9811,-1.9811,-1.9811,-1.9811,-1.9811,-1.9811,-1.9811,-1.9811,-1.9811,-1.9811,-1.9811,-1.9811,-1.9811,-1.9811,-1.9811,-1.9811,-1.9811,-1.9811,-1.9811,-1.9811,-1.9811,-1.9811,-0.0535,0.0,0.0,0.0,0.0,0.0,0.0,0.0,0.0,0.0,0.0,0.0,0.0,0.0,0.0,0.0,0.0,0.0,0.0,0.0,0.0,0.0,0.0,0.0,0.0,0.0,0.0,0.0,0.0,0.0,-0.8778,-0.8804,-0.8804,-0.8804,-0.8804,-0.8804,-0.8804,-0.8804,-0.8871,-0.9071,-0.9071,-0.9217,-0.9539,-0.9539,-0.9699,-0.9967,-0.9967,-1.0194,-1.0586,-1.0586,-1.0586,-1.0586,-1.0586,-1.0586,-1.0586,-1.0586,-1.0586,-1.0586,-1.0586,-1.0586,-1.0586,-1.0586,-1.0586,-1.0586,-1.0586,-1.0586,-1.0586,-1.0586,-1.2135,-1.4046,-1.5099,-1.541,-1.541,-1.541,-1.541,-1.541,-1.541,-1.541,-1.541,-1.541,-1.541,-1.541,-1.541,-1.541,-1.541,-1.541,-1.541,-1.541,-1.541,-1.7113,-1.8317,-1.8317,-1.8317,-1.8717,-1.9708,-1.9811,-1.9811,-1.9811,-1.9811,-1.9811,-1.9811,-1.9811,-1.9811,-1.9811,-1.9811,-1.9811,-1.9811,-1.9811,-1.9811,-1.9811,-1.9811,-1.9811,0.0,0.0,0.0,0.0,0.0,0.0,0.0,0.0,0.0,0.0,0.0,0.0,0.0,0.0,0.0,0.0,0.0,0.0,0.0,0.0,0.0,0.0,0.0,0.0,0.0,0.0,0.0,0.0,0.0,-0.7996,-0.8699,-0.8752,-0.8752,-0.8725,-0.8778,-0.8778,-0.8778,-0.8778,-0.8804,-0.8804,-0.8804,-0.8924,-0.9204,-0.9204,-0.9364,-0.9702,-0.9702,-1.0023,-1.0559,-1.0573,-1.0586,-1.0586,-1.0586,-1.0586,-1.0586,-1.0586,-1.0586,-1.0586,-1.0586,-1.0586,-1.0586,-1.0586,-1.0586,-1.0586,-1.0586,-1.0586,-1.0586,-1.0586,-1.0586,-1.1358,-1.4569,-1.541,-1.541,-1.541,-1.541,-1.541,-1.541,-1.541,-1.541,-1.541,-1.541,-1.541,-1.541,-1.541,-1.541,-1.541,-1.541,-1.541,-1.541,-1.541,-1.541,-1.541,-1.541,-1.6602,-1.9553,-1.9811,-1.9811,-1.9811,-1.9811,-1.9811,-1.9811,-1.9811,-1.9811,-1.9811,-1.9811,-1.9811,-1.9811,-1.9811,-1.9811,-1.9811,-1.9811,-1.9811,0.0,0.0,0.0,0.0,0.0,0.0,0.0,0.0,0.0,0.0,0.0,0.0,0.0,0.0,0.0,0.0,0.0,0.0,0.0,0.0,0.0,0.0,0.0,0.0,0.0,0.0,0.0,0.0,-0.6497,-0.6993,-0.7208,-0.7729,-0.7744,-0.7235,-0.8235,-0.854,-0.8023,-0.854,-0.8804,-0.8804,-0.8804,-0.8844,-0.8898,-0.8898,-0.9058,-0.9337,-0.9337,-0.9579,-0.997,-1.0154,-1.0399,-1.0586,-1.0586,-1.0586,-1.0586,-1.0586,-1.0586,-1.0586,-1.0586,-1.0586,-1.0586,-1.0586,-1.0586,-1.0586,-1.0586,-1.0586,-1.0586,-1.0586,-1.0586,-1.1358,-1.4569,-1.541,-1.541,-1.541,-1.541,-1.541,-1.541,-1.541,-1.541,-1.541,-1.541,-1.541,-1.541,-1.541,-1.541,-1.541,-1.541,-1.541,-1.541,-1.541,-1.541,-1.541,-1.541,-1.6602,-1.9553,-1.9811,-1.9811,-1.9811,-1.9811,-1.9811,-1.9811,-1.9811,-1.9811,-1.9811,-1.9811,-1.9811,-1.9811,-1.9811,-1.9811,-1.9811,-1.9811,-1.9811,0.0,0.0,0.0,0.0,0.0,0.0,0.0,0.0,0.0,0.0,0.0,0.0,0.0,0.0,0.0,0.0,0.0,0.0,0.0,0.0,0.0,0.0,0.0,0.0,0.0,0.0,0.0,-0.5483,-0.59,-0.6281,-0.6588,-0.702,-0.7047,-0.6615,-0.7423,-0.7836,-0.7691,-0.8129,-0.8513,-0.8804,-0.8804,-0.8804,-0.8804,-0.8804,-0.8871,-0.9031,-0.9031,-0.9204,-0.9512,-0.9657,-0.9993,-1.0381,-1.0381,-1.0479,-1.0586,-1.0586,-1.0586,-1.0586,-1.0586,-1.0586,-1.0586,-1.0586,-1.0586,-1.0586,-1.0586,-1.0586,-1.0586,-1.0586,-1.0586,-1.1014,-1.2901,-1.4373,-1.541,-1.541,-1.541,-1.541,-1.541,-1.541,-1.541,-1.541,-1.541,-1.541,-1.541,-1.541,-1.541,-1.541,-1.541,-1.541,-1.541,-1.541,-1.541,-1.541,-1.541,-1.6091,-1.7829,-1.8344,-1.8794,-1.9319,-1.9345,-1.9475,-1.9811,-1.9811,-1.9811,-1.9811,-1.9811,-1.9811,-1.9811,-1.9811,-1.9811,-1.9811,-1.9811,-1.9811,0.0,0.0,0.0,0.0,0.0,0.0,0.0,0.0,0.0,0.0,0.0,0.0,0.0,0.0,0.0,0.0,0.0,0.0,0.0,0.0,0.0,0.0,0.0,0.0,0.0,-0.4491,-0.4732,-0.5355,-0.5374,-0.5683,-0.6344,-0.6453,-0.6453,-0.6372,-0.6507,-0.6885,-0.745,-0.761,-0.8023,-0.8672,-0.8752,-0.8804,-0.8804,-0.8804,-0.8804,-0.8804,-0.8804,-0.8924,-0.9164,-0.9164,-0.9524,-1.0083,-1.0083,-1.0301,-1.0586,-1.0586,-1.0586,-1.0586,-1.0586,-1.0586,-1.0586,-1.0586,-1.0586,-1.0586,-1.0586,-1.0586,-1.0586,-1.0586,-1.0586,-1.0586,-1.0586,-1.2992,-1.541,-1.541,-1.541,-1.541,-1.541,-1.541,-1.541,-1.541,-1.541,-1.541,-1.541,-1.541,-1.541,-1.541,-1.541,-1.541,-1.541,-1.541,-1.541,-1.541,-1.541,-1.541,-1.541,-1.6226,-1.7274,-1.8501,-1.8581,-1.89,-1.9631,-1.9657,-1.9708,-1.9811,-1.9811,-1.9811,-1.9811,-1.9811,-1.9811,-1.9811,-1.9811,-1.9811,0.0,0.0,0.0,0.0,0.0,0.0,0.0,0.0,0.0,0.0,0.0,0.0,0.0,0.0,0.0,0.0,0.0,0.0,0.0,0.0,0.0,0.0,0.0,0.0,0.0,-0.4491,-0.4546,-0.4677,-0.4704,-0.4759,-0.4897,-0.541,-0.5464,-0.4924,-0.6018,-0.6389,-0.5919,-0.7117,-0.7783,-0.7916,-0.8513,-0.8804,-0.8804,-0.8804,-0.8804,-0.8804,-0.8804,-0.8844,-0.8884,-0.8884,-0.9379,-1.0083,-1.0083,-1.0301,-1.0586,-1.0586,-1.0586,-1.0586,-1.0586,-1.0586,-1.0586,-1.0586,-1.0586,-1.0586,-1.0586,-1.0586,-1.0586,-1.0586,-1.0586,-1.0586,-1.0586,-1.2992,-1.541,-1.541,-1.541,-1.541,-1.541,-1.541,-1.541,-1.541,-1.541,-1.541,-1.541,-1.541,-1.541,-1.541,-1.541,-1.541,-1.541,-1.541,-1.541,-1.541,-1.541,-1.541,-1.541,-1.5584,-1.6312,-1.7715,-1.7825,-1.8151,-1.8874,-1.89,-1.919,-1.9811,-1.9811,-1.9811,-1.9811,-1.9811,-1.9811,-1.9811,-1.9811,-1.9811,0.0,0.0,0.0,0.0,0.0,0.0,0.0,0.0,0.0,0.0,0.0,0.0,0.0,0.0,0.0,0.0,0.0,0.0,0.0,0.0,0.0,0.0,0.0,0.0,0.0,-0.445,-0.4491,-0.4491,-0.4491,-0.4491,-0.4491,-0.4814,-0.4842,-0.4519,-0.5171,-0.5546,-0.5511,-0.6217,-0.6956,-0.7691,-0.8076,-0.846,-0.8804,-0.8804,-0.8804,-0.8804,-0.8804,-0.8804,-0.8804,-0.8804,-0.9124,-0.9644,-0.9644,-0.986,-1.0157,-1.0157,-1.0251,-1.0341,-1.0341,-1.0466,-1.0586,-1.0586,-1.0586,-1.0586,-1.0586,-1.0586,-1.0586,-1.0586,-1.0586,-1.0586,-1.0586,-1.181,-1.3023,-1.3023,-1.4225,-1.541,-1.541,-1.541,-1.541,-1.541,-1.541,-1.541,-1.541,-1.541,-1.541,-1.541,-1.541,-1.541,-1.541,-1.541,-1.541,-1.541,-1.541,-1.541,-1.541,-1.541,-1.5709,-1.6461,-1.6856,-1.7385,-1.8124,-1.8151,-1.8447,-1.9083,-1.9083,-1.9319,-1.9811,-1.9811,-1.9811,-1.9811,-1.9811,-1.9811,0.0,0.0,0.0,0.0,0.0,0.0,0.0,0.0,0.0,0.0,0.0,0.0,0.0,0.0,0.0,0.0,0.0,0.0,0.0,0.0,0.0,0.0,0.0,0.0,0.0,-0.43,-0.4395,-0.4484,-0.4409,-0.4395,-0.4484,-0.4491,-0.4491,-0.4491,-0.4491,-0.4759,-0.53,-0.5429,-0.6109,-0.7289,-0.7423,-0.7797,-0.8368,-0.8513,-0.8513,-0.8368,-0.854,-0.8513,-0.8368,-0.8368,-0.8589,-0.8932,-0.9136,-0.9391,-0.9715,-0.9715,-0.9833,-1.0033,-1.0033,-1.0234,-1.0506,-1.0506,-1.0546,-1.0586,-1.0586,-1.0586,-1.0586,-1.0586,-1.0586,-1.0586,-1.0586,-1.0586,-1.0586,-1.0586,-1.2565,-1.4462,-1.4462,-1.4952,-1.5235,-1.4599,-1.4982,-1.541,-1.541,-1.541,-1.541,-1.541,-1.541,-1.541,-1.541,-1.541,-1.541,-1.541,-1.541,-1.541,-1.541,-1.541,-1.541,-1.541,-1.594,-1.6624,-1.7357,-1.7633,-1.7907,-1.8228,-1.8525,-1.8898,-1.9371,-1.9085,-1.9242,-1.9811,-1.9811,-1.9811,0.0,0.0,0.0,0.0,0.0,0.0,0.0,0.0,0.0,0.0,0.0,0.0,0.0,0.0,0.0,0.0,0.0,0.0,0.0,0.0,0.0,0.0,0.0,0.0,0.0,0.0,-0.4061,-0.4457,-0.4116,-0.4068,-0.447,-0.4491,-0.4491,-0.4491,-0.4491,-0.4546,-0.4629,-0.5191,-0.5592,-0.5756,-0.6416,-0.6777,-0.6858,-0.753,-0.7477,-0.6885,-0.753,-0.745,-0.6858,-0.6858,-0.7257,-0.7949,-0.8864,-0.9391,-0.9715,-0.9715,-0.9699,-0.974,-0.974,-0.9927,-1.0167,-1.0167,-1.0341,-1.0586,-1.0586,-1.0586,-1.0586,-1.0586,-1.0586,-1.0586,-1.0586,-1.0586,-1.0586,-1.0586,-1.087,-1.1139,-1.1139,-1.3386,-1.4569,-1.1686,-1.3446,-1.541,-1.541,-1.541,-1.541,-1.541,-1.541,-1.541,-1.541,-1.541,-1.541,-1.541,-1.541,-1.541,-1.541,-1.541,-1.541,-1.541,-1.5468,-1.5874,-1.6595,-1.771,-1.812,-1.7688,-1.8953,-1.9032,-1.7852,-1.6546,-1.7252,-1.9811,-1.9811,-1.9811,0.0,0.0,0.0,0.0,0.0,0.0,0.0,0.0,0.0,0.0,0.0,0.0,0.0,0.0,0.0,0.0,0.0,0.0,0.0,0.0,0.0,0.0,0.0,0.0,0.0,0.0,0.0,0.0,0.0,-0.3866,-0.4314,-0.4334,-0.4375,-0.4491,-0.4491,-0.4491,-0.4491,-0.4787,-0.5109,-0.5511,-0.5819,-0.6172,-0.6615,-0.6912,-0.6885,-0.6615,-0.6939,-0.6885,-0.6588,-0.6588,-0.6777,-0.7139,-0.8009,-0.8677,-0.9178,-0.9178,-0.9285,-0.9391,-0.9391,-0.9619,-0.9886,-1.006,-1.0314,-1.0586,-1.0586,-1.0586,-1.0586,-1.0586,-1.0586,-1.0586,-1.0586,-1.0586,-1.0586,-1.0586,-1.0586,-1.0586,-1.0586,-1.1655,-1.2228,-1.087,-1.1686,-1.2626,-1.2626,-1.4165,-1.541,-1.541,-1.541,-1.541,-1.541,-1.541,-1.541,-1.541,-1.541,-1.541,-1.541,-1.541,-1.541,-1.541,-1.541,-1.5555,-1.5874,-1.6397,-1.6546,-1.634,-1.6918,-1.6946,-1.6319,-1.6312,-1.6912,-1.8124,-1.8124,-1.8259,0.0299,0.0,0.0,0.0,0.0,0.0,0.0,0.0,0.0,0.0,0.0,0.0,0.0,0.0,0.0,0.0,0.0,0.0,0.0,0.0,0.0,0.0,0.0,0.0,0.0,0.0,0.0,0.0,0.0,0.0,-0.4167,-0.4194,-0.4287,-0.4484,-0.4491,-0.4491,-0.4491,-0.4491,-0.4732,-0.5218,-0.5218,-0.5492,-0.6046,-0.6199,-0.6199,-0.6046,-0.6236,-0.6209,-0.6018,-0.6018,-0.6118,-0.6362,-0.6875,-0.7664,-0.8513,-0.8725,-0.8911,-0.9098,-0.9098,-0.9365,-0.9726,-1.002,-1.0314,-1.0586,-1.0586,-1.0586,-1.0586,-1.0586,-1.0586,-1.0586,-1.0586,-1.0586,-1.0586,-1.0586,-1.0586,-1.0586,-1.0586,-1.0586,-1.0586,-1.0586,-1.0586,-1.0586,-1.0586,-1.3265,-1.541,-1.541,-1.541,-1.541,-1.541,-1.541,-1.541,-1.541,-1.541,-1.541,-1.541,-1.541,-1.541,-1.541,-1.541,-1.541,-1.541,-1.541,-1.541,-1.541,-1.541,-1.541,-1.541,-1.614,-1.651,-1.651,-1.6884,-1.7274,0.0,0.0,0.0,0.0,0.0,0.0,0.0,0.0,0.0,0.0,0.0,0.0,0.0,0.0,0.0,-0.002,-0.002,0.0,0.0,0.0,0.0,0.0,0.0,0.0,0.0,0.0,0.0,0.0,0.0,0.0,-0.4147,-0.4194,-0.4287,-0.4484,-0.4491,-0.4491,-0.4491,-0.4491,-0.4519,-0.4546,-0.4546,-0.4546,-0.4601,-0.5246,-0.5191,-0.4601,-0.5246,-0.5164,-0.4574,-0.4574,-0.4952,-0.5538,-0.5565,-0.647,-0.7836,-0.854,-0.8818,-0.8818,-0.8818,-0.9205,-0.9726,-1.002,-1.0314,-1.0586,-1.0586,-1.0586,-1.0586,-1.0586,-1.0586,-1.0586,-1.0586,-1.0586,-1.0586,-1.0586,-1.0586,-1.0586,-1.0586,-1.0586,-1.0586,-1.0586,-1.0586,-1.0586,-1.0586,-1.3265,-1.541,-1.541,-1.541,-1.541,-1.541,-1.541,-1.541,-1.541,-1.541,-1.541,-1.541,-1.541,-1.541,-1.541,-1.541,-1.541,-1.541,-1.541,-1.541,-1.541,-1.541,-1.541,-1.541,-1.5439,-1.5439,-1.5497,-1.6912,-1.7578,0.0,0.0,0.0719,0.074,0.0,0.0,0.0,0.0,0.0,0.0,0.0,0.0,0.0,0.0,0.0,0.0,0.0,0.0,0.0,0.0,0.0,0.0,0.0,0.0,0.0,0.0,0.0,0.0,0.0,0.0,0.0,-0.4018,-0.4139,-0.4287,-0.4436,-0.4491,-0.4491,-0.4491,-0.4491,-0.4491,-0.4491,-0.4491,-0.4519,-0.4732,-0.4704,-0.4519,-0.4732,-0.4704,-0.4491,-0.4491,-0.4622,-0.4869,-0.5328,-0.581,-0.6389,-0.761,-0.8368,-0.8804,-0.8804,-0.9058,-0.9391,-0.9579,-0.9886,-1.0251,-1.0506,-1.0586,-1.0586,-1.0586,-1.0586,-1.0586,-1.0586,-1.0586,-1.0586,-1.0586,-1.0586,-1.0586,-1.0586,-1.0586,-1.0586,-1.0586,-1.0586,-1.0586,-1.0586,-1.15,-1.2228,-1.2228,-1.4046,-1.541,-1.541,-1.541,-1.541,-1.541,-1.541,-1.541,-1.541,-1.541,-1.541,-1.541,-1.541,-1.541,-1.541,-1.541,-1.541,-1.541,-1.541,-1.541,-1.541,-1.541,-1.541,-1.541,-1.5911,-1.614,0.279,0.2063,0.0,0.1498,0.1147,0.0,0.0458,0.0,0.0,0.0,0.0,0.0,0.0,0.0,0.0,0.0,0.0,0.0,0.0,0.0,0.0,0.0,0.0,0.0,0.0,0.0,-0.1531,-0.2245,0.0,0.0,0.0,0.0,-0.4065,-0.4187,-0.4389,-0.4491,-0.4491,-0.4491,-0.4491,-0.4491,-0.4491,-0.4491,-0.4491,-0.4491,-0.4491,-0.4491,-0.4491,-0.4491,-0.4491,-0.4491,-0.4491,-0.4546,-0.4979,-0.53,-0.5647,-0.6848,-0.7783,-0.8407,-0.8407,-0.8802,-0.9271,-0.9365,-0.9782,-1.0265,-1.0519,-1.0586,-1.0586,-1.0586,-1.0586,-1.0586,-1.0586,-1.0586,-1.0586,-1.0586,-1.0586,-1.0586,-1.0586,-1.0586,-1.0586,-1.0586,-1.0586,-1.0586,-1.0586,-1.0586,-1.0586,-1.0586,-1.2351,-1.3687,-1.3687,-1.4688,-1.541,-1.541,-1.541,-1.541,-1.541,-1.541,-1.541,-1.541,-1.541,-1.541,-1.541,-1.541,-1.541,-1.541,-1.541,-1.541,-1.541,-1.541,-1.541,-1.541,-1.541,-1.541]}]]